GFSSGP_925_rhum_000.txt.gz
RH
31 27 30 28 33 45 44 34 28 28 26 21 24 22 23 26 27 39 53 57 58 64 86 85 86 78 89 98 95 76 74 76 74 72 70 74 71 77 78 78 73 75 70 76 80 79 72 82 84
30 32 32 43 40 40 38 28 26 23 22 24 24 23 24 39 47 56 62 58 53 61 83 84 77 73 93 96 80 76 81 82 76 73 68 67 66 66 70 70 66 68 71 74 72 81 73 75 75
29 34 43 46 54 44 35 26 24 20 20 24 22 26 33 39 53 53 50 57 57 58 72 75 76 78 88 87 76 72 84 84 76 67 69 70 73 77 78 63 63 67 70 74 67 72 84 86 70
40 40 41 45 48 40 32 30 21 20 19 22 23 34 37 37 40 46 50 55 60 61 70 76 82 79 83 82 71 74 88 86 82 68 70 74 76 76 78 77 63 66 72 69 70 79 88 90 92
40 52 55 51 49 39 32 23 21 21 21 23 25 28 38 40 46 46 50 56 62 69 70 78 75 71 82 70 70 76 88 90 78 79 74 76 72 70 77 73 69 70 71 70 74 87 85 86 91
57 54 65 65 51 40 35 27 20 20 22 24 24 30 37 43 49 47 48 53 58 71 80 77 70 70 75 71 73 71 76 88 81 80 81 81 69 65 76 82 83 78 84 78 88 89 92 90 88
63 68 67 59 54 50 36 23 20 19 26 25 24 31 35 42 45 46 47 50 59 70 82 82 80 74 70 71 71 69 73 78 78 75 70 67 68 62 66 83 87 84 76 77 78 72 69 71 71
61 65 68 62 58 53 35 25 18 21 22 21 22 33 35 34 46 47 47 53 64 72 75 78 81 78 69 72 69 71 78 77 79 80 77 68 55 61 67 70 75 73 76 66 57 66 71 75 74
55 80 83 66 57 45 34 31 24 22 27 25 23 25 22 24 46 52 51 61 78 79 69 68 70 80 63 70 69 77 76 75 78 76 72 65 53 61 75 76 73 68 68 70 74 76 77 78 77
80 92 76 56 49 46 39 32 29 27 30 29 28 25 27 39 56 59 62 61 66 79 74 66 64 62 64 67 67 75 73 75 73 72 73 69 66 67 70 71 72 73 76 77 78 79 80 76 74
78 84 61 51 43 42 42 37 30 31 35 31 28 28 26 43 48 56 58 58 55 60 67 69 66 70 74 73 76 74 78 74 74 74 73 74 72 72 74 75 75 76 79 82 83 79 75 75 74
83 68 61 57 50 52 50 34 37 34 32 27 30 30 30 31 34 35 37 46 53 59 62 65 68 72 78 80 82 80 79 80 76 77 74 75 75 76 79 81 81 81 84 82 80 69 54 54 53
79 66 61 58 55 51 47 50 43 39 33 33 32 30 33 34 35 28 25 22 26 49 58 64 68 73 79 78 80 81 78 79 73 73 74 75 77 82 84 85 83 74 68 60 51 52 47 43 42
60 63 63 56 52 50 52 48 42 38 34 36 34 35 35 34 34 30 29 33 35 36 54 63 68 76 77 77 79 80 76 75 75 75 77 79 81 83 86 66 54 49 48 45 44 42 40 39 37
62 69 61 59 60 54 46 56 53 37 36 37 36 36 36 35 29 32 31 36 38 44 54 64 70 74 78 82 83 83 74 72 72 74 73 78 75 76 59 53 45 44 43 42 40 37 32 25 27
75 73 86 60 59 58 53 70 47 37 41 41 40 41 40 33 38 38 41 43 46 50 61 65 70 78 82 88 86 85 75 74 75 72 69 68 65 61 56 35 36 38 38 37 32 24 18 27 19
85 94 80 70 57 59 61 61 46 37 44 42 43 43 39 42 42 41 40 42 44 48 54 60 70 81 85 90 86 81 79 75 70 65 53 48 42 34 29 30 26 26 28 24 19 18 20 28 20
71 84 72 69 65 64 65 64 53 42 44 44 41 42 43 47 47 41 39 42 47 47 48 56 76 86 87 87 78 70 65 56 52 47 43 35 29 26 22 22 22 23 20 18 20 17 15 29 28
82 84 78 69 55 66 65 64 54 50 47 46 46 40 47 51 46 39 40 48 54 58 59 67 86 85 82 67 53 46 40 38 33 28 27 24 22 23 23 21 21 22 19 21 23 19 20 26 29
83 84 85 67 54 62 72 75 61 47 45 42 42 43 53 52 51 52 54 61 63 67 68 85 77 71 72 66 58 49 37 32 28 26 22 23 24 23 22 20 20 20 17 16 20 22 24 29 29
81 82 76 80 64 53 53 61 67 55 46 40 43 38 49 51 54 61 75 69 70 74 79 78 69 68 69 60 49 37 32 30 27 24 25 23 23 22 21 20 19 19 18 18 21 20 22 26 23
86 65 67 68 81 91 71 90 66 54 54 45 44 45 52 55 53 62 76 74 70 72 73 73 68 66 60 51 41 33 37 36 32 28 27 25 24 21 20 19 18 18 19 19 19 18 19 20 27
74 55 60 66 74 84 73 89 74 52 57 48 43 46 52 51 53 65 71 67 64 64 66 67 63 56 50 45 36 31 36 38 36 29 26 25 24 21 18 16 17 18 18 18 18 17 18 20 23
60 66 65 69 80 91 69 82 76 69 50 46 43 47 54 52 60 68 66 63 60 58 56 57 54 51 47 40 35 36 38 37 35 29 25 24 23 20 18 17 17 17 17 17 17 18 19 21 23
62 74 94 97 96 82 60 82 63 56 50 36 41 53 54 52 63 70 69 65 58 54 54 52 50 50 45 40 39 39 38 32 28 27 25 23 22 20 19 17 17 16 17 17 18 19 21 23 25
74 70 86 91 97 78 73 79 73 53 42 39 41 45 51 56 62 66 65 60 56 50 46 46 46 46 42 40 39 37 32 28 24 23 22 22 20 20 19 18 17 16 15 16 19 21 24 26 27
78 84 59 78 74 90 87 82 70 60 48 45 51 53 55 59 65 68 67 61 58 52 46 43 42 41 39 38 35 30 27 27 25 22 22 21 20 19 17 16 15 14 15 20 23 26 27 28 28
71 60 82 81 100 92 82 84 66 59 43 53 54 54 55 60 68 70 64 63 58 50 47 43 40 38 35 32 30 28 26 25 23 22 22 20 19 18 16 15 13 15 19 24 27 29 30 31 32
86 82 70 61 77 98 92 78 55 47 43 53 52 51 57 63 68 69 67 64 60 52 46 42 38 35 32 30 28 26 24 22 22 22 21 20 18 17 15 14 16 19 23 27 29 31 32 33 33
65 67 63 68 66 73 98 74 40 44 38 45 50 49 55 58 64 68 70 70 63 56 48 42 36 32 29 26 24 23 22 22 22 23 22 20 18 17 16 18 20 24 27 29 31 31 32 35 37

GFSSGP_925_rhum_003.txt.gz
RH
38 31 32 28 37 49 47 38 27 28 25 22 25 26 25 29 27 38 57 57 59 63 82 87 83 88 96 98 96 92 85 81 78 72 72 76 71 78 78 82 77 74 72 67 73 68 68 78 83
36 34 33 47 49 44 42 30 27 23 21 24 25 23 26 41 50 58 62 62 64 64 87 88 84 84 93 97 97 95 90 80 76 74 72 76 74 78 75 74 68 68 71 74 69 77 68 66 74
34 38 43 49 58 56 41 27 26 23 20 25 24 32 34 44 54 58 50 53 66 65 81 85 80 82 88 97 95 94 92 86 78 77 74 74 78 80 78 63 66 69 71 75 67 71 83 91 86
43 44 46 49 53 46 34 34 25 24 18 23 25 31 38 38 45 47 49 57 62 60 79 83 78 80 86 91 94 95 91 87 78 77 69 67 72 81 78 74 64 67 71 68 69 75 85 91 94
43 56 59 57 55 43 36 31 24 23 22 22 26 29 39 40 48 49 53 63 60 62 75 78 79 80 82 85 80 93 92 87 80 74 76 73 72 73 78 74 75 72 74 74 85 89 91 90 89
62 59 71 67 53 43 40 33 29 24 22 24 26 33 38 43 52 52 57 58 64 61 75 81 84 79 82 79 76 80 90 89 79 83 83 84 69 64 72 75 80 78 83 83 83 86 89 91 89
67 69 71 63 57 50 42 30 20 22 26 27 26 31 35 40 48 52 54 59 68 69 75 83 83 81 81 73 76 71 78 88 83 79 81 83 71 64 66 82 89 88 79 71 74 72 80 83 88
68 71 72 69 60 54 37 29 21 22 24 23 24 33 35 33 34 51 54 58 71 77 80 81 77 78 81 78 74 69 74 80 78 76 77 72 65 60 68 73 76 72 73 72 70 78 81 82 80
60 83 87 67 62 47 35 33 28 23 24 26 25 28 25 23 42 54 58 68 87 87 86 84 84 81 77 74 75 73 79 78 80 82 80 75 58 57 72 72 73 70 72 76 81 82 82 80 77
82 93 74 60 52 49 38 36 35 28 30 30 29 26 33 42 54 58 65 77 96 99 93 86 86 82 79 76 77 78 79 80 82 81 76 71 68 68 71 71 72 75 79 82 84 85 83 79 77
82 84 64 55 49 45 46 39 33 35 38 32 30 27 36 52 63 63 61 63 76 79 87 84 79 74 80 70 76 82 83 80 81 78 76 75 72 71 75 78 79 80 82 86 88 81 70 58 51
84 71 64 56 52 54 54 42 38 34 33 28 31 28 30 48 58 61 60 57 63 70 72 74 75 72 69 70 72 74 79 79 79 77 78 78 77 81 82 85 82 85 88 85 67 48 50 49 42
80 73 62 62 62 59 56 59 56 46 37 32 32 33 34 36 37 36 40 41 42 60 66 71 72 71 74 77 81 82 80 80 79 82 82 78 80 85 90 82 78 70 59 51 50 47 43 37 33
67 66 65 63 60 58 61 58 53 44 38 38 37 36 35 36 36 34 31 28 29 27 53 68 70 71 78 83 85 85 82 82 79 77 76 81 87 89 82 64 58 51 47 44 41 37 30 24 21
67 77 67 63 58 64 50 62 59 45 42 41 40 40 37 38 34 34 26 26 27 26 34 61 70 71 80 83 85 80 77 80 74 79 82 81 84 69 64 54 50 43 40 37 31 22 17 18 17
74 76 87 60 61 59 57 70 49 45 46 44 41 43 41 40 35 30 28 28 35 42 43 59 72 77 82 82 85 81 74 72 76 76 74 74 73 65 58 42 33 31 26 21 18 17 16 18 14
85 86 84 73 58 61 67 65 52 43 43 47 45 44 41 42 40 34 36 42 43 46 55 70 74 82 85 88 86 84 75 74 74 75 66 64 61 37 29 24 23 22 20 18 17 15 14 23 14
83 94 80 82 59 65 64 59 58 52 49 46 45 42 48 44 41 36 42 47 52 55 65 74 82 87 90 91 85 83 81 73 67 61 50 43 30 23 23 24 24 22 18 16 14 13 13 25 17
86 87 81 68 60 70 64 63 54 58 57 54 53 44 48 43 44 42 44 47 54 54 57 73 86 94 92 80 74 61 59 50 42 37 30 24 23 25 25 24 22 19 16 18 16 14 14 18 23
83 85 82 66 57 58 64 69 62 56 52 53 52 46 47 47 50 48 50 57 61 56 57 80 88 86 80 73 70 64 47 35 29 24 24 25 26 24 24 23 20 18 15 15 16 18 17 18 28
87 91 73 70 65 58 62 61 50 44 49 51 47 44 42 46 51 56 72 73 70 70 70 86 78 76 78 69 61 50 33 28 25 24 25 25 25 24 23 22 19 16 15 16 18 19 21 25 21
92 72 72 71 78 84 67 74 62 57 54 51 47 54 45 53 51 61 81 82 81 79 82 78 74 75 72 64 57 44 31 27 26 26 26 25 24 23 22 19 17 16 16 16 18 18 20 23 29
74 62 67 76 86 88 77 87 70 49 50 52 56 54 48 52 52 60 74 77 78 81 82 72 71 71 65 61 58 39 29 28 29 28 27 26 24 21 19 17 16 15 16 17 16 17 20 22 25
58 71 72 71 82 95 68 79 58 53 62 51 49 52 49 54 56 68 77 74 77 77 78 70 68 65 59 57 48 38 30 32 30 28 26 25 23 21 19 17 16 15 15 15 16 19 21 24 26
63 75 97 97 95 82 61 70 57 52 54 50 45 47 56 58 66 78 78 78 75 74 72 67 65 58 52 49 40 31 34 35 30 28 26 25 23 22 20 18 16 16 15 16 19 21 24 26 28
79 73 86 84 96 79 49 64 58 52 37 34 41 46 62 60 62 72 74 72 70 69 68 64 60 54 49 42 36 37 38 37 31 28 26 24 22 21 19 18 17 16 16 18 22 25 27 28 29
96 97 66 67 64 97 82 76 70 66 63 57 53 53 62 60 66 71 72 66 65 63 61 59 56 52 47 41 42 42 37 31 28 25 23 23 22 20 18 17 16 16 18 22 26 28 28 29 30
69 63 95 96 95 94 76 85 72 62 49 41 53 49 56 59 68 71 67 64 61 58 55 54 52 49 46 43 40 35 30 26 25 23 23 22 21 19 17 16 16 18 22 26 28 29 28 30 33
82 88 76 66 80 93 91 60 66 57 50 52 55 58 60 65 71 71 65 64 61 54 51 48 47 44 41 37 32 28 26 25 23 23 22 22 20 18 16 16 19 22 26 28 29 28 30 36 38
62 69 73 91 84 63 92 74 59 58 46 51 54 56 64 70 72 68 68 70 64 55 48 44 40 36 33 30 27 26 24 23 23 23 23 21 20 18 18 20 23 27 29 30 30 32 39 41 43

GFSSGP_925_rhum_006.txt.gz
RH
38 32 31 29 39 49 49 40 29 28 27 23 24 26 27 29 33 39 59 60 56 59 72 79 86 84 96 96 94 89 82 88 78 77 82 75 73 79 79 82 79 78 78 66 73 78 74 77 85
40 33 31 48 48 50 46 34 28 26 22 24 27 27 27 36 50 55 64 63 59 58 74 81 89 92 97 98 97 91 88 83 79 74 74 73 72 83 66 73 70 71 72 78 73 70 64 62 63
40 36 43 50 61 58 46 29 29 28 25 24 25 31 34 41 53 55 51 58 65 67 81 83 84 92 91 97 95 96 92 82 78 77 74 76 78 81 76 64 68 69 74 75 66 64 71 81 83
43 44 50 51 56 48 38 30 31 30 22 24 25 28 37 39 47 48 51 57 67 75 84 86 85 86 84 94 95 98 94 88 80 81 74 71 75 82 79 71 67 69 72 66 67 71 81 87 89
44 59 60 60 58 45 40 34 30 30 27 23 26 27 37 38 50 49 54 59 64 78 84 82 81 76 85 87 92 95 93 89 82 79 75 71 76 74 78 81 73 74 75 76 83 91 93 94 95
64 62 73 68 54 44 40 36 31 29 28 24 27 33 37 40 53 56 59 56 61 67 81 82 81 78 85 86 83 86 94 90 82 76 82 83 69 67 76 82 78 78 83 91 90 96 96 95 94
69 72 72 62 58 50 42 36 27 26 24 29 26 30 33 35 50 52 59 63 65 65 78 83 84 82 82 87 78 77 86 92 80 85 87 87 70 65 71 85 87 88 86 76 81 94 92 87 85
74 71 75 71 60 58 36 33 26 22 22 24 26 31 30 30 45 53 62 69 75 73 74 83 89 87 83 88 78 74 75 80 77 78 78 74 66 67 65 73 80 72 70 75 82 83 83 85 84
63 85 91 74 66 53 37 37 30 26 26 28 26 27 27 25 44 57 62 74 86 86 80 86 95 85 87 85 80 75 71 80 85 79 81 76 65 56 67 70 71 72 77 82 84 88 89 84 80
83 96 78 64 56 48 43 43 39 32 34 32 31 26 31 41 58 63 67 79 100 99 99 93 99 89 89 86 83 79 78 84 84 85 82 71 60 64 74 76 75 77 80 84 87 85 81 76 68
80 84 67 61 54 50 51 45 37 38 46 37 32 31 32 53 62 64 64 64 76 85 100 100 99 94 90 88 86 83 82 84 84 87 81 74 70 72 75 78 81 83 84 80 84 75 55 49 46
88 79 73 61 56 60 60 54 50 42 41 30 32 31 31 45 67 68 64 61 62 73 84 87 92 89 91 89 83 81 85 85 85 82 77 79 78 80 83 86 81 86 80 84 51 49 46 40 34
83 79 68 63 65 67 64 67 69 61 47 41 41 35 37 37 48 48 52 52 55 58 61 74 85 86 83 89 79 82 84 82 82 82 80 81 81 85 92 79 75 64 53 50 46 40 34 28 23
70 72 71 64 68 65 66 64 61 53 48 46 44 41 39 40 38 34 33 30 31 34 37 51 69 80 78 78 78 78 82 85 86 86 86 80 78 85 83 67 55 49 45 41 32 23 19 18 18
72 81 73 68 63 66 62 69 66 50 51 51 48 45 42 40 35 36 28 28 25 26 28 31 53 73 78 79 83 88 88 88 84 73 80 86 86 80 65 54 45 37 29 22 18 18 17 18 16
75 77 92 63 65 63 62 74 51 44 45 48 47 50 46 42 38 34 30 28 25 27 33 35 54 70 79 86 92 93 87 88 76 78 84 83 75 64 53 42 27 22 21 20 19 17 16 16 13
82 92 88 70 57 62 70 65 54 48 47 51 53 51 47 45 42 36 30 28 30 31 41 49 69 76 84 94 91 86 86 83 80 82 78 68 65 49 34 23 24 24 23 20 16 14 13 18 12
86 90 77 72 60 66 77 75 61 54 57 61 58 55 52 49 44 34 32 32 44 44 49 65 82 84 90 92 88 86 79 76 73 66 60 57 39 24 24 27 26 23 20 16 13 12 12 17 18
86 92 92 76 61 69 74 70 60 56 60 65 56 60 54 53 43 36 34 42 56 59 68 82 89 94 90 89 83 75 74 71 66 57 46 33 24 26 28 28 25 20 17 15 13 12 12 17 23
85 89 86 76 61 65 65 62 53 52 55 62 62 56 58 53 48 47 47 54 60 63 74 90 94 94 89 84 80 80 70 56 48 36 26 25 26 27 28 27 23 18 15 14 13 14 15 18 27
90 92 86 83 63 56 62 60 47 39 39 40 42 42 47 49 52 51 58 61 64 67 71 93 95 87 82 79 70 66 48 36 29 27 26 26 26 27 27 23 20 17 14 14 16 17 18 23 21
92 77 78 79 84 94 62 76 49 45 51 41 39 42 54 53 51 51 60 76 73 70 69 84 88 79 80 70 68 63 40 30 27 26 26 26 25 25 23 21 18 16 15 14 16 18 21 23 28
71 68 78 80 90 92 82 89 66 48 48 46 53 60 58 51 50 54 60 61 77 76 79 79 78 77 72 68 67 52 39 27 26 27 26 25 24 22 21 19 17 15 14 14 15 18 21 24 27
61 75 75 77 79 92 73 86 61 49 41 54 46 52 55 55 57 55 63 79 84 86 80 76 74 71 65 63 59 60 41 27 27 28 27 25 23 22 20 18 17 15 14 14 16 20 23 26 27
72 89 97 98 97 88 64 76 54 45 41 45 47 48 45 56 64 81 90 88 92 92 80 74 72 66 62 65 60 58 37 27 28 29 28 26 24 22 20 18 16 15 15 16 19 22 25 27 28
80 78 91 88 92 86 58 76 64 48 37 33 32 47 48 61 70 79 79 82 89 91 81 74 71 66 59 57 50 42 31 28 29 29 27 26 24 22 20 18 17 16 16 19 23 25 26 27 28
98 97 69 74 62 90 80 71 55 57 58 53 50 42 54 64 74 80 86 85 87 86 80 73 70 64 56 52 44 37 34 32 30 29 27 24 22 21 20 18 16 16 19 23 26 26 26 27 31
88 77 98 97 96 94 79 68 69 51 58 54 49 37 60 66 72 84 87 83 79 80 75 71 69 61 53 47 41 42 41 36 32 28 24 23 22 20 18 17 17 19 24 27 27 26 27 32 35
92 96 98 78 88 91 86 59 57 52 58 56 52 49 56 65 71 82 78 74 72 71 69 67 63 56 50 46 44 40 33 29 25 24 23 22 21 20 18 18 20 24 28 29 28 28 33 37 40
64 72 76 86 84 82 87 56 46 71 64 55 59 61 65 72 83 78 75 72 68 64 61 59 55 51 46 42 36 30 27 25 24 23 23 22 21 19 18 20 25 29 30 29 28 33 40 46 46

GFSSGP_925_rhum_009.txt.gz
RH
36 34 31 28 36 39 42 35 31 28 27 24 23 25 26 26 32 35 61 63 61 63 76 83 74 83 95 95 91 82 88 80 78 82 80 74 75 71 80 82 78 79 78 76 75 78 73 72 73
40 34 29 42 39 42 38 32 30 27 24 23 26 27 27 31 44 48 58 64 63 65 76 87 83 82 94 97 95 85 87 88 77 78 78 74 74 77 70 76 73 72 77 80 75 70 70 69 60
41 35 40 42 48 42 39 31 28 29 26 23 26 30 29 35 49 50 50 63 62 69 77 82 90 85 94 98 97 91 90 84 79 77 78 78 76 76 73 68 66 70 75 71 70 67 73 86 89
42 43 42 43 45 44 37 27 30 30 25 23 26 28 33 38 46 51 54 61 68 65 76 82 93 91 89 90 97 98 93 84 80 79 72 75 79 83 80 68 67 72 73 67 71 77 91 92 93
44 50 51 56 48 42 38 34 31 30 30 25 26 26 34 40 50 47 56 63 62 65 81 83 88 90 87 91 96 97 96 90 82 82 72 71 78 81 76 84 71 72 74 76 86 95 95 94 95
57 52 60 58 47 44 38 33 32 31 29 25 26 29 31 39 53 57 64 63 61 61 85 85 85 82 85 89 89 88 94 91 84 79 80 79 73 69 76 82 77 78 81 90 88 94 95 91 91
64 61 63 59 51 48 40 34 33 30 26 23 26 28 27 31 51 59 65 70 67 64 75 85 89 86 87 86 81 80 84 85 80 76 85 86 73 68 77 84 86 89 86 76 80 91 91 91 92
66 60 72 64 51 48 37 36 30 26 24 23 26 28 26 30 52 58 67 74 72 69 76 84 85 90 93 94 81 76 74 79 69 76 80 78 71 68 66 82 90 80 75 79 88 92 90 87 83
63 78 78 63 60 47 39 38 34 29 28 29 27 26 28 33 56 62 77 82 87 84 80 86 89 89 87 91 84 76 71 78 78 78 78 78 68 59 64 70 73 75 78 84 88 88 84 80 76
75 87 76 62 53 49 42 42 40 37 36 34 31 28 28 44 64 64 68 76 95 96 96 94 100 98 90 92 86 79 73 82 87 82 83 73 59 55 71 74 74 78 82 86 88 84 74 60 53
77 75 67 61 52 50 54 51 42 40 45 38 35 30 30 43 57 64 63 66 76 87 95 98 98 99 98 94 88 85 79 84 86 85 85 73 71 72 73 78 82 84 86 79 83 65 53 50 44
84 77 74 64 56 60 62 56 59 48 44 36 32 34 33 31 37 57 62 63 69 71 89 99 97 98 99 95 90 86 83 84 85 85 82 78 76 79 82 86 83 86 80 77 55 50 42 34 26
84 78 70 64 66 65 63 66 62 64 47 42 44 44 40 35 33 39 55 58 58 63 64 77 94 100 100 97 92 89 83 84 84 84 77 81 80 84 92 76 73 60 56 50 44 34 26 20 18
70 73 70 65 63 64 65 61 63 49 50 52 49 42 37 37 35 34 33 38 47 44 46 58 74 91 92 93 92 85 83 86 85 82 79 82 76 87 86 70 59 50 43 32 22 19 18 18 16
71 81 70 68 64 62 62 72 74 50 47 48 48 45 42 39 37 36 31 29 27 26 29 33 49 70 88 88 91 83 83 85 84 84 87 84 81 87 68 58 47 33 22 20 19 18 17 16 14
76 75 84 62 64 61 57 62 54 46 48 51 49 48 45 41 38 36 31 32 27 27 27 30 34 50 85 89 87 85 88 87 88 84 82 88 88 72 57 48 28 22 23 21 18 16 15 14 14
82 84 86 70 59 58 67 69 52 47 52 52 48 46 47 43 39 38 32 31 28 27 29 34 52 65 88 90 90 93 93 92 86 82 87 84 74 59 46 26 24 24 23 19 16 14 13 15 15
83 94 81 74 59 63 68 70 58 53 52 48 49 49 50 46 42 37 35 33 30 30 37 46 70 87 93 94 99 99 97 90 89 88 80 68 56 41 25 27 27 24 21 16 14 13 14 16 14
84 88 88 76 61 69 65 61 52 48 51 49 48 44 44 48 42 41 38 35 33 40 48 65 90 98 95 100 93 87 86 84 81 73 62 48 30 25 29 30 26 22 19 15 13 13 15 22 16
82 86 82 62 63 65 64 64 51 46 46 44 43 47 48 50 47 43 42 40 40 48 64 100 100 97 95 92 83 83 77 67 60 51 43 29 26 28 30 29 24 20 16 14 14 14 16 25 24
71 77 69 66 65 60 61 55 36 28 28 36 38 38 38 38 40 40 44 47 51 61 74 100 98 94 91 86 81 75 69 55 48 32 28 26 27 28 28 25 22 18 16 15 14 14 14 29 29
83 72 75 79 84 82 60 69 39 38 36 34 36 35 37 40 42 39 46 51 62 64 74 100 95 90 86 83 79 80 61 45 36 29 27 27 26 26 25 23 20 17 15 15 15 16 17 20 32
74 67 73 79 89 93 74 86 54 47 46 41 37 42 40 39 43 42 45 46 54 68 74 99 90 84 84 80 75 67 51 42 31 29 28 26 25 24 22 20 18 17 15 14 15 17 20 22 30
63 79 76 78 86 95 67 76 56 42 38 37 36 35 43 43 47 48 46 56 79 72 76 90 82 78 75 72 67 63 59 36 30 29 27 25 23 22 20 19 18 16 15 14 15 19 22 25 26
72 99 91 96 96 83 61 78 53 39 35 34 33 36 41 43 50 53 64 74 84 90 83 83 78 70 67 64 63 61 59 37 28 28 27 24 23 22 20 19 17 16 15 15 18 21 24 25 26
83 83 88 89 81 73 67 79 58 45 37 35 34 33 34 45 47 59 64 73 80 92 85 80 75 67 62 58 58 54 57 33 28 28 28 26 25 23 21 19 17 16 16 17 20 24 24 25 27
97 95 66 94 86 95 72 62 49 42 42 52 49 46 45 42 52 59 72 75 87 92 84 79 74 68 63 68 58 60 47 31 29 29 27 26 24 22 20 18 17 16 18 21 24 25 24 27 31
84 79 94 97 95 90 68 67 62 42 42 56 56 51 48 47 54 63 75 83 89 90 85 78 72 69 70 68 56 47 34 30 30 28 26 24 23 22 20 18 18 19 22 25 26 25 27 31 35
90 99 100 98 96 86 71 46 42 37 52 60 58 53 56 58 56 63 78 85 91 89 83 77 73 71 66 53 46 37 33 32 31 27 24 24 22 21 19 19 20 23 26 27 26 26 32 40 44
63 72 73 90 86 88 81 61 33 48 69 57 57 58 71 77 66 79 81 80 82 80 76 72 68 65 55 48 44 40 36 32 27 24 23 23 22 21 20 21 24 28 28 28 28 32 42 48 51

GFSSGP_925_rhum_012.txt.gz
RH
44 39 33 25 27 25 26 22 18 21 22 18 16 19 21 20 25 28 55 59 62 62 74 89 80 91 95 94 91 85 86 80 82 76 76 67 77 73 80 81 77 76 78 77 78 79 74 69 65
45 33 28 23 28 29 22 20 20 21 20 17 18 20 21 22 24 33 42 65 62 63 74 75 79 83 94 96 93 89 92 80 83 81 69 74 72 73 70 76 78 77 80 79 80 85 87 83 76
43 32 26 27 28 28 24 21 17 21 19 17 21 22 22 24 35 34 50 61 63 65 72 75 81 83 93 98 95 91 90 83 78 74 73 77 79 74 78 72 73 76 71 66 75 77 87 91 93
35 28 26 31 28 24 24 20 22 22 19 18 18 21 22 30 34 40 56 67 62 64 72 90 84 85 88 93 97 95 89 83 81 80 72 76 79 84 75 70 70 71 72 69 78 90 94 96 96
36 29 30 34 28 22 22 21 22 22 21 19 18 20 21 30 44 47 59 64 59 65 73 92 88 84 89 91 96 96 91 85 81 78 71 76 82 82 78 83 71 71 75 78 89 96 97 97 94
34 29 33 32 26 24 25 21 22 21 19 18 20 18 19 31 42 55 62 63 63 68 75 78 95 92 89 91 93 94 95 90 82 81 78 85 76 70 76 85 75 80 84 85 82 93 95 93 93
34 33 29 27 25 25 26 21 23 20 19 19 17 20 18 22 45 61 60 62 70 69 74 75 86 92 84 89 89 86 87 88 80 75 78 85 76 67 86 88 86 92 86 73 85 91 91 90 86
39 34 32 33 29 29 24 25 21 22 20 16 19 20 19 26 49 59 62 64 67 70 73 74 74 80 93 97 88 83 80 70 67 74 79 77 73 68 66 86 93 88 74 82 90 90 86 84 80
46 42 37 34 34 27 27 29 24 21 22 22 20 20 23 34 51 57 60 66 66 71 74 75 72 77 85 83 91 83 78 75 65 72 71 71 71 73 73 78 71 74 80 86 88 86 82 73 62
46 44 34 28 29 31 27 30 26 29 25 24 24 21 24 32 42 46 49 51 59 64 70 81 77 82 82 83 87 83 79 83 80 80 83 75 73 64 72 78 71 77 83 85 87 79 63 51 48
46 48 32 42 38 34 33 36 31 31 31 26 25 23 24 26 29 37 38 38 49 56 64 77 90 95 91 85 86 81 75 80 81 82 83 72 70 72 73 73 77 84 89 72 64 54 46 43 37
55 44 42 40 43 48 46 39 42 33 27 21 26 25 30 29 26 24 34 38 45 56 63 72 87 100 99 87 87 78 74 79 80 82 83 74 70 77 74 74 85 78 73 62 50 44 37 30 26
58 44 46 44 49 47 42 44 43 38 31 30 31 32 33 30 27 25 27 34 42 52 62 71 85 99 99 96 90 81 76 77 77 84 80 71 73 78 79 68 68 59 49 44 40 34 26 22 22
49 55 52 48 46 43 48 42 39 37 31 31 31 30 30 28 27 25 27 28 35 42 49 66 79 94 100 98 92 82 76 75 81 80 77 78 76 83 73 73 64 47 39 32 26 25 25 22 21
54 61 46 42 41 45 45 50 45 32 29 30 29 27 26 25 27 27 26 26 25 28 35 46 64 82 100 100 94 81 78 81 84 79 81 82 86 81 81 65 50 37 29 26 26 25 26 23 21
57 56 56 40 46 41 43 44 30 35 34 35 31 27 25 24 23 24 25 26 28 27 28 31 46 68 93 96 91 82 81 82 81 81 89 88 78 84 67 49 37 29 29 28 26 24 24 24 23
52 48 56 48 41 44 48 46 36 30 37 36 30 29 28 28 24 23 24 25 28 28 27 33 41 51 68 77 92 90 84 96 92 91 88 84 85 74 55 38 30 30 28 27 23 24 25 25 24
47 60 50 47 41 49 49 46 37 35 35 34 32 31 31 32 31 26 25 25 29 30 30 33 45 53 67 84 96 98 95 92 91 86 88 86 73 57 39 32 30 29 28 24 24 24 27 27 25
55 56 54 47 48 52 47 43 37 33 32 33 32 30 29 29 29 31 31 32 33 33 36 41 53 66 76 96 92 92 84 92 89 88 86 73 59 39 32 32 30 29 26 25 24 26 26 27 26
59 61 56 45 42 49 45 45 36 34 32 29 29 27 27 26 26 27 30 30 32 33 41 49 60 72 79 88 90 92 82 75 74 82 65 56 35 28 32 33 30 28 28 28 28 29 26 27 28
61 62 56 55 47 46 50 48 28 21 21 21 22 23 21 22 24 25 24 27 33 36 43 56 71 75 79 90 82 76 67 66 63 51 41 34 28 31 32 30 29 29 30 31 30 29 26 25 29
64 47 52 60 64 66 45 52 29 24 24 23 22 23 23 24 22 23 24 24 28 37 47 68 82 76 83 84 71 66 67 64 51 49 37 30 30 33 30 29 30 29 30 31 27 28 28 27 26
61 53 54 56 62 64 54 86 35 29 30 27 22 20 19 20 21 24 24 24 27 35 58 81 80 79 83 78 71 71 65 60 45 43 31 31 34 32 29 30 29 29 29 29 29 30 29 29 28
53 59 61 58 66 89 51 50 42 28 24 23 23 20 19 21 25 25 28 27 28 39 66 82 79 80 78 77 73 68 60 48 43 38 34 33 33 32 31 30 30 29 30 31 32 34 34 32 32
60 74 72 80 90 64 30 41 39 26 25 24 20 19 21 22 24 25 29 34 36 53 70 78 78 77 76 72 67 59 53 55 39 36 33 31 31 31 31 29 28 29 31 31 32 34 34 33 32
67 63 63 62 43 41 31 54 33 21 23 23 22 26 31 32 30 24 28 35 41 56 66 74 74 71 72 69 60 55 53 47 36 34 32 30 30 30 30 28 27 27 28 30 32 33 34 34 34
71 90 55 72 56 79 48 38 29 25 28 24 25 35 35 34 37 34 29 39 44 56 64 67 69 69 68 63 57 52 52 41 37 34 32 31 31 30 28 28 28 28 29 30 31 31 31 34 37
65 55 86 90 79 66 38 42 38 22 24 26 36 35 32 32 34 37 33 40 49 57 62 64 65 65 62 58 53 55 44 42 37 34 33 32 29 27 28 28 29 29 30 31 32 32 34 34 36
80 89 94 73 72 70 64 36 19 23 23 21 32 33 33 40 41 43 38 41 54 62 65 65 63 64 64 60 60 54 43 38 33 32 31 29 27 28 27 28 28 29 30 32 31 32 35 39 42
44 54 61 92 78 88 74 56 22 23 28 44 36 30 38 48 48 52 47 53 62 66 67 65 64 66 65 61 62 50 41 34 32 30 28 27 27 27 28 29 30 31 32 32 30 32 38 42 45

GFSSGP_925_rhum_015.txt.gz
RH
45 30 26 23 27 24 23 19 14 16 15 13 15 16 18 19 21 30 44 48 45 58 77 89 83 92 94 94 92 84 84 79 87 82 80 88 84 84 82 77 76 78 77 76 80 83 80 78 74
41 28 24 22 30 27 22 15 18 12 15 15 15 16 17 20 19 32 41 51 45 55 72 78 85 86 95 97 95 93 83 84 85 74 72 73 76 76 75 76 77 82 78 78 80 85 86 87 79
42 27 24 27 28 27 21 17 16 15 15 16 17 16 17 21 26 28 41 48 45 54 63 74 77 82 94 97 95 95 86 79 85 68 78 77 79 73 77 73 76 78 68 76 81 86 91 90 90
30 24 22 30 28 20 18 15 15 17 14 16 17 18 18 22 27 32 43 46 44 53 58 78 77 78 87 93 96 94 88 80 76 76 83 84 80 82 77 75 74 72 70 76 88 95 95 95 95
31 22 30 28 25 18 15 16 16 18 16 16 16 18 18 25 34 39 45 45 44 51 65 86 80 85 87 89 95 96 88 82 82 80 80 89 90 81 84 82 72 74 78 84 92 96 93 94 92
28 23 30 27 22 18 15 15 16 17 15 15 16 17 17 27 31 40 46 44 43 51 60 83 87 83 88 88 90 95 90 85 82 82 83 91 75 72 78 85 76 84 91 86 92 92 93 93 92
34 29 28 24 21 17 15 16 18 17 16 15 13 18 16 20 39 44 45 44 46 51 57 75 89 89 88 85 88 86 95 88 81 83 84 87 73 73 93 90 90 93 84 76 87 90 89 83 79
32 29 30 26 22 20 14 16 17 17 17 14 15 18 17 27 40 43 43 46 48 50 55 58 71 85 90 97 88 84 85 80 71 74 78 74 70 66 76 80 89 88 71 82 88 84 82 78 73
36 41 36 30 23 20 16 19 18 15 17 15 15 15 21 28 39 42 44 48 48 52 55 54 57 64 80 84 91 85 81 69 68 71 68 63 68 70 69 87 74 70 77 82 83 81 72 59 52
42 40 31 19 18 20 19 23 20 22 21 17 18 17 20 25 31 36 39 42 46 51 54 56 56 60 75 81 89 82 81 80 73 74 70 65 60 59 64 78 67 72 79 83 80 74 54 47 46
38 41 24 22 29 28 27 23 21 24 27 19 18 18 18 21 24 29 31 32 39 44 51 57 60 60 69 70 83 71 67 72 69 69 71 60 58 62 70 74 73 80 82 69 61 52 46 42 34
41 31 29 27 28 36 35 26 25 25 24 18 17 17 20 22 22 21 25 27 29 40 46 56 64 71 71 74 76 72 61 64 67 68 69 63 61 66 63 62 69 75 67 60 53 47 38 29 23
44 37 26 29 34 35 34 36 33 32 26 22 21 22 25 24 22 22 21 24 28 36 44 52 63 85 79 74 76 67 60 64 65 67 70 63 60 66 62 66 63 58 51 46 42 35 26 23 22
36 39 37 35 36 35 41 36 32 29 25 25 25 25 24 25 23 22 22 22 25 32 40 48 59 70 86 83 79 73 63 62 63 69 70 60 62 65 68 63 57 49 42 34 27 25 26 24 22
46 53 41 37 35 38 35 43 39 29 25 24 23 22 22 22 21 22 22 22 22 24 32 40 52 63 75 89 87 76 67 61 67 76 69 64 66 74 67 60 56 41 32 27 28 25 25 24 22
50 44 49 31 34 30 35 43 24 23 25 27 24 21 20 19 19 19 20 22 22 22 23 30 42 56 69 92 90 82 69 64 73 77 71 73 75 69 62 54 42 34 30 30 27 25 24 25 24
43 46 40 35 29 34 40 41 26 26 25 26 26 23 23 22 19 18 19 20 22 23 24 25 29 43 58 88 89 82 72 72 77 76 78 82 72 75 71 48 38 32 30 29 23 26 27 27 25
42 48 40 36 28 37 40 37 28 25 27 29 27 24 24 22 22 21 19 18 20 22 24 24 29 34 45 67 79 83 80 81 85 87 85 77 77 77 54 39 32 32 30 27 26 27 28 29 26
42 42 39 32 29 39 38 35 28 24 24 26 25 24 24 22 20 22 24 23 20 22 24 27 27 37 41 54 83 87 87 89 86 80 78 78 76 51 40 35 32 30 29 28 27 28 29 30 27
47 49 46 36 31 37 38 37 30 26 24 22 23 23 22 21 19 20 22 26 26 25 28 28 32 38 47 63 87 91 87 83 76 70 77 76 64 45 36 34 32 32 31 32 33 32 29 30 29
49 51 47 44 37 38 42 41 27 21 21 19 19 20 20 20 19 18 19 21 27 27 28 29 34 44 54 78 88 90 84 73 66 62 69 62 51 36 35 35 34 34 35 36 34 33 30 30 30
55 37 40 46 51 54 39 46 24 16 16 17 18 17 18 17 17 17 17 18 22 27 30 31 38 48 57 73 81 83 74 69 64 60 58 42 33 33 35 35 35 35 35 35 31 31 31 29 29
51 46 48 49 55 56 44 57 33 16 16 15 15 18 18 17 16 16 17 19 20 22 31 38 44 56 62 74 76 75 67 69 60 51 41 32 33 34 33 34 34 34 34 32 34 34 31 30 28
47 51 53 53 64 83 45 40 34 20 14 15 14 16 17 16 16 18 18 18 21 24 32 44 53 60 63 74 72 66 66 58 52 44 38 35 35 34 34 34 34 34 35 36 35 34 35 33 32
54 67 69 80 90 64 24 31 30 18 16 16 17 16 16 16 19 20 20 22 26 27 32 52 62 62 68 73 68 66 66 55 53 45 42 36 34 33 34 33 33 34 35 34 35 36 35 34 33
61 60 59 52 38 34 26 34 26 18 14 16 16 17 17 19 25 30 29 21 26 33 38 54 63 62 70 71 70 69 60 56 51 44 38 34 33 33 34 31 30 32 32 33 34 35 35 34 36
60 81 50 67 50 61 39 28 20 17 17 17 18 19 18 23 28 29 31 28 23 31 38 55 61 65 69 73 69 61 55 50 45 39 34 32 32 32 31 30 30 30 30 30 31 31 30 33 34
54 46 81 86 80 54 33 28 28 20 19 17 18 19 19 25 26 29 33 32 28 34 43 54 59 63 69 68 57 54 52 45 39 35 32 31 32 30 31 30 30 30 30 30 31 32 31 33 34
67 74 85 59 70 74 63 39 20 22 21 22 19 18 26 26 32 34 37 35 31 39 47 52 57 62 68 58 53 51 48 45 37 34 32 32 29 30 29 30 30 29 30 30 29 29 32 34 37
42 56 55 89 67 77 75 62 25 22 21 21 22 29 23 22 32 36 41 39 37 46 52 54 58 62 60 54 50 48 47 38 36 33 30 28 29 28 28 28 28 29 30 29 28 28 31 35 38

GFSSGP_925_rhum_018.txt.gz
RH
35 36 26 27 46 39 39 29 15 16 16 13 16 17 20 20 29 59 44 46 65 86 94 94 89 91 93 94 92 87 78 88 86 89 94 94 92 90 80 77 77 76 76 80 84 86 86 86 87
35 39 25 38 46 47 33 23 21 16 15 17 16 16 18 21 36 44 48 45 64 85 90 91 82 85 94 95 90 83 82 87 81 74 79 78 77 78 77 78 82 76 78 79 84 87 84 80 64
38 37 38 42 43 42 35 20 18 16 16 15 16 15 17 28 30 40 45 44 59 76 82 88 83 84 94 92 93 86 84 88 80 78 80 81 77 76 76 79 85 73 78 86 90 92 89 79 66
35 32 33 38 37 29 26 20 16 17 15 14 17 20 19 25 29 40 45 44 53 67 75 75 82 85 90 90 95 95 80 85 80 86 86 80 81 79 79 82 74 74 77 91 95 96 96 80 80
32 38 43 40 34 26 20 16 17 18 18 16 17 21 27 31 36 41 44 42 50 63 75 71 76 80 86 85 93 93 83 80 82 82 92 94 89 80 77 80 73 76 82 92 95 90 91 85 91
42 35 44 43 34 24 19 16 17 19 18 16 16 18 27 32 36 42 44 42 49 69 79 76 77 82 83 82 86 87 86 83 85 84 87 82 71 75 91 82 76 84 82 72 84 85 88 90 83
47 44 43 35 31 24 18 15 18 19 19 18 14 18 22 40 40 43 43 41 46 67 82 82 80 81 78 80 82 80 84 81 83 83 83 76 68 88 97 89 88 92 73 77 87 84 80 78 74
40 43 46 35 32 28 19 15 18 19 21 14 15 19 28 43 42 43 42 43 45 54 77 86 86 86 85 87 81 75 78 74 74 78 76 74 68 82 88 84 88 85 68 78 81 78 74 65 52
33 54 52 41 33 28 18 19 17 16 19 18 16 17 28 36 39 41 42 46 46 52 60 76 82 82 80 91 86 76 68 73 69 72 72 68 67 70 75 92 80 66 69 76 81 76 61 50 51
48 62 52 32 26 25 26 20 20 21 23 21 19 17 23 27 35 44 45 47 48 50 54 58 77 84 78 89 84 81 74 61 62 64 62 54 68 70 80 77 65 65 75 80 69 56 47 46 42
46 54 35 27 22 26 34 33 22 24 29 24 21 20 23 23 28 34 38 42 44 49 52 54 55 63 70 84 78 88 83 76 65 68 64 67 62 60 73 60 61 77 79 66 58 48 45 37 26
46 36 34 33 28 32 37 33 33 29 26 23 23 22 20 26 25 29 29 29 40 45 50 54 56 58 69 78 72 78 77 76 72 71 71 61 58 56 65 68 77 75 69 61 52 45 33 24 23
41 37 30 28 31 32 34 40 40 37 30 25 25 24 27 25 26 23 22 24 26 40 46 53 59 62 69 67 71 70 67 69 68 68 69 64 62 66 63 70 70 63 52 47 40 32 26 24 22
36 39 38 36 33 35 39 38 38 34 29 30 29 29 28 28 29 26 24 22 22 29 40 51 59 66 71 75 70 72 65 63 66 68 68 67 61 65 67 63 59 51 45 37 28 25 25 25 22
44 57 48 43 40 40 37 46 45 34 31 30 28 28 27 27 25 27 25 23 22 23 35 44 56 67 72 76 76 72 66 64 64 63 66 65 62 66 67 63 52 44 34 28 27 25 24 23 23
55 55 68 35 37 36 40 54 34 28 32 34 30 27 25 25 25 22 22 23 22 22 26 39 50 63 78 82 81 74 71 66 65 65 70 63 64 66 67 64 44 38 34 28 25 21 24 25 24
53 62 55 43 35 34 39 47 35 28 28 31 32 29 27 25 23 19 18 20 20 22 22 31 44 57 67 79 82 78 77 68 64 66 72 67 71 71 68 50 41 36 28 26 22 24 23 23 22
54 56 47 44 36 36 44 45 35 30 29 32 33 32 31 29 26 21 19 18 19 20 22 23 32 51 60 75 82 84 78 69 66 72 75 77 74 68 59 45 37 33 28 26 26 28 28 25 21
46 50 52 39 30 37 39 37 33 29 29 28 29 29 29 28 24 21 21 21 21 19 19 24 26 29 49 83 87 91 83 76 77 82 82 80 73 72 50 39 34 29 27 27 28 29 29 28 20
49 56 56 42 34 37 43 44 37 33 30 27 26 25 25 26 25 24 21 22 23 24 21 23 26 29 33 66 81 90 88 86 84 87 84 78 74 53 45 38 31 30 29 30 30 30 29 30 23
55 57 54 50 42 40 43 47 38 28 29 27 26 24 23 24 24 23 24 21 24 26 26 26 26 31 35 40 73 90 92 87 83 80 77 70 53 45 40 34 31 30 32 33 32 29 29 30 29
62 42 44 46 56 68 44 75 39 28 21 25 24 26 23 22 23 23 22 21 22 28 26 28 29 29 36 54 87 89 85 79 73 72 67 54 45 39 36 33 32 33 34 33 32 30 28 29 29
51 49 50 52 62 73 58 74 47 28 27 19 19 22 24 24 23 23 24 20 17 18 28 27 29 33 45 73 88 88 83 78 70 66 68 45 38 36 35 34 34 34 35 30 30 31 28 26 28
47 49 53 56 66 96 69 55 40 31 24 19 16 18 17 18 20 22 21 21 22 19 18 33 31 36 53 76 89 86 79 73 62 62 51 38 35 34 34 34 34 34 34 33 31 29 29 28 29
53 65 93 96 96 89 38 47 36 23 21 19 20 18 18 19 22 25 36 40 30 23 23 22 39 44 55 74 84 81 75 69 62 57 47 38 35 34 35 34 34 34 34 33 32 32 31 32 31
64 66 89 77 83 68 40 60 38 20 18 17 17 19 19 21 23 30 33 40 37 31 26 36 46 56 61 75 78 74 71 61 63 58 46 38 37 35 36 35 33 34 32 31 32 32 32 32 32
67 83 55 78 62 86 58 34 26 22 21 20 20 19 23 22 28 28 32 38 38 36 34 35 55 62 64 75 71 69 64 61 60 52 42 38 36 35 34 32 32 32 31 30 31 32 31 31 33
57 49 85 88 95 81 50 41 40 29 24 23 27 22 23 24 30 32 38 41 39 37 33 48 59 64 70 75 71 64 62 60 55 46 39 37 35 35 31 30 30 30 30 29 29 32 31 31 32
68 74 72 72 83 94 80 52 27 32 30 28 26 27 32 35 35 41 42 43 43 39 34 44 57 64 73 69 62 59 58 54 43 39 37 34 33 32 30 30 30 30 30 30 30 30 30 32 34
54 64 62 86 79 80 86 68 32 32 28 30 27 24 26 30 31 38 42 46 47 43 41 51 56 74 62 60 57 52 50 44 39 36 34 31 31 30 30 30 29 29 29 28 28 28 29 32 34

GFSSGP_925_rhum_021.txt.gz
RH
29 31 40 36 49 54 50 41 29 19 18 20 18 19 20 21 28 53 51 51 68 86 93 91 91 91 91 80 67 67 72 79 88 92 97 97 92 83 80 78 75 76 81 84 89 90 91 92 86
29 29 35 44 56 58 54 34 31 18 20 17 17 16 18 42 46 56 67 67 72 83 92 87 88 84 84 73 69 69 94 86 88 93 93 88 86 81 78 80 76 79 81 85 86 86 85 70 68
31 43 45 52 58 57 51 28 24 20 18 17 18 17 18 42 49 51 53 76 78 85 89 85 86 80 84 89 78 83 90 83 77 81 81 80 78 79 82 88 81 84 88 92 94 92 81 70 70
46 42 45 46 51 42 35 28 20 18 17 16 18 21 28 37 41 46 55 78 76 83 86 84 84 82 82 88 81 86 89 82 83 84 83 79 79 79 83 83 74 74 89 96 96 93 76 73 77
49 53 56 53 45 35 30 26 20 20 19 18 18 22 37 44 43 44 56 72 74 87 79 79 82 83 81 86 85 76 88 84 89 92 87 87 84 83 86 78 74 73 82 87 94 89 83 85 84
51 51 61 62 51 34 29 24 20 20 19 18 18 17 35 43 46 44 47 64 72 81 76 74 78 81 82 82 84 72 81 84 89 92 92 86 82 88 94 81 82 87 70 80 81 84 88 83 75
52 58 59 46 43 36 29 22 23 24 21 19 17 18 44 47 45 44 43 54 67 77 75 82 84 81 82 80 79 64 68 83 84 80 79 72 69 85 97 82 83 78 60 78 84 80 77 72 65
52 59 55 52 45 41 27 20 18 22 22 17 16 23 60 49 45 44 42 64 73 77 76 78 83 83 85 84 80 67 67 77 81 78 74 70 86 90 90 86 84 74 60 76 76 73 67 52 48
38 67 72 57 48 38 27 30 19 18 20 19 18 21 40 43 44 46 45 58 80 81 74 75 81 86 87 84 86 76 68 68 75 74 73 71 71 88 88 82 80 65 66 75 78 69 50 51 50
54 74 64 44 39 35 30 36 34 22 22 21 20 30 37 40 44 48 52 51 66 86 82 75 76 84 86 84 87 82 73 68 70 71 70 68 70 74 74 86 71 62 75 78 67 50 47 46 38
51 68 50 46 35 31 36 38 34 32 29 25 23 24 35 38 42 50 51 49 49 60 79 82 79 80 81 80 82 80 72 62 63 61 63 59 73 82 76 74 64 71 76 62 53 47 43 30 23
58 47 44 40 37 35 38 38 44 36 31 32 27 24 24 28 42 45 50 49 50 50 57 72 79 79 81 77 78 73 70 60 56 58 56 66 69 71 74 63 69 77 74 60 50 39 27 23 23
48 44 40 38 38 36 33 41 43 43 37 35 33 32 30 28 29 29 31 32 44 52 52 55 69 78 78 72 68 75 75 69 62 71 72 69 62 59 59 72 80 75 66 52 46 36 28 24 22
41 43 44 43 44 43 42 42 39 38 34 35 32 32 34 32 31 27 27 26 28 46 51 54 59 62 69 66 68 71 77 73 72 72 74 65 60 61 68 78 72 56 50 45 38 28 25 24 21
48 58 56 53 49 48 40 52 51 41 40 41 40 36 32 33 28 29 26 27 26 32 48 52 56 62 67 64 64 65 71 72 72 72 70 69 62 65 68 66 57 53 48 40 30 25 23 21 22
57 58 79 54 47 47 46 60 45 39 41 42 38 36 35 31 30 26 23 23 24 24 38 51 56 60 67 71 67 67 69 70 65 66 65 68 62 67 68 64 55 48 38 34 26 20 21 21 19
61 78 73 61 39 43 50 54 42 36 37 40 40 38 35 31 28 24 22 22 21 22 23 49 57 58 64 68 74 70 71 70 66 62 62 66 62 68 65 66 56 45 38 27 22 21 22 21 19
70 73 56 54 40 38 46 52 44 38 36 39 38 42 41 36 32 25 22 20 20 20 21 24 58 56 62 66 71 75 74 73 70 62 63 66 64 64 69 64 52 42 31 24 25 27 28 22 20
61 56 62 53 40 42 44 47 41 34 37 34 32 37 33 34 32 26 23 22 20 18 20 22 43 66 71 82 88 81 74 78 76 64 65 68 67 64 68 57 43 37 28 26 28 29 30 24 20
60 61 65 53 40 43 48 47 40 37 35 33 32 34 36 34 31 29 23 22 22 23 20 20 24 60 75 75 84 83 83 86 72 67 66 73 69 70 64 54 43 32 27 28 30 31 31 29 21
58 63 63 60 50 47 51 55 44 38 35 32 31 28 30 30 31 30 29 21 20 21 22 23 25 41 72 76 89 84 95 94 87 80 74 76 74 69 63 50 41 30 29 32 32 31 31 30 26
67 51 52 57 63 75 55 86 62 39 32 28 36 33 30 28 26 25 26 26 20 19 20 24 25 28 52 76 89 85 92 92 85 83 80 82 77 62 47 41 35 30 32 35 34 31 31 30 28
60 52 56 59 69 73 69 78 64 44 36 28 23 28 32 33 30 28 28 24 19 19 17 18 27 27 36 67 76 82 92 91 84 82 82 77 58 43 40 37 32 32 34 34 34 32 30 28 27
48 56 57 63 76 96 75 65 56 38 30 21 18 17 18 23 24 24 23 26 27 25 24 20 21 30 32 50 72 84 90 87 80 76 67 57 42 38 37 34 32 34 35 34 34 32 30 27 26
59 69 95 91 94 89 58 71 52 29 25 22 22 21 20 22 21 27 35 38 35 34 33 31 28 29 43 65 74 87 84 82 79 76 65 49 42 38 35 34 34 35 34 34 32 32 30 29 28
73 66 90 91 96 81 51 68 47 29 24 23 21 21 21 21 23 34 37 42 40 37 34 36 36 36 51 88 86 84 85 80 79 74 66 55 45 41 38 35 35 34 34 34 33 32 32 30 28
70 85 60 81 72 93 70 50 33 26 25 24 24 26 27 25 25 39 40 42 40 35 31 38 40 44 49 90 88 86 84 80 77 72 65 53 42 40 37 34 34 35 34 32 32 32 32 30 30
61 58 86 92 100 95 72 57 46 33 30 34 32 31 40 36 29 40 45 44 41 39 36 38 36 52 57 74 79 82 81 80 75 68 54 45 44 40 36 36 34 34 32 32 31 31 30 30 31
72 83 73 76 91 98 99 71 37 36 35 37 34 31 34 39 38 46 46 47 42 37 36 43 43 59 70 77 76 78 75 72 68 62 50 49 40 38 36 38 44 34 31 30 31 31 30 31 32
62 70 69 86 78 91 94 69 33 33 35 35 33 34 32 38 42 43 46 50 48 44 39 45 51 75 68 73 72 72 67 64 59 52 46 42 38 38 38 36 31 30 30 30 29 29 29 30 33

GFSSGP_925_rhum_024.txt.gz
RH
33 28 31 36 44 56 55 48 35 30 20 20 19 19 20 28 28 42 59 75 75 87 89 91 93 95 97 81 64 63 76 90 92 97 96 94 91 88 81 76 78 82 84 87 92 94 95 93 86
35 30 36 50 57 61 57 40 34 30 21 20 17 19 20 48 49 77 79 80 67 82 88 92 94 94 86 73 67 64 80 89 91 96 96 94 86 81 76 76 78 82 84 88 90 92 87 80 74
37 43 47 53 62 63 54 35 24 21 21 17 18 18 28 42 52 69 61 83 78 87 85 90 89 83 79 80 79 95 91 95 95 96 93 90 84 81 83 78 83 86 89 91 91 86 68 62 60
47 46 52 56 63 50 42 30 28 26 19 17 19 22 32 41 50 50 66 76 77 89 82 86 83 78 74 76 83 93 84 84 87 84 83 83 82 84 90 85 85 89 96 95 92 74 64 66 73
50 57 61 60 55 44 36 30 28 27 22 18 20 22 42 47 44 57 74 74 78 87 79 87 86 82 77 77 85 90 86 86 88 86 82 81 80 85 93 81 79 94 97 97 96 81 80 80 77
58 59 72 67 55 39 35 28 23 23 22 19 20 23 43 50 54 81 81 85 74 79 79 82 85 83 78 77 77 87 83 90 91 90 88 85 85 88 96 78 81 91 95 96 96 95 88 79 71
59 62 68 58 54 46 37 27 25 26 24 21 18 25 47 50 51 70 82 86 78 75 76 84 83 84 78 82 70 80 85 91 90 89 92 89 88 86 96 90 96 89 93 92 91 88 78 70 58
56 62 62 52 46 46 32 22 20 25 26 18 20 51 62 52 45 54 77 84 85 86 76 79 82 85 83 82 78 71 83 87 80 82 74 72 72 88 89 87 91 75 85 84 79 76 63 50 40
48 74 78 59 53 43 31 33 29 21 21 20 20 38 48 45 48 56 86 94 95 94 86 84 86 86 84 81 82 70 76 84 76 75 75 73 85 92 88 85 83 68 72 78 77 67 53 52 43
60 80 69 51 43 41 33 35 34 29 25 22 25 40 48 51 52 58 84 97 99 98 96 88 84 85 85 84 84 76 74 79 80 76 76 73 91 91 88 82 77 60 72 79 74 51 48 45 39
58 72 54 50 45 36 40 40 38 34 31 27 27 47 46 48 57 58 65 87 91 86 88 88 84 82 85 86 86 84 73 69 74 74 73 74 74 84 82 87 75 64 78 69 52 48 43 30 24
60 52 46 43 40 41 38 37 43 39 36 32 35 29 27 37 37 58 58 66 82 88 82 81 81 82 85 84 83 78 74 66 61 68 71 72 75 82 82 84 69 69 73 62 56 45 32 24 23
54 49 44 43 45 42 39 43 43 46 40 38 36 34 32 32 33 37 53 54 57 74 84 79 80 80 84 85 82 79 72 66 54 52 61 64 68 73 79 74 65 80 74 60 49 36 28 25 22
46 46 44 45 46 46 47 47 43 40 38 39 38 37 39 35 32 30 31 38 46 57 68 78 80 78 82 80 80 80 72 67 55 51 60 62 70 66 74 70 81 80 72 54 42 35 27 24 21
50 55 54 51 49 50 43 50 56 41 40 43 44 44 39 38 30 31 27 27 29 29 52 61 72 79 81 81 77 79 73 72 67 61 72 72 67 63 61 71 82 62 47 45 40 32 24 21 21
59 62 72 52 46 47 49 57 44 43 47 48 46 45 44 37 34 26 24 24 23 26 33 63 66 78 81 84 79 76 71 70 73 72 72 74 66 61 65 74 76 52 47 44 37 25 22 20 18
67 78 77 66 49 47 57 60 45 38 43 46 45 43 41 39 37 31 25 23 22 23 24 35 70 75 66 74 77 75 68 68 73 74 74 74 67 64 67 69 57 51 48 42 29 21 21 21 19
74 81 66 62 44 44 48 62 50 44 43 44 42 41 44 43 37 31 28 25 22 21 23 25 40 75 72 70 68 76 70 68 72 73 75 69 69 64 68 65 58 51 46 37 23 23 25 23 21
60 60 64 58 46 48 49 49 45 40 39 39 34 36 37 35 32 31 28 26 26 23 22 25 27 54 77 73 79 87 76 70 74 76 69 62 65 65 68 65 57 53 49 36 25 29 28 23 22
65 69 72 58 47 45 52 52 42 39 37 36 33 30 32 33 34 34 28 25 24 22 22 22 27 32 68 75 71 79 81 73 72 78 72 62 63 66 66 65 63 54 40 26 28 31 31 27 21
61 65 64 64 56 48 56 41 40 38 35 32 30 31 30 30 30 31 31 25 23 23 22 22 26 31 58 81 77 62 84 88 89 88 76 64 65 68 66 67 64 51 38 28 30 33 33 31 24
69 53 55 58 63 79 57 79 64 47 38 32 33 40 38 35 35 30 31 28 23 21 20 20 20 27 62 77 87 75 73 90 88 83 80 70 69 70 68 65 58 50 35 29 32 34 34 33 29
63 52 56 58 71 71 70 83 65 52 43 35 31 27 36 39 37 36 34 27 22 21 21 21 21 21 38 79 86 82 76 76 79 88 83 79 74 70 66 59 55 41 31 31 34 34 35 33 31
54 56 67 75 76 92 69 73 60 41 32 25 21 20 21 24 30 32 27 25 24 27 27 26 24 23 35 64 86 81 82 83 86 90 86 80 73 64 61 55 50 39 31 34 34 34 33 32 30
58 67 85 83 97 82 63 77 68 42 34 27 26 24 26 24 24 26 33 43 36 36 34 32 32 32 32 49 87 86 84 76 80 84 85 78 70 58 47 51 44 36 34 34 34 33 32 31 30
66 65 80 70 96 86 61 77 48 36 33 25 26 26 29 30 27 28 38 44 40 35 30 26 23 28 32 47 77 88 86 83 81 83 84 78 67 55 50 43 42 38 37 34 34 33 32 32 30
72 84 62 81 76 94 76 58 37 30 28 34 34 34 42 44 42 35 32 46 43 38 33 30 30 32 33 38 75 91 93 84 84 82 81 72 63 56 50 43 39 41 34 36 33 33 33 32 30
60 61 86 92 98 91 76 67 48 35 32 37 35 34 35 39 41 42 50 50 45 42 36 33 36 39 34 45 78 92 92 86 85 84 80 70 62 56 48 42 44 42 38 34 34 34 33 32 31
76 85 78 78 88 98 95 73 44 34 34 38 41 39 46 51 52 43 46 44 46 42 33 28 31 44 43 57 97 94 90 88 88 85 78 67 57 51 45 46 47 41 51 44 34 33 32 31 32
65 73 74 90 77 94 92 81 41 41 35 40 37 40 51 58 57 52 44 48 49 52 47 47 47 46 52 71 92 91 90 90 87 80 72 61 51 48 49 47 45 49 41 52 51 40 31 31 32

GFSSGP_925_rhum_027.txt.gz
RH
42 35 31 36 47 60 58 48 39 33 25 20 21 21 22 26 30 40 68 80 82 85 85 88 95 97 98 98 97 92 88 89 95 97 96 94 91 88 82 79 81 83 83 88 94 96 95 93 88
42 34 36 53 57 62 54 44 35 30 25 20 20 20 30 46 53 90 90 86 77 82 88 89 93 98 99 97 94 96 96 90 92 97 96 94 90 82 77 78 83 86 87 95 96 97 95 90 77
40 44 46 54 66 62 49 40 27 25 25 22 20 22 27 36 54 80 66 77 88 90 88 88 89 97 97 88 90 91 93 93 92 96 97 91 86 79 78 80 84 88 89 90 91 75 62 56 66
47 50 53 60 64 54 43 33 31 31 24 20 21 28 34 45 53 60 76 83 89 92 89 87 89 94 86 76 93 94 96 95 93 94 96 90 86 84 80 84 87 88 96 94 82 64 58 60 66
47 60 67 67 56 51 41 36 30 31 28 23 21 25 36 50 52 56 79 89 87 93 87 89 84 87 84 75 90 90 91 94 94 92 91 88 86 90 87 72 72 85 96 96 89 81 81 81 79
65 62 75 70 53 44 38 32 26 26 26 25 22 35 44 53 65 83 85 89 87 88 86 89 79 78 75 73 88 86 85 91 90 86 84 83 85 92 93 77 75 89 94 91 95 91 87 79 73
66 71 74 58 50 46 39 33 30 28 27 26 20 36 49 56 74 86 85 85 87 86 82 88 80 78 74 72 83 86 85 91 90 84 84 83 86 91 96 82 82 92 92 89 86 87 81 73 58
62 59 63 60 53 42 32 29 22 25 26 22 28 57 60 56 76 88 90 90 90 86 78 80 81 79 78 79 73 85 86 88 86 84 86 87 86 87 90 78 89 77 86 88 85 82 69 51 39
54 75 81 54 50 41 33 34 29 26 26 22 21 49 46 50 71 94 97 99 98 95 81 85 85 82 78 79 74 74 84 86 86 84 81 81 82 89 90 83 89 70 84 82 81 74 55 51 40
63 84 72 53 48 42 38 40 41 34 34 24 27 44 58 56 77 97 99 97 99 99 95 94 87 86 83 80 82 69 82 86 81 80 79 74 80 88 91 87 89 74 76 82 77 56 50 47 43
64 74 57 52 46 41 42 43 38 39 39 29 30 40 48 64 67 87 94 97 98 99 100 100 92 86 86 83 81 72 71 83 82 77 76 74 91 96 93 91 90 77 84 85 71 51 47 39 27
62 57 51 48 42 42 41 38 42 41 40 35 38 37 32 40 62 68 84 96 99 98 92 94 85 88 86 85 83 76 69 74 80 80 77 76 87 96 94 88 86 70 81 76 54 48 38 27 23
59 53 48 45 46 46 41 45 46 47 42 39 37 37 38 36 35 38 59 76 97 100 99 89 88 87 86 88 84 82 75 67 63 70 78 78 74 78 85 84 87 70 81 66 59 47 32 26 23
52 52 48 45 45 46 48 50 47 42 42 43 40 40 40 38 36 32 38 58 70 89 92 91 88 85 85 87 85 84 79 70 60 57 69 76 75 73 82 84 82 72 80 70 54 39 33 27 23
52 57 54 54 50 51 46 53 61 44 42 44 43 45 43 40 33 33 29 33 47 60 71 88 90 89 88 85 85 84 81 75 64 54 52 63 69 67 72 80 76 80 80 67 42 36 30 24 21
64 63 73 52 50 48 47 58 46 45 47 49 48 46 48 46 41 32 28 27 27 30 38 58 77 80 86 88 90 87 82 78 72 66 49 54 61 67 70 76 75 85 74 52 39 36 26 21 20
69 84 77 64 49 50 58 66 46 42 43 47 46 45 46 43 40 36 30 28 25 26 26 29 59 80 89 94 89 88 83 81 77 69 59 59 70 72 69 69 73 85 52 42 41 34 23 21 19
80 75 71 66 46 52 54 62 50 46 49 51 51 48 45 41 38 32 32 31 27 27 26 27 36 62 78 86 91 93 90 84 82 74 70 70 74 76 66 66 75 74 49 43 38 27 22 23 21
63 66 67 58 49 50 54 54 47 41 42 45 45 41 38 35 30 29 25 24 29 28 28 28 31 46 77 96 100 100 94 90 84 77 72 74 74 76 67 69 74 59 49 47 40 25 26 24 24
69 73 75 62 52 49 56 56 45 40 37 35 35 33 32 34 35 34 28 25 26 26 25 26 29 32 66 88 86 88 82 90 77 80 74 75 76 74 68 68 64 57 47 44 37 26 29 26 23
69 71 67 66 58 51 60 53 43 36 37 35 34 33 31 33 32 30 35 27 23 25 24 23 23 26 49 69 93 92 84 88 91 89 85 82 77 70 67 67 64 63 58 52 40 28 32 30 24
74 54 57 60 64 78 60 81 64 44 44 40 37 36 40 38 37 36 34 32 27 23 21 22 24 24 30 62 94 90 76 86 82 75 81 82 80 74 66 66 67 63 58 52 43 30 33 34 28
64 53 57 61 72 68 68 81 65 44 39 31 29 27 28 34 40 41 40 33 26 24 23 22 21 23 26 49 83 80 81 73 69 77 81 86 84 78 70 69 68 63 55 50 39 31 34 35 34
55 58 67 78 75 90 65 72 58 39 32 32 32 32 29 30 29 31 28 29 26 22 22 22 21 20 22 29 77 87 90 81 82 89 91 89 86 78 73 71 68 62 54 46 38 32 34 35 35
57 66 80 71 90 76 66 78 58 44 39 34 35 32 37 42 39 37 36 33 33 39 32 31 30 28 28 29 61 86 80 84 78 78 90 94 88 80 74 69 67 58 50 51 35 34 34 34 34
64 63 77 54 86 83 67 79 48 38 33 30 32 34 40 43 46 45 43 41 39 35 43 38 29 27 29 33 35 54 73 86 86 79 82 86 84 78 76 69 64 55 49 46 42 39 33 33 32
74 84 62 82 80 93 74 58 38 33 36 36 37 38 40 42 47 49 47 44 43 45 44 42 39 35 28 32 44 53 65 85 89 84 82 82 81 80 76 69 59 50 47 44 40 36 33 32 32
61 64 84 92 70 85 69 73 53 36 35 39 38 45 44 43 54 54 54 45 39 36 36 44 44 40 37 36 41 53 60 80 88 89 89 87 82 79 74 63 58 49 50 45 42 38 37 35 34
76 87 82 79 84 89 95 63 52 37 36 41 46 40 43 56 60 56 61 51 50 46 42 50 51 53 47 43 49 66 79 90 95 92 89 84 78 76 74 63 56 50 49 43 41 38 38 48 44
66 75 77 85 77 96 94 80 47 45 40 42 40 47 53 64 62 59 69 62 62 65 69 64 67 69 62 55 60 90 97 98 99 96 88 81 77 74 70 63 57 52 46 45 48 64 41 40 41

GFSSGP_925_rhum_030.txt.gz
RH
49 38 34 35 49 62 58 46 41 37 28 22 22 23 24 25 36 44 77 84 83 82 81 82 87 83 86 92 84 84 86 88 92 97 96 90 92 89 82 81 82 83 84 84 98 98 95 91 88
46 35 36 56 56 58 52 45 39 33 25 27 20 22 31 41 59 94 92 92 80 80 83 84 92 93 96 96 88 81 84 86 92 96 97 94 91 82 79 83 84 83 83 82 90 98 96 93 90
42 41 46 55 68 62 47 40 37 30 32 23 20 23 27 37 59 79 70 82 86 85 85 88 94 96 98 96 87 85 86 86 90 95 97 93 86 78 81 84 88 90 93 92 96 81 73 74 92
44 48 54 61 66 54 40 32 32 35 27 23 23 34 38 48 53 60 69 81 88 89 89 89 93 95 97 94 85 90 93 89 91 90 96 91 85 80 83 87 92 95 94 92 85 68 66 70 84
46 59 67 67 60 50 45 39 31 32 29 26 23 25 36 53 57 65 76 89 89 91 91 89 90 95 90 81 90 91 84 92 89 95 95 91 88 83 85 79 81 95 96 95 81 80 83 90 91
66 63 73 71 60 44 41 36 28 27 28 27 23 32 40 61 73 96 87 91 88 91 92 89 90 84 70 76 88 88 87 92 97 96 95 92 89 92 83 68 76 92 94 92 95 90 85 81 74
66 74 74 59 51 45 38 34 32 30 28 26 22 31 44 60 83 100 93 88 89 92 91 91 84 67 68 72 89 79 85 89 92 88 88 87 89 95 94 73 76 85 88 86 84 92 80 71 57
69 64 71 63 53 47 33 33 25 25 27 23 27 34 39 57 95 99 99 94 92 91 84 83 76 71 68 69 77 78 80 86 88 86 84 84 85 88 84 81 83 81 85 86 89 79 68 47 40
56 76 80 54 53 41 34 35 34 29 29 27 22 34 46 65 99 100 100 100 100 97 85 86 79 74 69 69 70 74 77 83 84 84 86 86 88 88 90 78 87 70 89 87 79 76 56 47 38
66 82 73 50 44 41 41 39 39 37 41 30 25 55 69 95 100 98 97 97 100 99 98 94 86 79 80 77 72 74 76 81 85 84 87 86 87 91 91 86 88 73 86 83 83 68 56 52 46
66 72 58 54 46 44 45 46 38 39 38 34 33 39 46 79 99 98 95 94 96 98 99 99 100 88 84 84 81 69 69 77 78 82 84 80 76 81 95 94 92 85 83 87 80 55 48 44 34
66 59 54 49 46 45 44 39 43 42 39 33 37 38 35 43 71 90 100 99 98 98 99 99 99 99 86 86 83 77 66 73 75 75 76 79 84 94 97 96 92 88 76 86 77 54 45 33 25
62 56 54 49 48 47 43 46 46 46 43 42 41 38 37 36 36 44 61 88 99 97 98 99 99 99 99 92 86 81 74 68 67 71 74 75 79 94 98 95 91 86 78 85 61 51 40 29 26
59 54 51 47 46 45 49 50 49 45 43 45 45 42 41 40 36 33 31 44 77 89 97 100 100 100 100 94 93 86 80 69 63 65 73 76 76 77 88 90 87 90 74 80 64 56 36 31 26
54 56 55 56 52 51 51 57 64 48 44 46 47 47 43 41 36 35 30 28 34 64 79 82 88 97 100 98 94 88 85 80 73 65 64 73 77 77 75 82 86 84 74 78 63 45 36 31 23
67 62 76 54 57 51 49 57 45 43 50 51 50 51 52 46 41 34 29 30 27 30 60 68 81 93 94 92 85 90 87 84 82 75 64 60 70 75 75 78 83 81 80 82 60 43 35 27 22
72 90 82 64 52 50 60 68 49 46 47 53 52 50 47 47 43 36 32 32 29 28 27 44 68 71 80 96 94 88 89 86 84 80 73 63 58 65 71 69 77 82 83 83 60 41 34 25 20
77 76 73 72 48 58 62 65 49 42 45 54 53 53 53 49 44 34 30 28 26 27 29 28 36 59 66 86 99 100 100 94 90 85 81 76 61 54 63 71 75 80 86 68 44 39 32 22 21
68 71 70 60 50 52 60 59 51 43 44 46 44 41 38 36 35 32 28 25 26 26 30 30 29 29 63 100 100 100 100 100 97 90 84 81 70 56 70 76 75 79 83 64 46 36 28 24 24
71 76 76 66 54 52 59 60 47 41 43 41 38 37 35 35 35 34 29 26 26 26 26 28 30 29 47 86 93 100 100 100 85 84 84 82 80 69 77 79 70 70 78 53 42 38 28 26 26
71 78 71 69 59 54 65 57 48 37 36 34 35 37 38 39 37 35 34 31 28 28 25 27 28 28 38 74 87 100 97 97 100 99 88 87 84 78 77 77 69 70 70 61 54 45 33 28 28
76 55 58 59 64 77 61 74 60 47 43 36 31 33 34 32 35 39 40 36 32 30 29 25 26 28 29 61 95 100 96 97 97 82 71 82 86 85 82 78 74 69 66 60 56 50 37 30 28
68 55 59 63 72 65 65 78 55 40 31 29 31 36 39 38 33 36 37 34 32 30 28 29 24 23 25 27 78 91 98 92 83 86 83 85 88 85 86 83 79 69 65 61 58 50 36 31 32
56 59 67 75 75 83 63 69 47 35 33 35 37 36 45 48 47 45 42 41 39 32 31 33 30 26 22 25 32 82 92 94 85 83 91 96 96 91 88 83 79 72 69 62 61 51 38 33 35
57 67 86 68 80 74 71 73 52 43 42 37 37 37 44 46 49 52 53 51 45 39 35 32 41 39 37 30 28 51 75 92 91 79 87 95 96 95 89 86 82 74 70 67 60 51 38 36 36
65 63 79 54 76 75 70 80 46 41 33 33 33 39 43 41 47 53 56 52 48 45 39 42 41 41 37 39 44 56 63 87 90 89 86 82 84 82 83 84 82 76 72 70 58 47 43 39 39
73 84 62 85 83 88 70 57 33 38 40 37 37 44 46 47 45 54 60 56 51 48 45 42 47 43 40 43 44 44 62 81 70 81 88 83 86 86 82 84 81 76 72 68 55 50 43 47 48
61 64 81 89 68 70 61 69 51 37 35 42 46 51 46 45 57 70 66 62 55 53 53 49 47 50 42 50 54 53 50 63 69 85 90 92 91 90 86 85 82 77 78 62 54 46 48 50 40
74 86 81 77 83 82 78 48 50 43 37 42 48 46 48 52 74 71 68 63 60 60 59 67 70 74 64 49 53 60 60 71 74 88 96 98 96 93 88 86 82 78 70 58 50 46 41 41 43
66 75 74 82 77 96 94 73 44 45 47 44 40 48 55 68 67 71 74 71 72 70 65 63 63 60 66 58 50 58 84 92 95 100 100 100 96 90 86 84 79 72 62 53 48 44 47 49 56

GFSSGP_925_rhum_033.txt.gz
RH
45 39 32 34 39 46 48 39 39 36 29 22 23 24 25 25 37 37 80 90 80 81 84 78 80 80 80 79 81 85 87 86 81 86 84 95 94 88 83 83 85 86 93 98 99 98 93 89 80
47 35 35 47 45 44 39 40 38 34 26 28 24 26 29 37 56 84 89 88 80 84 89 82 82 82 80 81 78 76 76 74 79 92 94 96 91 82 82 83 82 83 85 91 94 97 96 82 87
42 36 45 48 52 46 37 34 33 29 30 24 22 23 26 38 57 75 76 85 90 83 82 84 83 84 88 83 80 77 81 78 80 94 96 95 86 80 85 87 88 83 78 82 96 90 90 90 95
41 43 46 50 54 49 32 32 33 31 26 23 23 26 34 53 56 66 74 89 96 88 87 90 86 86 94 86 82 79 76 85 76 84 96 91 83 82 86 90 93 90 88 90 82 70 68 81 94
42 49 59 62 55 46 42 37 33 32 29 24 24 23 33 54 68 74 84 88 90 88 89 91 86 89 97 84 82 87 84 82 83 89 96 91 84 86 90 93 93 95 93 89 90 94 89 88 89
56 50 63 61 54 44 40 35 31 28 27 25 23 27 34 66 92 98 99 98 88 89 92 90 87 93 90 74 72 75 72 71 88 91 96 93 88 87 91 91 95 96 94 96 94 89 88 79 70
60 60 59 59 51 47 37 33 31 28 27 24 22 25 30 62 93 98 97 100 92 91 96 92 93 94 78 75 84 85 86 82 88 92 91 88 89 92 89 93 95 94 88 89 89 93 78 64 57
59 53 65 57 48 45 33 34 28 29 25 23 22 25 27 61 100 100 96 100 92 91 89 90 90 92 84 92 78 71 77 83 83 89 87 86 86 84 87 70 83 89 86 85 93 79 66 43 44
55 62 66 57 49 40 35 34 34 31 30 28 24 34 54 69 99 100 98 99 100 99 93 90 88 80 73 74 84 69 75 83 83 84 85 88 90 89 82 80 75 81 89 93 84 74 54 43 36
60 67 63 46 41 39 40 39 38 36 39 32 29 36 86 98 98 94 94 98 99 100 99 98 88 80 81 76 78 77 75 79 85 85 84 86 86 87 90 81 83 73 94 83 85 70 56 54 43
67 61 55 51 42 42 45 46 39 39 38 35 35 38 60 91 94 88 88 89 94 96 99 99 100 96 87 84 76 77 73 74 78 72 78 85 89 92 95 93 91 77 86 83 81 62 51 46 38
67 60 54 48 50 48 49 42 42 42 37 32 39 37 35 69 80 91 88 91 92 93 98 98 98 98 94 90 82 76 76 75 78 78 75 81 82 80 90 97 90 86 74 81 79 59 48 39 29
62 60 53 49 49 47 44 46 43 44 40 38 40 39 37 34 41 65 82 93 95 94 94 96 97 98 97 96 90 85 77 73 72 77 79 81 78 79 89 98 94 89 75 80 81 58 46 35 30
58 53 51 48 47 45 50 49 48 44 41 41 43 40 37 37 34 35 38 55 88 95 96 98 98 98 97 99 98 89 84 76 69 69 76 77 77 78 93 97 96 91 80 77 78 55 46 35 32
56 62 55 54 51 49 50 51 60 44 41 41 40 41 39 38 37 35 29 30 31 53 78 92 99 98 99 98 98 98 87 82 76 68 69 76 76 76 86 95 95 87 86 78 76 63 44 35 31
66 61 74 55 57 50 41 48 43 43 48 47 44 44 46 42 38 37 33 32 28 28 36 60 85 97 99 98 97 100 93 85 82 77 71 71 74 78 78 82 85 82 88 77 76 60 41 35 29
73 81 80 62 57 54 55 64 49 46 46 45 44 43 44 42 40 35 30 30 28 29 28 31 62 81 96 100 99 99 100 93 87 83 81 75 70 71 80 77 76 84 90 81 79 53 40 36 27
88 79 77 64 51 60 65 68 53 42 42 45 42 40 41 42 38 35 31 30 29 28 29 28 30 47 65 99 100 100 98 100 97 88 85 82 77 69 73 79 76 81 91 85 82 53 38 34 24
67 72 70 63 53 54 60 60 51 43 45 44 40 37 34 34 33 30 29 27 28 28 28 27 29 29 67 98 99 100 100 99 100 97 90 86 83 78 68 69 76 75 89 82 84 48 38 30 23
69 74 74 64 54 52 58 55 45 42 43 42 40 38 37 36 34 34 33 31 30 29 28 27 29 31 34 75 91 96 98 99 100 100 93 88 86 81 78 65 67 73 87 86 76 49 38 30 25
76 77 75 69 58 54 60 55 45 38 36 34 30 31 32 33 31 33 35 36 31 30 29 28 27 28 33 54 86 100 97 98 100 99 100 82 87 86 82 71 64 75 82 79 74 56 47 35 28
82 59 61 60 64 72 59 61 48 44 32 32 38 40 40 38 37 39 41 42 41 36 33 29 28 28 30 36 86 95 91 92 97 100 100 99 93 94 88 81 69 80 79 75 68 66 49 42 33
75 57 61 63 69 63 63 63 41 35 32 33 36 41 43 43 43 44 47 48 46 42 37 38 30 28 30 34 77 96 96 90 91 97 98 100 100 100 96 86 77 83 85 72 70 64 48 44 38
56 58 65 70 69 76 60 61 39 33 34 34 36 37 41 42 45 48 52 54 52 46 44 39 40 35 29 30 40 97 99 96 97 99 99 99 99 100 100 96 88 83 84 77 70 66 57 46 38
57 70 88 68 80 74 70 70 45 39 40 38 35 35 40 43 43 48 56 58 57 51 49 46 42 43 40 38 35 34 92 100 99 99 97 100 100 100 99 99 96 90 86 83 75 71 62 53 42
66 68 79 61 57 58 70 73 40 42 38 34 34 38 43 44 43 50 59 63 63 55 51 50 48 42 45 41 38 41 45 81 100 100 96 95 92 84 94 96 97 94 90 86 80 72 66 60 48
70 81 58 83 82 78 56 51 34 36 39 38 36 43 44 44 46 59 65 68 67 58 56 61 57 49 45 48 46 39 42 49 78 99 100 100 96 94 91 93 98 96 92 88 82 76 70 62 47
61 64 78 83 72 60 49 55 38 38 34 39 43 44 44 47 56 68 65 67 66 62 61 63 66 69 68 68 68 63 49 46 54 69 83 97 98 98 96 95 98 98 95 91 85 78 70 59 45
73 80 77 71 75 66 56 36 43 40 37 41 44 43 46 56 69 70 66 70 71 66 68 69 74 70 65 63 63 69 66 59 77 94 94 99 100 100 100 98 95 94 93 90 84 78 73 71 51
65 72 65 72 74 88 82 53 41 44 46 45 44 44 52 70 71 65 66 74 76 83 88 88 78 77 76 71 67 69 81 94 99 99 99 98 99 100 99 96 94 92 90 85 84 87 72 58 52

GFSSGP_925_rhum_036.txt.gz
RH
54 42 35 28 29 25 25 22 22 25 23 17 18 19 18 18 21 27 69 72 62 69 69 75 77 79 75 74 85 84 86 86 80 79 79 90 94 90 85 84 85 94 97 92 97 96 91 84 80
56 38 31 27 30 31 22 20 22 23 20 19 19 18 26 24 33 50 61 80 66 69 68 70 76 77 73 78 82 84 81 82 79 80 86 95 90 84 83 83 85 98 99 99 98 89 84 85 88
47 36 28 31 32 31 23 20 16 21 19 18 17 18 19 29 38 45 66 77 67 71 68 71 79 80 77 76 76 76 76 76 76 85 96 93 83 83 86 84 84 96 96 89 87 84 95 91 95
37 30 29 35 34 26 21 22 21 22 20 16 18 19 26 43 43 52 72 72 69 69 67 80 81 81 82 81 77 78 80 75 78 85 95 89 82 85 89 93 85 81 81 78 82 71 73 85 94
37 30 37 40 33 25 24 20 23 23 20 17 18 18 23 48 70 68 72 72 68 67 67 80 84 82 85 85 79 79 76 83 81 83 93 87 83 87 92 93 83 85 84 87 86 90 93 82 81
38 31 40 44 35 27 25 23 23 21 18 16 18 18 23 57 67 78 76 72 70 70 72 76 84 84 90 87 81 78 76 88 86 79 92 90 86 90 93 96 96 94 94 96 95 90 83 74 70
41 41 40 34 36 33 29 22 24 19 18 15 16 18 22 41 74 95 85 73 76 73 72 76 87 87 90 84 68 68 70 82 86 79 89 90 85 90 92 95 92 90 90 90 94 88 73 63 57
37 38 40 36 39 38 27 25 20 19 16 17 17 18 20 45 84 98 97 95 78 76 73 68 71 76 79 83 84 81 84 70 89 83 86 87 85 81 78 82 84 85 78 84 95 78 62 45 48
39 44 44 41 40 31 26 25 22 22 18 19 18 22 42 53 93 97 97 100 80 82 76 72 68 69 70 73 82 85 84 83 85 88 88 86 76 83 86 78 74 83 79 93 85 72 49 39 36
38 44 36 29 30 30 26 22 23 25 25 23 22 27 64 76 90 88 88 89 91 91 87 78 72 70 72 76 78 72 73 78 80 80 82 71 68 70 72 81 69 83 93 91 82 68 52 47 40
38 36 30 35 30 26 27 26 27 25 28 21 22 28 49 79 86 84 82 83 88 90 95 95 81 75 76 75 76 73 68 71 74 72 70 68 71 81 82 78 85 82 95 86 80 68 50 43 38
46 33 30 33 37 35 31 26 28 26 19 23 27 28 28 56 72 79 79 81 83 89 92 96 97 88 85 76 76 72 71 72 72 72 71 73 77 84 79 80 78 74 78 76 70 54 44 39 32
46 44 37 34 42 39 36 34 28 31 26 26 28 30 27 27 41 61 73 76 79 86 88 93 95 92 97 97 79 74 76 78 71 75 75 73 76 80 78 82 85 83 74 71 68 55 42 34 30
43 44 38 38 39 40 42 38 38 29 26 26 26 25 23 24 25 29 48 59 66 73 81 90 94 95 96 98 97 82 79 73 73 71 74 78 75 77 78 81 89 88 81 72 66 54 42 35 32
48 50 46 44 39 39 38 43 44 29 24 26 22 20 23 24 25 26 26 30 36 50 62 72 82 90 96 98 99 99 87 80 76 75 74 75 75 75 77 81 94 91 84 77 67 52 42 36 33
51 47 61 37 40 40 38 34 32 29 28 27 24 23 24 25 23 24 26 27 27 27 34 49 67 81 90 97 99 100 98 93 86 80 76 77 74 73 74 76 90 85 84 80 67 55 46 40 35
49 44 43 44 42 36 39 32 27 26 33 30 26 24 24 27 25 26 26 26 27 26 26 30 47 66 75 90 98 99 100 98 90 84 85 79 78 76 71 73 76 80 83 79 67 56 49 42 37
49 42 45 38 44 49 48 37 36 35 35 32 27 24 22 24 24 24 26 27 28 29 29 28 30 44 62 76 97 100 100 100 98 90 86 84 81 81 78 71 75 77 85 79 68 57 48 43 39
42 43 44 42 44 45 41 42 37 34 31 30 27 23 22 23 23 26 26 27 28 29 31 32 32 33 40 62 91 100 100 100 100 99 94 87 88 85 83 76 75 77 81 79 70 59 49 43 37
45 45 46 53 46 44 42 44 35 32 32 32 31 28 26 24 22 22 26 28 27 27 30 31 31 32 34 42 61 76 91 98 99 100 98 96 92 91 89 84 79 76 79 78 74 60 52 45 40
53 51 58 49 49 44 44 38 37 34 29 25 27 24 23 24 26 29 31 33 36 35 35 32 31 32 34 37 51 66 80 86 89 97 98 97 94 92 90 90 86 79 78 77 75 64 58 49 43
62 56 55 54 53 46 45 31 35 31 28 32 31 30 31 32 32 36 38 39 41 45 47 43 38 35 34 38 44 58 71 75 73 72 85 98 99 95 92 92 90 88 82 76 76 71 68 55 48
51 50 51 52 54 55 48 46 31 25 30 33 31 34 33 34 37 40 43 47 46 51 56 50 45 38 35 36 46 57 66 63 62 66 78 87 98 98 99 97 95 92 85 75 76 72 64 56 52
47 50 51 52 55 77 49 47 28 26 25 30 30 31 35 34 36 39 46 48 46 51 53 53 46 42 45 39 39 49 62 66 63 70 79 83 92 100 100 99 98 95 91 82 77 79 67 58 53
55 60 85 81 89 64 51 51 28 26 27 26 28 29 34 36 36 41 46 48 50 53 53 51 48 44 43 44 46 42 45 60 67 70 73 78 83 97 98 99 99 98 93 92 89 84 72 68 63
71 62 64 62 50 41 53 44 28 29 28 27 26 29 32 36 38 47 50 52 52 53 52 54 54 50 48 47 48 46 50 50 54 75 78 75 70 80 95 99 99 99 95 95 95 93 88 79 72
86 82 46 60 57 56 33 34 28 30 30 28 29 33 35 37 44 50 50 51 54 55 54 59 60 58 61 64 64 60 57 57 57 61 74 88 76 78 82 94 97 99 96 96 95 95 94 90 83
55 48 68 74 71 53 31 29 25 34 33 31 32 35 37 40 50 50 49 54 59 60 60 61 63 64 64 65 63 64 68 68 71 69 80 95 86 85 97 96 97 99 100 99 96 98 95 91 86
60 62 57 51 54 43 29 23 23 27 27 31 31 36 39 49 54 52 51 56 62 67 68 68 67 72 72 71 67 67 70 77 83 94 98 97 98 99 97 96 96 97 99 99 97 96 93 88 84
53 53 43 50 68 62 55 28 28 27 29 32 34 37 42 54 54 52 52 60 68 74 74 73 73 72 72 74 73 72 74 79 90 99 98 99 99 98 100 97 97 95 96 95 97 95 90 83 80

GFSSGP_925_rhum_039.txt.gz
RH
46 47 29 25 30 24 24 18 14 18 17 14 15 15 13 15 21 33 54 55 48 58 68 78 75 70 75 73 84 83 84 85 81 72 77 80 94 88 84 82 94 94 90 92 96 92 85 82 81
46 36 27 24 31 32 23 16 18 17 16 16 16 16 15 16 26 45 51 62 51 56 64 70 75 75 78 74 84 81 81 81 76 75 83 89 90 84 82 83 94 99 98 99 97 85 85 86 92
56 35 29 29 30 30 24 17 14 18 16 16 16 15 16 26 32 37 54 56 53 54 57 70 77 76 75 80 83 79 82 78 76 75 83 89 85 84 82 87 97 96 95 95 84 83 88 92 96
40 28 27 34 30 25 20 16 12 18 17 14 15 17 21 36 35 45 58 53 53 53 55 77 76 72 75 76 74 79 79 76 77 80 87 84 84 87 88 94 91 88 87 78 73 66 72 81 90
40 30 36 35 29 21 18 17 16 18 17 15 15 16 24 47 49 53 55 52 52 51 57 78 79 77 80 76 75 75 83 78 79 80 89 86 86 90 94 87 83 83 82 70 67 85 82 80 78
42 32 40 37 30 21 18 17 17 18 16 14 15 15 30 49 51 56 55 53 52 52 60 75 81 80 78 78 78 78 80 82 78 76 90 86 88 92 92 78 82 81 71 73 94 90 77 72 68
49 40 43 33 28 24 20 17 18 16 16 15 13 16 25 40 64 63 56 54 56 56 58 73 82 81 84 85 82 79 75 84 83 79 82 85 86 77 76 89 84 89 92 93 91 78 68 60 56
38 43 46 35 30 28 20 20 18 17 16 12 13 17 20 40 73 78 63 57 58 59 57 66 72 75 77 83 73 76 76 84 89 80 76 85 80 79 77 71 80 83 81 85 89 71 58 48 48
34 57 59 42 31 26 21 24 18 16 15 14 12 17 35 48 78 87 90 86 59 60 58 56 57 61 63 64 78 76 77 67 85 84 75 78 76 81 71 81 76 83 78 92 88 68 47 38 39
45 50 43 28 24 27 24 24 18 22 18 15 16 22 42 53 76 80 82 80 60 62 59 57 54 56 57 60 75 75 76 82 82 81 89 75 64 67 66 79 73 83 82 94 85 68 48 43 42
38 40 31 25 26 25 25 23 17 22 20 16 16 18 34 48 66 73 76 75 80 79 74 62 60 57 57 60 64 62 60 67 68 68 71 69 60 66 69 78 77 89 93 96 87 71 57 46 39
40 30 24 23 28 30 28 21 22 22 17 15 17 23 24 40 47 54 67 60 63 79 85 87 70 64 62 62 63 60 59 61 63 63 62 60 60 65 67 64 69 66 78 71 74 62 47 44 39
43 29 26 26 34 32 24 23 21 20 19 22 23 25 24 23 32 45 56 58 64 69 81 88 89 78 70 67 62 62 62 61 61 61 62 59 62 69 70 66 69 66 62 62 64 56 44 40 34
38 33 33 28 36 35 33 26 24 22 19 22 22 22 21 20 22 26 42 52 55 57 69 82 87 86 74 84 80 67 64 65 64 60 62 61 61 65 72 68 79 80 67 63 61 55 45 38 34
39 39 38 32 34 35 34 34 33 24 21 23 20 19 19 18 18 22 24 32 42 46 54 63 72 80 82 81 95 90 72 67 65 63 64 65 64 63 64 63 73 84 78 66 62 55 45 38 35
48 43 50 37 38 34 37 37 26 24 24 24 19 18 16 16 17 17 20 24 26 28 33 47 58 68 73 76 81 95 94 75 67 66 65 65 65 64 63 63 75 80 84 75 66 59 46 41 39
47 47 45 37 34 36 41 35 24 22 23 23 20 18 17 17 17 16 16 19 23 25 26 27 34 49 62 69 79 91 98 97 78 70 69 67 68 66 64 63 65 74 82 76 70 62 50 46 41
43 46 31 34 41 37 39 38 24 24 23 24 20 18 17 17 17 18 17 18 20 22 22 23 24 28 40 54 63 81 92 98 99 84 70 70 71 71 68 65 64 66 71 71 72 63 54 49 44
24 35 28 26 36 41 39 31 26 24 26 25 22 19 18 16 15 20 23 24 24 25 25 26 27 26 28 37 49 85 94 93 99 98 86 71 75 72 74 72 65 65 66 73 72 66 56 51 45
35 32 33 33 34 40 28 33 28 27 25 23 21 21 20 19 18 20 22 26 25 23 24 26 27 29 29 30 34 50 80 89 95 99 99 88 80 78 77 78 73 67 69 70 73 67 59 52 44
35 37 34 40 44 38 40 36 33 25 28 26 24 22 20 20 20 24 26 30 34 36 36 33 30 29 29 30 31 35 54 73 85 95 97 100 98 85 81 82 81 74 71 73 74 70 62 56 48
39 34 41 50 47 36 36 21 30 31 27 27 26 25 25 27 27 30 32 35 37 41 49 44 39 36 32 31 32 34 44 58 67 68 76 82 87 94 84 84 84 83 79 76 76 74 66 59 56
45 44 46 49 50 50 44 42 28 26 30 30 28 29 30 30 32 33 38 41 39 45 52 52 44 37 38 34 34 35 39 45 58 63 61 61 74 90 91 86 86 90 87 82 78 76 69 66 64
43 47 48 49 51 74 44 36 28 26 24 28 29 28 30 29 32 34 39 42 40 46 50 50 46 41 39 41 38 36 40 46 52 56 56 57 64 75 86 89 87 88 91 93 86 80 76 76 70
46 52 75 77 88 60 41 48 26 20 18 23 25 26 29 31 32 36 40 43 44 48 49 48 45 45 42 40 42 40 38 38 44 53 57 60 62 71 80 87 91 94 92 91 91 88 82 82 75
57 52 69 62 59 49 44 45 27 20 21 22 22 26 29 31 33 41 44 45 46 49 50 50 51 49 50 51 49 47 45 44 44 41 47 60 60 59 62 82 87 94 96 95 95 94 92 88 82
86 85 43 49 38 44 34 28 29 25 26 24 25 30 32 34 38 44 44 45 48 50 52 52 52 52 53 55 56 53 51 52 54 53 51 53 60 66 65 67 81 87 92 96 97 95 96 92 89
88 51 72 70 76 45 33 24 22 31 28 27 30 32 34 36 43 45 44 46 51 54 57 57 57 56 59 62 59 56 58 60 63 64 63 66 75 76 74 77 78 87 94 100 99 98 98 97 96
82 94 62 50 50 54 29 24 19 26 29 31 29 33 36 42 47 46 46 48 54 59 60 61 61 64 62 62 61 60 60 63 70 77 84 93 96 94 91 88 92 91 96 98 100 100 100 99 99
48 47 46 54 65 48 51 35 21 24 26 28 32 35 37 48 48 47 47 48 56 65 67 66 66 66 64 65 65 65 66 68 70 81 89 93 93 92 91 93 94 96 96 98 98 100 100 100 98

GFSSGP_925_rhum_042.txt.gz
RH
34 41 39 30 49 40 40 25 15 18 16 15 15 15 20 20 46 74 47 50 65 77 81 73 69 74 75 72 84 81 86 82 80 73 79 81 83 83 83 90 91 87 90 97 93 86 84 84 86
43 42 32 41 49 48 36 21 21 17 20 17 16 16 17 43 47 54 57 52 61 71 80 77 67 68 70 79 82 79 86 80 73 70 77 81 81 84 81 96 99 98 98 98 84 82 86 90 94
42 46 46 46 47 45 37 21 18 20 16 17 18 15 17 43 40 49 57 50 57 65 71 78 76 79 74 80 80 77 78 78 72 74 81 83 84 82 87 99 99 99 93 96 71 78 90 93 92
47 37 39 49 42 34 28 18 14 20 17 15 16 21 36 44 43 54 55 51 54 58 70 76 78 74 74 79 81 75 74 75 72 76 78 86 86 85 96 97 90 87 82 76 63 56 66 74 72
46 48 51 47 42 29 22 19 15 19 17 16 15 23 53 47 50 53 51 51 51 63 71 76 74 74 74 71 73 72 73 76 74 77 79 87 90 92 97 87 84 81 80 72 74 82 70 72 68
63 47 62 55 39 28 22 18 16 17 18 15 16 24 54 48 51 51 50 50 49 66 76 77 73 76 73 75 74 75 78 76 74 75 84 89 92 93 92 88 82 83 80 92 94 75 65 65 64
72 72 68 53 40 29 23 18 19 19 18 18 14 21 53 62 57 54 51 50 50 59 73 81 80 80 78 78 77 76 83 80 78 69 80 84 92 92 77 70 76 72 86 92 80 68 62 57 53
71 80 68 48 46 38 22 19 18 19 18 13 14 32 70 70 70 60 53 54 54 56 68 77 82 81 82 81 78 80 82 85 74 71 74 77 74 78 77 72 78 76 82 88 81 64 54 49 48
65 83 86 69 54 38 21 23 19 16 18 14 14 41 51 73 79 79 76 63 57 57 61 68 75 78 77 77 73 74 78 83 82 81 76 76 63 55 61 77 82 88 81 85 81 63 45 40 41
63 83 75 64 44 38 28 24 22 21 22 20 18 38 52 71 77 81 80 75 59 59 56 60 63 63 64 66 69 60 70 67 85 75 74 75 76 64 66 72 78 84 82 92 83 66 46 43 42
50 61 51 46 40 38 29 27 22 25 28 20 19 32 46 61 67 74 74 74 70 62 59 55 54 56 58 62 69 74 79 80 81 76 76 74 68 68 71 72 70 73 79 87 84 72 53 44 42
50 45 40 38 38 33 33 25 25 23 23 20 28 26 32 47 61 65 68 69 76 75 75 68 61 57 57 60 67 63 66 69 74 76 78 75 64 66 68 74 70 61 76 85 82 69 55 49 42
51 38 30 29 36 33 30 30 26 26 22 24 27 28 26 24 36 46 56 59 63 76 79 79 74 67 60 61 62 61 60 62 63 66 66 66 62 63 68 68 71 67 76 71 79 67 56 45 40
39 39 35 28 36 34 33 28 25 23 24 25 25 27 26 25 24 26 50 53 56 64 76 80 81 79 72 66 65 62 62 60 61 62 63 62 60 63 66 66 66 67 69 66 65 64 53 44 37
38 45 40 36 39 38 35 40 35 24 22 24 26 26 24 22 19 22 22 36 51 54 63 74 81 85 80 75 69 72 71 64 65 63 61 62 61 63 70 67 70 66 66 71 63 62 56 44 37
46 46 58 40 38 36 40 48 33 26 28 30 26 24 23 23 19 17 18 23 25 31 45 64 73 79 82 80 82 73 75 76 68 67 63 63 64 62 64 67 69 72 71 69 72 63 56 45 37
59 63 57 47 36 39 44 44 31 24 29 31 28 26 22 20 18 17 17 16 21 24 26 27 36 68 72 76 77 82 83 80 78 72 66 66 65 65 65 65 65 73 72 72 71 67 61 47 40
70 64 45 47 43 43 48 49 34 26 26 28 26 23 21 20 19 17 17 19 22 23 24 24 26 28 38 64 71 77 80 88 90 81 76 68 68 67 66 66 64 67 74 73 73 72 64 52 44
42 45 45 38 38 45 47 44 38 32 28 31 30 26 23 21 17 19 23 23 22 23 25 25 26 26 27 30 43 67 82 84 82 87 86 78 72 70 71 68 66 65 74 73 77 72 66 56 50
34 38 42 31 40 42 40 41 33 29 29 31 30 27 24 22 19 24 23 26 28 26 25 25 27 27 28 28 29 38 72 78 74 83 87 94 75 76 76 75 70 67 67 76 77 73 70 60 52
36 42 38 41 43 40 43 46 35 31 28 28 26 25 25 23 24 28 29 34 35 40 41 37 32 30 29 30 31 31 31 68 86 90 86 85 89 92 88 79 77 75 70 68 72 76 72 63 54
44 32 33 44 56 61 41 40 34 33 35 29 28 28 26 29 34 35 36 39 39 46 50 51 44 39 36 31 30 32 34 39 59 77 78 82 81 80 80 82 85 81 84 75 74 77 76 67 57
42 45 49 51 59 60 50 57 33 37 36 34 32 33 35 34 35 38 42 42 41 48 51 52 50 44 38 40 36 34 34 36 38 44 63 70 72 81 85 81 79 81 85 81 84 79 82 72 65
44 52 52 50 56 92 58 49 44 41 33 34 34 36 36 36 40 38 41 42 44 48 50 50 47 45 43 41 41 41 37 37 39 46 53 60 63 62 70 83 80 76 87 90 87 88 86 81 70
50 61 92 94 95 87 46 53 40 26 27 31 35 37 37 37 40 41 49 48 47 49 50 50 50 50 49 50 48 45 45 44 41 40 40 48 56 60 66 72 78 78 78 87 95 93 90 87 75
62 58 85 72 91 74 45 66 40 25 26 28 28 32 33 35 44 47 50 48 48 50 52 52 52 52 52 54 57 56 53 51 51 49 51 50 48 54 64 70 72 79 80 77 83 97 96 95 87
72 88 46 68 39 78 58 37 30 28 29 27 30 32 36 37 46 48 48 48 50 53 55 57 56 56 58 60 61 58 56 58 60 60 60 59 58 70 70 73 80 82 82 82 85 91 98 100 98
83 61 78 91 88 63 46 39 40 37 34 30 32 37 39 40 45 53 51 48 51 57 60 60 60 62 63 62 62 61 59 62 66 72 76 78 79 73 78 83 85 84 92 97 91 97 99 100 100
92 96 78 61 73 87 58 39 26 33 31 31 35 37 39 45 55 55 52 49 54 62 65 65 66 67 64 66 66 66 66 67 72 80 83 91 92 90 90 90 86 81 83 90 98 100 100 100 100
70 74 72 90 77 67 70 54 23 30 33 34 35 39 42 53 55 53 50 49 60 68 72 73 72 68 68 70 69 70 73 77 76 78 80 84 87 88 87 86 87 87 89 90 91 95 98 100 100

GFSSGP_925_rhum_045.txt.gz
RH
31 36 45 43 52 58 55 38 20 20 21 20 18 20 24 35 56 69 57 57 66 64 69 77 79 78 77 81 80 80 78 78 79 73 78 80 81 76 68 86 84 90 96 91 88 85 85 87 86
32 42 42 49 60 61 53 32 20 25 22 18 18 18 34 62 57 62 65 72 67 64 73 76 80 78 74 79 77 77 80 79 71 68 76 79 84 74 98 97 95 98 98 86 84 85 90 92 71
31 41 54 57 63 64 51 27 24 22 18 19 20 17 41 52 60 58 58 76 69 73 71 67 68 68 69 79 74 75 77 70 69 74 75 78 81 90 97 93 98 99 93 77 70 89 91 77 64
51 45 48 60 61 46 40 33 24 21 18 17 18 52 53 52 53 57 58 69 66 78 76 78 75 70 72 76 72 77 76 76 69 75 69 80 83 93 99 98 95 94 81 72 62 72 73 66 65
45 56 67 61 54 44 32 22 21 22 21 18 18 44 67 58 56 54 58 63 68 76 76 78 78 72 77 79 75 80 75 72 70 75 77 88 88 95 96 92 86 84 78 61 52 61 64 62 62
81 69 85 72 54 38 29 21 17 21 19 17 29 57 67 56 54 52 53 59 63 74 76 76 74 77 76 72 74 72 73 72 69 76 88 92 94 96 87 82 81 79 75 73 61 58 58 60 59
73 85 82 71 62 48 33 21 19 19 19 18 18 64 75 70 54 51 53 61 69 72 75 72 74 74 76 77 74 74 72 75 69 71 78 84 90 92 84 74 76 77 82 89 69 62 58 52 52
83 78 73 71 67 62 39 22 21 19 18 15 21 64 89 73 70 56 54 66 71 72 72 73 78 80 79 79 77 76 80 80 70 70 73 70 55 65 76 71 68 74 88 84 70 60 52 48 49
84 91 86 72 66 55 38 45 20 20 21 21 36 58 79 73 72 62 58 62 74 73 71 74 81 81 81 81 79 78 79 84 76 73 72 76 56 56 59 67 85 85 88 85 74 57 43 42 42
91 86 76 53 50 56 58 41 28 22 23 24 58 83 79 70 72 77 71 70 62 74 72 70 75 74 74 75 77 78 78 77 85 76 74 73 61 51 56 72 79 82 80 80 80 60 41 41 42
74 73 59 49 43 54 65 46 33 27 26 24 47 84 83 83 82 81 76 73 68 65 67 69 70 69 70 69 66 51 56 65 84 82 76 73 67 70 66 66 77 81 83 79 82 67 48 42 41
60 52 52 50 53 76 71 43 38 28 26 33 28 59 73 79 84 83 77 71 72 70 69 70 70 64 63 67 69 64 69 72 68 81 76 76 74 77 75 69 68 65 70 75 81 77 60 46 44
62 48 44 44 49 64 72 58 37 28 32 32 31 31 45 65 73 71 69 68 64 65 67 68 68 61 59 61 66 65 67 71 68 72 77 78 70 74 72 70 71 69 53 68 76 76 60 51 46
52 51 45 37 41 36 38 36 33 25 28 32 31 29 27 26 28 52 68 64 74 70 61 62 69 66 66 62 63 65 64 63 64 69 72 77 73 66 69 70 70 70 66 68 75 77 66 56 46
42 56 48 54 43 41 34 39 42 30 26 29 28 29 28 25 22 25 52 55 62 67 65 67 60 67 69 72 65 63 66 64 61 62 64 66 66 62 68 68 68 71 69 70 75 76 67 54 45
52 52 67 50 46 40 35 50 40 32 29 30 30 30 29 27 22 19 20 24 47 58 64 70 72 66 65 72 74 68 68 72 68 63 64 62 63 63 64 68 69 67 69 66 68 71 65 61 48
60 76 66 52 42 43 44 53 39 33 33 34 34 33 30 27 24 20 18 17 19 28 45 66 72 73 73 70 76 74 68 71 78 73 67 66 63 62 62 65 69 71 72 71 68 70 70 60 49
83 68 58 59 48 45 52 54 41 32 34 38 34 30 28 26 23 18 20 22 22 25 26 28 39 73 71 71 75 76 77 70 68 75 78 74 66 65 65 63 64 66 69 72 73 69 69 67 55
59 59 53 50 42 51 52 54 43 41 29 33 33 31 29 25 20 25 24 24 23 23 24 25 26 26 33 69 82 83 84 82 72 68 68 69 70 72 67 66 66 67 67 69 75 74 72 72 63
56 60 57 41 43 49 55 55 46 41 38 33 33 33 31 26 28 29 30 30 30 30 28 25 26 27 28 29 33 56 79 82 76 71 70 66 63 63 71 74 68 69 67 70 74 76 79 76 62
54 47 47 48 46 42 45 50 44 37 33 33 32 32 27 25 26 34 41 40 38 38 36 37 34 30 29 30 30 31 33 61 74 79 83 80 77 70 62 62 73 75 73 70 71 77 84 77 66
59 37 39 55 59 67 45 69 37 36 35 35 35 31 28 36 38 44 47 44 44 46 45 48 47 43 38 36 33 30 32 36 36 62 77 74 71 74 77 73 70 68 80 79 76 78 83 84 75
48 46 55 57 64 62 54 66 52 38 45 38 35 33 37 42 46 50 48 43 49 49 51 51 49 46 44 42 41 41 37 35 36 38 43 48 71 74 74 75 76 72 73 78 87 80 90 89 83
49 56 59 62 71 91 66 65 54 50 38 37 36 44 44 46 46 51 45 46 52 51 50 50 50 50 49 49 47 47 48 48 44 39 39 41 44 65 70 64 70 77 78 79 85 83 94 93 88
55 62 95 94 96 90 54 67 52 36 34 35 44 44 43 45 49 55 59 53 52 52 53 52 53 53 54 56 56 55 54 54 54 52 54 54 50 50 63 75 73 73 74 75 73 76 82 97 98
76 61 87 87 98 84 50 74 50 30 30 34 37 41 45 47 54 62 58 54 53 55 56 57 58 60 60 60 61 61 58 59 60 60 61 64 63 74 79 75 71 75 78 76 83 82 82 90 100
92 96 60 70 56 83 65 48 33 32 38 35 41 42 44 48 59 62 57 54 56 61 63 62 62 64 63 63 62 62 61 62 67 72 73 72 76 74 78 80 79 80 80 83 82 84 80 87 90
78 66 81 94 100 70 64 49 50 41 38 37 40 41 45 52 62 62 58 56 64 66 66 66 68 66 66 66 66 68 70 72 78 78 74 73 78 78 75 75 83 85 86 85 92 99 100 99 100
87 95 79 73 84 89 63 50 32 36 35 35 40 40 49 58 65 64 59 62 67 67 69 73 72 70 69 69 70 74 77 80 79 77 83 86 88 87 85 84 87 89 88 88 88 90 94 90 98
75 82 74 91 80 76 82 57 29 36 34 33 38 44 50 63 62 61 56 67 72 73 76 79 79 77 74 72 72 77 78 77 76 74 80 85 85 87 88 87 85 84 86 88 85 89 90 93 100

GFSSGP_925_rhum_048.txt.gz
RH
36 37 43 40 53 63 62 47 24 22 22 20 20 43 54 53 54 50 65 72 71 76 76 77 82 81 80 81 80 82 84 86 90 77 73 81 75 61 92 86 96 94 92 90 86 86 86 85 73
36 44 40 55 64 67 60 39 31 25 23 24 21 22 52 69 60 89 81 80 67 69 77 80 81 80 80 79 80 80 82 82 75 69 75 75 59 88 88 96 98 98 92 85 85 89 91 81 66
53 40 55 59 69 66 54 31 26 22 20 20 20 39 52 62 63 72 70 78 65 67 82 81 81 82 82 78 78 78 84 77 69 71 71 66 68 92 88 96 97 99 76 64 84 91 67 55 58
45 46 54 67 68 52 42 39 26 23 19 19 35 65 60 60 57 65 75 67 58 74 80 83 82 76 78 73 79 76 75 70 69 73 65 80 96 98 97 96 98 96 79 66 72 66 62 56 53
47 59 73 68 62 50 41 34 28 23 20 20 28 64 71 62 64 74 78 74 71 73 70 71 71 71 75 71 76 78 73 70 70 73 80 86 95 99 100 93 89 83 77 54 50 61 60 59 60
82 73 90 86 65 46 39 32 23 22 20 23 67 74 72 64 66 78 75 72 70 75 81 81 73 72 74 73 78 75 72 71 70 74 90 92 95 97 99 86 82 80 72 53 55 57 56 55 58
64 72 76 78 67 56 41 39 25 23 21 20 53 81 78 69 65 72 70 72 74 76 77 79 75 78 78 72 76 72 73 71 70 70 71 87 94 95 95 82 76 78 72 56 57 56 55 54 55
79 70 68 73 70 74 45 49 40 21 19 17 49 87 89 75 72 66 74 78 77 77 76 75 78 78 74 75 74 71 73 76 73 70 69 56 50 69 91 88 88 84 93 67 60 55 50 47 50
71 88 81 71 70 63 58 62 45 27 33 49 69 73 74 78 71 77 82 82 80 78 74 75 76 76 77 78 78 78 81 82 81 73 70 71 40 47 60 67 70 84 91 80 67 56 48 45 48
85 80 70 53 48 58 65 62 52 42 34 67 95 87 82 76 70 82 85 89 85 80 75 74 76 80 81 81 80 79 81 86 86 78 75 74 60 45 48 54 66 80 88 86 76 59 43 42 42
90 73 54 51 46 72 81 68 51 48 34 48 87 93 86 85 82 82 80 82 79 73 76 76 74 75 79 82 80 79 78 81 90 83 78 75 69 52 56 66 76 79 79 76 85 71 46 42 42
81 60 53 58 54 82 72 62 70 50 33 30 66 88 89 86 87 81 80 77 77 79 77 75 76 74 72 69 72 71 74 79 85 86 81 77 72 67 69 64 68 69 71 73 74 76 62 46 43
63 57 51 62 79 80 70 80 72 72 51 36 67 76 87 87 80 69 69 74 75 77 78 74 76 74 75 70 68 64 57 56 61 75 79 78 78 74 74 72 70 69 68 62 66 75 76 64 48
63 51 60 64 64 66 76 77 83 60 37 35 34 42 53 76 80 78 72 67 70 71 75 77 74 74 74 73 69 68 66 65 68 66 68 73 78 79 73 72 72 72 71 60 55 68 74 62 52
52 66 60 53 48 46 50 72 90 60 37 35 34 32 30 29 32 73 69 66 62 63 64 66 69 65 66 66 68 66 66 66 69 68 67 71 74 78 74 70 71 72 70 68 68 72 77 80 66
55 58 72 55 49 42 39 56 56 52 35 34 35 34 32 28 24 23 54 62 62 66 62 58 61 67 68 68 67 68 68 70 67 67 67 67 68 70 73 68 69 71 71 71 69 72 74 77 71
63 83 68 60 47 46 42 50 38 33 38 37 38 35 32 30 26 23 21 30 44 62 69 68 64 64 66 70 72 70 68 69 73 70 64 65 65 65 66 66 65 70 71 72 70 73 74 72 71
78 77 58 63 54 50 50 55 43 40 40 40 40 39 34 29 27 23 22 22 24 29 37 69 76 77 76 74 73 74 75 73 69 74 76 66 66 65 65 64 64 65 71 72 73 73 70 72 72
64 60 61 53 48 50 52 54 47 42 43 43 44 38 31 27 29 29 28 27 26 27 27 28 33 50 74 84 85 83 82 79 74 69 70 75 74 74 70 66 66 66 67 69 71 74 75 73 74
61 65 62 46 44 50 55 53 49 46 48 41 38 36 33 28 31 35 36 32 30 31 30 31 32 30 30 37 62 83 88 86 83 80 73 73 72 71 70 71 71 71 72 68 71 76 82 80 80
63 66 61 51 50 45 48 53 50 46 44 38 38 35 33 33 34 43 46 41 39 38 36 34 34 36 36 34 32 32 34 55 85 80 81 75 78 79 74 71 74 77 82 78 70 74 85 89 87
68 46 43 55 63 77 44 77 44 42 42 43 39 39 36 30 35 50 50 47 44 47 45 46 45 44 43 41 40 39 35 36 35 39 41 66 80 82 85 85 80 79 75 84 82 78 82 91 95
57 44 57 59 68 64 56 63 51 40 48 40 41 41 37 44 52 56 52 48 53 51 50 49 48 48 48 46 44 45 46 48 46 40 39 38 41 49 52 76 86 73 66 68 80 89 90 91 94
53 58 66 72 74 86 68 66 65 46 40 40 39 37 42 53 57 58 52 55 55 53 51 50 52 53 53 54 54 54 53 53 51 49 48 46 45 44 49 63 75 82 82 74 75 78 87 95 93
54 65 93 89 94 84 66 72 44 42 38 38 42 49 54 56 62 66 67 61 58 56 54 55 55 57 58 58 58 59 58 59 60 60 61 59 58 64 66 66 72 82 82 84 76 78 83 85 95
66 65 88 88 97 83 59 79 49 40 33 34 38 46 49 54 62 69 66 61 60 60 61 60 61 63 61 60 60 61 61 61 67 69 72 74 74 76 74 75 76 74 84 88 83 79 88 89 88
85 95 63 74 66 88 70 59 41 36 40 44 46 47 49 53 65 70 66 62 65 66 66 65 65 66 64 64 63 63 65 66 75 81 78 77 79 82 81 76 77 78 83 88 97 92 97 90 88
85 68 85 92 96 72 64 66 54 45 51 44 46 48 50 57 69 68 67 70 70 68 70 70 68 68 68 67 69 74 80 83 85 80 76 81 83 84 84 82 80 77 79 83 84 86 96 99 99
95 99 94 74 80 90 80 61 41 41 45 45 44 44 53 65 71 70 69 72 71 73 73 74 73 72 70 70 74 77 79 81 79 78 77 84 83 82 86 86 86 85 84 86 88 92 93 92 98
81 84 71 90 88 82 83 63 36 36 37 39 41 43 51 62 67 67 72 75 76 78 78 78 78 77 74 73 77 79 79 80 79 78 77 81 82 80 81 84 85 85 86 87 87 88 89 89 90

GFSSGP_925_rhum_051.txt.gz
RH
42 37 50 39 55 66 64 50 35 26 23 21 22 36 41 59 52 48 75 81 79 87 81 84 85 88 79 81 82 83 85 88 90 88 84 83 71 66 83 96 93 94 90 86 87 88 89 87 88
39 50 42 58 65 70 60 44 36 27 22 26 42 42 62 66 68 90 90 94 74 78 82 85 83 80 82 80 78 83 86 88 81 76 73 68 56 80 85 95 95 95 89 83 86 88 87 85 83
48 51 54 61 73 68 54 35 36 27 23 23 31 52 59 69 80 80 76 94 84 76 83 84 81 81 79 77 79 84 85 80 74 69 66 55 90 94 96 98 94 87 69 60 83 78 80 84 78
52 46 58 70 69 55 45 43 38 31 21 21 49 69 65 66 70 67 86 88 81 76 80 82 79 79 79 81 82 86 78 74 70 73 61 77 96 97 99 92 91 75 68 39 57 58 55 68 72
53 57 73 72 65 55 44 39 36 32 27 23 42 78 75 70 67 78 84 84 73 83 82 80 83 78 79 82 85 84 75 71 67 70 71 95 99 99 98 94 99 78 69 38 51 57 54 55 70
80 70 83 83 71 59 52 46 41 27 24 47 73 78 76 75 88 85 77 70 70 82 83 81 80 74 79 80 85 79 75 69 66 69 69 92 93 97 99 93 86 84 74 50 50 56 57 59 67
80 75 84 80 72 62 48 53 44 42 26 26 68 87 80 78 88 83 76 71 78 75 73 73 71 72 72 77 80 77 75 72 70 68 48 84 90 94 99 98 90 89 85 70 58 59 57 57 62
70 64 63 68 63 67 55 60 48 49 29 28 57 88 84 82 81 83 83 80 76 78 81 81 70 79 73 74 80 74 76 73 72 68 58 37 43 84 97 94 87 94 92 77 67 62 58 57 61
81 81 74 62 59 54 53 66 57 46 45 55 94 78 79 80 80 85 92 92 87 85 82 78 76 80 76 75 74 75 76 78 74 72 69 56 47 54 56 62 74 82 84 70 65 61 56 52 54
91 86 68 51 44 44 52 69 64 57 54 61 94 93 89 86 87 93 94 94 89 84 81 78 81 80 76 76 77 79 82 84 81 76 75 72 50 48 56 62 63 65 84 78 68 58 47 44 48
88 83 56 50 45 56 70 64 60 63 58 38 48 95 90 90 92 92 93 88 82 79 80 80 79 78 77 79 80 82 86 88 86 82 77 78 73 50 53 55 66 70 81 85 83 71 50 40 41
92 63 52 52 63 69 69 60 69 62 59 53 56 55 92 94 91 90 88 86 83 81 76 78 79 77 79 80 81 81 82 85 89 88 82 80 76 59 47 51 61 67 71 73 70 77 68 49 43
69 65 55 69 76 74 64 71 79 76 56 48 44 80 92 91 88 86 80 80 80 80 78 76 77 77 78 81 80 80 79 80 80 83 84 81 78 71 59 62 59 64 70 70 68 69 74 72 57
71 62 67 73 75 69 79 78 78 54 52 54 44 89 87 84 81 82 83 82 79 75 75 74 76 74 73 74 72 71 68 65 65 66 73 82 81 77 77 71 72 72 71 70 69 58 62 71 71
72 75 82 82 76 79 69 83 91 58 49 57 53 50 70 80 77 76 73 78 77 76 75 76 71 75 75 71 70 71 68 67 66 67 67 68 74 77 80 76 71 70 70 72 73 66 64 77 80
63 78 82 77 69 61 82 87 78 65 64 66 56 40 36 33 49 63 63 64 62 70 73 76 76 71 76 74 70 71 72 70 69 68 68 69 73 75 78 81 78 71 70 72 75 72 71 75 78
68 91 77 68 58 58 67 56 57 66 56 63 57 39 37 34 29 27 34 61 61 62 65 68 73 76 72 69 68 70 71 71 69 69 68 67 70 73 76 76 72 72 70 72 75 76 74 74 77
81 83 70 68 60 55 66 49 44 52 58 61 50 41 40 38 33 25 24 24 51 59 63 67 70 74 77 79 81 81 78 74 76 76 76 72 68 67 70 71 72 73 73 72 75 78 76 74 76
69 67 71 55 53 54 56 52 47 43 44 43 43 47 43 38 29 30 28 27 27 33 47 59 68 74 80 83 84 84 82 81 81 80 78 77 80 79 70 69 69 70 72 71 73 77 79 77 80
64 69 65 50 50 55 57 58 49 44 43 44 42 45 45 34 34 38 34 32 31 32 32 32 35 39 46 68 87 90 87 83 80 80 81 83 82 82 86 78 76 75 72 72 72 77 87 86 87
66 71 65 60 52 48 53 59 54 47 49 44 45 41 39 38 37 45 46 41 40 38 35 33 33 32 31 32 33 38 53 67 76 86 86 84 87 89 89 85 88 82 82 82 80 82 87 93 90
72 51 54 58 64 78 50 84 55 47 48 47 42 49 44 40 39 48 52 51 47 46 48 48 47 43 40 38 36 35 34 35 35 39 40 40 49 68 81 87 89 90 90 90 85 80 85 94 99
59 49 50 59 70 62 57 69 57 39 46 45 40 41 46 40 42 54 56 50 53 53 51 50 50 51 51 48 46 45 46 48 48 45 39 35 35 40 45 49 51 69 88 88 80 78 83 92 98
55 61 66 75 73 91 67 66 61 48 38 32 38 40 44 44 55 60 53 58 60 56 53 52 52 54 55 55 57 56 56 55 53 53 52 52 51 48 47 52 59 63 76 86 85 86 84 82 89
54 64 94 93 94 92 68 68 46 42 40 37 36 42 43 57 67 71 76 68 61 58 57 56 56 58 59 59 59 60 60 60 62 63 63 63 64 66 69 74 75 76 82 95 100 99 90 88 95
66 61 88 86 95 82 69 83 52 42 38 39 37 40 54 67 74 75 74 68 64 62 61 60 61 62 62 61 61 61 62 63 68 73 78 79 78 78 77 74 76 82 87 94 98 99 98 97 96
85 90 60 79 72 90 74 62 44 40 41 39 46 54 61 66 72 76 72 68 69 68 66 64 64 65 64 64 64 65 65 68 77 82 80 77 79 79 78 78 76 76 81 85 90 99 100 100 100
79 72 83 92 92 81 66 68 55 41 43 48 53 54 55 61 76 78 75 76 74 70 70 68 67 67 67 67 68 74 85 88 88 85 84 80 79 79 81 82 81 80 80 86 94 96 98 97 98
94 98 89 77 84 82 88 65 50 40 41 52 52 49 51 61 76 76 79 77 74 75 74 72 72 71 70 70 73 78 83 83 82 81 84 83 82 80 83 86 87 86 85 87 89 91 92 93 98
83 86 87 90 93 89 86 74 35 42 41 48 50 49 56 64 72 72 81 79 79 79 78 76 77 76 74 73 77 79 81 83 81 80 80 80 78 79 80 83 84 86 87 89 89 89 90 89 90

GFSSGP_925_rhum_054.txt.gz
RH
80 40 48 40 51 67 60 46 41 34 24 22 22 30 36 57 49 45 84 91 76 86 78 82 84 83 75 84 84 84 87 89 92 81 77 80 65 83 94 94 96 94 85 87 90 93 93 93 95
65 52 41 60 65 67 57 47 39 34 26 47 40 49 60 68 74 98 96 98 80 83 82 82 83 82 81 79 82 84 88 90 80 76 77 68 81 88 96 98 96 88 81 85 86 87 88 86 86
66 53 51 62 76 67 47 40 43 36 32 27 44 60 64 74 86 88 81 99 87 80 85 83 82 80 81 80 83 86 87 79 78 80 65 77 95 95 94 92 88 74 49 79 89 92 86 87 82
58 46 56 66 69 54 45 45 40 40 25 25 48 65 69 72 78 72 80 96 90 81 84 83 82 84 80 76 79 89 76 74 76 71 59 91 95 96 100 91 81 73 45 61 72 74 78 78 80
55 53 68 74 65 56 49 45 49 37 30 24 47 73 79 77 74 87 89 92 88 88 87 86 82 82 78 77 82 85 76 73 71 58 69 84 93 96 94 92 79 77 56 58 64 64 64 74 78
72 65 77 82 69 59 54 55 46 50 31 39 71 80 81 91 96 100 88 85 75 85 86 82 81 82 78 83 86 81 74 70 64 56 48 88 84 91 91 96 86 84 69 55 64 65 64 69 76
78 77 82 79 71 61 51 55 56 58 48 28 70 83 84 88 98 94 86 84 81 85 84 81 82 80 78 87 83 80 76 72 68 63 36 72 83 86 92 98 94 90 82 76 67 64 62 65 70
80 74 78 71 68 63 56 55 54 60 51 39 66 76 87 85 94 90 86 84 89 89 86 82 78 74 80 83 81 77 78 74 72 67 52 56 63 82 91 96 89 88 79 67 64 63 63 63 65
73 90 74 68 60 61 62 59 61 54 56 55 89 98 96 85 91 92 94 95 92 89 80 76 73 76 78 77 81 78 78 77 74 72 66 47 46 64 82 80 72 79 74 62 58 55 50 48 52
89 83 77 52 44 44 66 65 66 62 64 44 56 52 82 100 92 97 98 98 94 89 88 84 74 82 83 76 81 79 80 81 77 75 73 67 45 46 59 66 73 78 86 78 67 59 52 47 48
90 83 62 51 44 55 71 63 61 67 63 62 72 62 54 96 98 99 96 92 90 89 87 83 80 86 82 78 78 79 82 85 83 80 76 76 71 49 48 54 60 60 76 83 77 67 54 42 41
89 74 61 52 49 64 69 59 65 67 64 64 56 52 55 84 99 96 96 91 89 85 82 81 84 84 80 78 78 81 84 88 88 86 81 78 78 70 51 49 54 62 68 73 73 73 75 60 44
82 72 61 66 62 59 59 69 72 79 62 59 52 50 79 91 95 95 90 85 85 83 80 79 82 81 80 79 80 83 84 84 84 87 87 84 81 77 60 48 52 59 66 68 70 69 69 73 69
68 64 65 68 66 68 68 78 71 50 47 53 52 55 61 93 94 93 91 86 84 79 76 75 76 77 78 79 79 78 78 79 81 83 84 86 84 81 77 70 65 65 65 70 74 75 74 67 72
68 68 86 88 78 84 64 80 90 60 53 63 64 60 47 55 82 87 86 83 81 78 74 76 75 75 77 75 73 72 72 76 75 67 62 71 80 82 80 79 78 70 70 73 75 76 77 72 67
84 81 87 86 83 73 61 79 60 67 82 74 64 57 48 37 41 69 73 79 79 77 73 72 72 73 74 76 72 71 71 72 69 67 65 69 70 72 79 80 79 77 76 75 75 74 76 75 73
78 94 86 94 80 89 69 76 61 77 84 74 55 53 52 39 33 30 54 72 73 75 78 77 77 75 71 74 76 74 73 72 72 72 73 71 72 71 74 76 77 79 82 82 76 74 76 77 76
89 89 80 82 85 85 79 56 59 74 70 60 48 50 55 44 37 29 26 26 60 69 73 78 80 82 81 78 78 78 76 74 76 74 73 73 73 72 72 73 73 76 80 81 80 76 75 78 79
76 70 78 61 60 69 88 72 50 73 67 58 46 50 49 44 35 29 26 25 25 45 63 67 79 80 82 84 88 89 86 82 78 74 75 79 82 82 81 74 73 74 75 73 73 77 79 82 84
69 74 73 54 57 68 64 70 52 51 63 56 47 51 44 41 35 33 32 33 32 30 36 51 64 72 79 87 88 90 87 88 86 84 85 86 88 89 90 90 89 84 81 80 79 81 87 88 88
68 75 68 68 60 51 62 65 58 47 47 45 43 45 42 42 41 42 43 39 38 38 37 37 38 38 38 45 61 73 80 86 90 93 94 93 94 96 99 99 97 96 96 92 86 84 86 96 93
73 59 57 66 69 86 54 91 62 52 49 49 45 42 46 44 40 43 49 51 44 43 44 42 40 38 35 34 34 34 34 36 38 38 42 45 43 46 63 83 90 92 95 100 95 92 93 96 100
62 54 55 62 73 65 60 76 65 48 59 45 39 43 47 48 41 45 51 50 52 52 51 48 45 43 43 42 41 42 43 45 46 45 42 39 38 39 40 43 48 54 60 68 86 98 98 94 99
60 62 67 73 74 92 72 76 68 53 43 37 36 40 40 48 43 46 50 56 64 60 55 54 52 54 54 54 53 52 52 52 52 52 51 50 49 50 53 56 61 64 68 89 94 99 100 99 98
55 68 97 94 96 92 70 77 53 42 37 34 32 30 36 46 48 65 76 75 68 62 60 58 57 59 60 59 59 58 58 58 58 60 62 63 64 66 65 65 69 74 82 92 99 98 98 100 100
63 63 88 86 97 82 70 85 62 41 39 38 36 37 38 48 67 68 79 73 67 63 62 60 60 61 62 61 61 62 62 63 67 73 78 80 78 77 77 77 76 74 78 85 98 100 100 100 99
80 77 56 80 76 90 76 66 45 40 39 40 40 43 51 64 80 84 82 73 71 69 66 64 64 65 66 64 64 65 68 72 81 86 84 82 78 76 76 79 81 81 80 84 94 98 98 100 100
73 69 81 91 89 88 72 69 58 41 40 38 42 51 58 72 82 84 84 79 74 70 69 68 68 67 68 67 68 72 83 89 90 89 87 84 80 77 78 82 85 86 86 88 96 100 98 91 98
90 96 85 77 82 86 82 69 50 43 37 40 43 52 62 71 83 84 86 81 76 75 72 70 70 70 70 70 72 76 83 86 85 85 84 82 80 78 79 84 86 85 87 91 92 93 96 99 99
79 86 81 91 87 92 88 65 41 40 44 44 50 54 60 66 80 82 88 85 84 81 79 76 75 74 74 73 75 78 82 85 84 83 82 81 80 80 80 83 85 86 88 90 91 92 93 92 91

GFSSGP_925_rhum_057.txt.gz
RH
81 54 51 39 42 48 44 39 40 33 25 26 28 29 31 44 38 31 87 87 74 85 96 91 84 85 87 86 86 86 88 90 91 84 82 69 85 95 94 96 94 84 88 92 93 96 97 97 90
68 55 42 52 50 49 42 44 39 35 28 30 37 46 52 56 72 93 94 96 77 96 97 96 83 84 83 83 84 85 89 87 77 77 80 75 86 96 98 97 92 82 86 88 90 93 94 88 76
56 58 49 53 59 48 37 43 43 38 35 29 37 58 63 69 79 89 85 96 98 97 96 90 83 79 82 81 82 86 87 74 72 70 66 79 84 93 98 95 80 73 83 90 90 86 86 80 78
60 48 49 52 61 49 40 45 44 39 27 26 45 59 68 79 80 84 95 100 98 96 92 83 80 82 81 82 84 87 78 68 67 60 82 90 87 98 90 87 73 51 58 76 72 77 78 78 75
55 53 61 65 56 52 47 45 49 46 32 29 48 60 75 85 81 91 100 99 98 95 90 91 81 82 81 83 88 83 72 70 66 54 87 86 89 89 86 87 77 63 66 72 65 70 71 73 74
73 60 66 66 60 55 52 50 43 52 41 32 62 73 78 95 99 99 100 98 96 93 95 95 86 82 80 81 88 78 72 67 65 50 78 84 84 81 84 88 82 79 62 80 76 68 70 75 75
71 73 70 65 60 58 51 51 55 54 41 42 60 72 79 90 99 99 100 97 99 98 95 96 91 80 81 84 88 77 73 72 67 42 81 82 80 80 83 94 88 84 59 65 68 68 69 74 75
82 66 71 68 62 58 53 54 56 52 49 46 80 88 82 83 100 100 100 94 86 89 89 88 86 82 89 92 81 75 76 75 72 60 49 85 84 86 87 99 84 77 62 58 57 58 57 56 60
80 86 74 70 61 59 59 54 58 52 50 51 61 67 77 99 100 100 100 100 98 94 92 90 88 85 81 85 82 80 81 77 75 68 54 47 64 83 89 91 82 71 67 66 63 61 56 55 56
78 88 71 52 48 62 64 58 62 53 48 49 56 49 48 91 100 100 100 98 100 100 95 91 85 82 83 82 85 78 78 80 77 74 72 61 43 47 58 64 67 74 81 71 67 62 54 49 49
93 76 58 53 52 59 63 61 59 56 56 63 64 55 50 58 93 100 97 95 94 91 85 83 81 85 84 84 86 78 78 82 81 78 76 74 66 47 50 58 63 70 72 81 75 70 60 47 43
83 81 61 53 49 62 58 56 59 62 51 58 56 51 54 64 77 95 99 95 88 84 86 89 83 86 91 84 80 80 81 82 84 83 81 78 77 71 55 46 50 54 59 68 73 74 75 72 55
81 75 68 62 60 58 54 66 61 62 59 56 50 53 53 58 80 90 96 99 89 88 86 84 83 87 87 82 80 81 82 84 85 88 88 84 80 77 73 53 48 52 61 64 68 72 72 69 74
76 68 70 71 62 64 62 66 66 50 51 52 55 56 54 48 69 93 95 98 96 87 84 83 81 83 85 82 80 80 82 84 85 84 84 86 85 82 79 74 61 55 57 63 71 76 77 77 72
72 74 84 82 72 74 62 72 69 59 58 64 61 58 53 49 43 84 90 95 94 87 82 80 78 81 80 78 77 78 76 78 80 80 82 84 82 80 81 80 78 76 71 73 75 76 78 79 78
79 78 86 83 82 78 58 62 54 66 61 59 66 59 51 45 42 34 62 83 90 89 79 77 78 79 78 75 74 74 73 72 73 75 75 69 68 74 77 81 79 78 82 82 79 78 78 78 79
85 90 84 95 79 79 73 71 53 65 62 53 45 56 49 45 42 35 30 69 80 83 81 80 81 80 77 76 76 76 75 75 72 73 71 72 73 74 76 76 76 78 81 82 83 83 81 79 77
92 92 82 90 89 84 78 61 66 71 63 54 49 52 47 45 42 37 29 27 41 77 81 82 81 79 79 78 79 82 82 80 76 74 73 73 74 75 78 78 78 78 80 80 81 84 82 81 81
70 79 75 65 81 83 82 72 58 73 71 63 58 56 48 46 40 36 32 27 25 36 76 75 79 81 85 85 84 82 80 76 74 73 74 75 75 76 80 83 82 80 78 76 78 84 85 85 82
67 76 78 58 76 76 82 82 64 63 70 55 54 44 44 44 38 34 30 28 25 28 43 64 71 79 82 84 86 89 86 86 86 86 85 86 87 89 93 94 93 91 90 88 83 84 96 92 86
71 70 74 67 70 58 70 70 63 57 63 58 55 47 42 40 40 35 35 33 33 34 35 43 54 70 78 84 92 94 96 95 93 94 95 96 97 98 99 100 100 99 100 99 99 98 97 100 93
75 61 61 71 72 87 59 79 66 54 55 54 53 48 46 45 40 38 38 39 40 41 42 41 42 42 41 43 50 54 58 53 48 46 50 56 58 52 54 70 91 100 100 99 99 100 100 100 100
66 58 62 67 71 67 64 77 65 54 58 50 45 42 41 41 41 37 40 37 43 50 52 48 44 42 40 39 38 38 38 39 41 43 43 44 45 44 43 44 48 52 58 72 96 97 99 99 100
61 62 66 72 70 81 68 75 67 54 46 44 43 38 39 38 39 38 37 43 52 59 57 54 50 50 49 48 47 48 48 50 51 52 51 51 54 59 65 67 69 72 72 80 97 99 97 98 100
56 66 93 87 88 83 70 76 55 45 36 35 33 31 32 39 46 42 55 66 69 63 60 58 54 55 55 53 53 53 54 55 56 58 60 62 64 65 66 66 66 68 74 83 100 98 98 96 97
61 60 83 86 91 81 70 79 52 47 40 39 38 37 38 36 43 49 56 67 74 65 63 62 60 60 59 58 57 57 56 57 59 64 71 76 77 77 75 73 73 73 72 75 89 98 96 99 100
72 74 56 78 78 79 68 60 44 40 34 32 35 39 38 42 48 56 73 77 72 70 67 63 62 62 62 62 62 62 63 65 70 80 83 82 78 75 72 72 72 74 77 79 92 96 92 99 100
68 64 78 86 87 83 68 63 48 36 32 34 33 34 40 51 69 79 78 80 74 69 68 67 65 64 63 63 64 66 74 81 87 91 89 84 80 78 77 79 81 82 83 86 98 99 95 92 92
81 89 84 72 74 78 75 57 47 43 34 37 39 40 48 63 78 80 82 82 78 75 71 70 69 68 68 68 68 72 78 84 88 90 87 83 80 78 79 82 85 84 86 90 92 97 99 98 95
74 79 74 82 84 88 81 70 40 40 39 43 41 50 55 67 78 79 84 86 83 79 75 73 72 71 70 71 74 77 83 85 85 84 83 82 81 80 80 83 85 86 88 92 93 92 93 93 92

GFSSGP_925_rhum_060.txt.gz
RH
74 61 47 40 29 25 23 22 25 24 20 18 20 18 22 27 22 30 68 67 56 64 74 89 84 80 85 87 90 89 88 90 88 85 80 90 98 92 97 91 85 88 91 92 94 95 97 96 93
72 50 42 38 29 29 22 21 24 23 23 23 30 31 27 28 46 68 66 80 64 66 71 78 84 81 85 87 86 86 89 84 69 79 74 83 97 98 97 91 84 88 91 94 97 99 96 83 73
62 51 35 33 26 26 20 26 26 26 25 28 29 38 39 45 54 60 67 78 65 68 69 76 80 82 84 83 85 88 84 68 64 70 65 86 97 96 98 89 82 91 94 92 95 89 76 72 72
49 41 36 34 27 22 22 31 33 26 20 23 25 38 51 65 58 64 73 71 67 68 68 84 82 81 84 82 85 86 73 63 57 53 69 84 95 96 85 75 55 79 91 94 89 76 71 70 70
49 36 36 35 26 24 30 33 33 28 22 25 31 41 54 70 80 76 76 81 65 66 68 88 81 84 82 83 85 80 67 65 47 82 88 79 95 86 81 78 66 74 82 78 80 77 72 72 70
47 34 38 37 32 37 36 36 33 28 24 33 38 42 58 82 91 90 91 71 68 68 71 86 86 86 82 87 87 74 68 62 56 84 80 77 92 82 83 84 84 64 82 76 65 69 70 70 69
46 42 38 31 31 43 41 40 34 29 28 40 46 46 63 78 100 98 88 66 71 72 73 80 88 91 82 86 86 73 68 68 51 84 81 80 82 76 81 89 85 70 68 68 63 59 58 64 66
38 39 46 37 39 39 44 47 46 31 44 48 56 77 68 66 98 98 96 81 82 81 79 78 86 84 85 97 85 74 73 72 60 70 81 80 81 82 85 97 86 77 58 61 64 62 60 61 63
43 64 61 50 37 45 46 45 48 41 42 43 43 45 45 93 99 99 96 93 87 79 84 78 78 77 77 89 87 78 77 76 72 55 54 75 70 80 87 88 83 78 68 62 62 62 57 55 57
65 73 54 37 34 46 51 40 45 41 40 45 39 36 50 98 99 93 91 86 83 74 78 81 80 81 79 81 86 82 80 84 81 78 73 60 61 66 72 80 75 70 73 67 65 60 54 53 57
60 69 43 36 44 42 47 50 47 38 43 41 45 40 37 59 90 92 77 73 73 69 74 78 82 79 79 79 85 82 80 81 82 81 78 72 68 65 67 69 73 78 77 79 79 79 68 60 51
73 48 42 38 44 45 45 46 49 45 40 43 42 40 37 43 59 84 84 76 70 72 73 78 80 82 78 77 81 82 78 76 79 83 82 79 76 78 68 60 66 71 68 71 76 71 73 74 67
80 53 50 38 45 43 41 48 45 44 35 42 40 40 37 37 45 66 85 86 82 76 74 78 81 80 80 82 77 77 74 79 78 83 86 81 80 81 76 67 60 61 65 67 69 72 70 69 67
56 59 57 51 56 45 48 43 54 34 36 41 41 39 38 38 39 54 75 83 85 84 78 81 83 82 84 86 83 78 74 76 78 80 84 86 81 81 80 75 71 63 65 67 72 75 76 75 75
47 62 62 72 59 58 47 56 55 32 34 42 39 36 39 37 37 34 57 75 78 86 90 81 81 82 81 83 83 76 77 78 78 80 85 87 85 81 80 76 74 74 72 72 74 77 80 79 78
51 54 72 61 62 55 65 56 40 34 44 40 35 34 37 36 36 35 32 65 76 81 88 87 84 84 81 76 78 76 76 76 76 77 80 86 84 84 82 78 78 77 78 80 79 78 77 77 75
58 49 52 61 52 58 57 45 41 43 48 39 34 29 29 31 34 34 31 39 68 80 84 88 88 84 84 82 80 80 80 79 75 77 78 80 81 81 83 81 80 81 83 82 82 80 80 77 74
54 45 42 51 66 58 62 56 43 46 44 32 30 28 27 31 33 33 31 28 48 71 81 87 90 91 89 88 85 84 83 81 77 77 76 77 79 83 84 84 83 82 83 83 81 83 80 81 78
35 43 48 43 59 65 63 61 53 42 52 43 33 29 28 31 30 36 34 30 28 33 73 79 88 90 91 93 89 88 83 83 86 83 87 85 82 82 85 85 84 87 87 82 81 80 82 81 81
44 44 46 52 60 60 56 60 50 43 48 49 38 29 28 30 32 35 34 32 30 28 41 72 79 80 85 83 83 82 83 82 80 86 90 88 89 89 90 91 91 92 91 88 87 88 88 88 89
46 46 55 49 70 58 57 58 52 47 42 42 40 31 25 28 30 31 32 32 37 37 38 46 65 84 86 86 90 92 90 90 93 97 98 100 97 99 100 100 99 100 100 99 97 99 99 98 94
64 44 51 64 55 51 48 36 34 36 44 44 40 38 34 35 36 33 32 32 37 43 43 46 45 58 68 79 81 81 78 76 69 72 71 72 76 76 71 80 95 99 99 99 99 99 100 100 99
55 48 47 51 41 45 51 47 27 35 36 34 34 33 35 34 34 33 32 33 38 49 46 50 53 52 48 48 49 50 48 46 48 46 46 47 44 43 43 45 51 65 83 78 91 100 99 100 100
48 50 49 47 45 64 40 45 32 31 30 26 29 30 31 30 30 29 29 33 40 58 47 52 56 57 47 46 46 50 50 49 51 55 54 58 63 68 58 60 64 68 82 92 92 95 98 99 99
45 47 72 69 78 57 52 54 30 31 29 27 26 24 25 26 27 29 29 36 41 60 63 64 59 59 59 58 57 56 57 58 59 60 60 63 64 76 85 67 70 73 71 76 95 99 100 100 96
54 40 53 60 55 45 54 52 31 29 29 27 26 24 24 25 23 30 33 34 44 59 62 60 58 60 61 61 61 62 61 64 64 71 73 75 77 83 79 74 73 77 76 84 94 97 98 92 93
59 65 42 57 55 56 38 41 31 26 28 24 22 22 22 24 25 27 38 39 45 58 62 59 59 59 62 63 64 66 70 71 72 81 82 86 81 79 76 72 74 74 75 82 97 98 96 96 100
52 45 60 70 75 56 42 40 25 28 26 24 23 24 25 26 31 34 37 52 55 58 61 60 59 60 65 66 66 70 76 78 83 88 86 84 81 78 76 76 76 78 79 85 99 97 94 96 96
63 63 60 49 54 56 43 29 26 27 26 27 26 28 33 34 38 48 52 60 65 68 67 64 64 66 66 68 70 73 76 81 86 86 87 84 82 78 78 78 81 82 85 91 98 99 95 92 94
54 53 48 57 70 60 55 42 27 27 28 29 30 31 35 43 50 55 59 63 67 68 68 67 66 65 67 69 71 74 79 82 82 82 85 84 83 82 82 82 84 86 87 90 91 92 93 91 91

GFSSGP_925_rhum_063.txt.gz
RH
81 58 41 39 38 23 24 22 16 23 19 14 16 18 25 27 24 47 43 42 51 59 77 91 82 82 83 87 90 88 89 89 92 78 93 94 93 96 88 85 90 86 85 82 80 87 96 96 88
60 45 38 28 37 25 20 16 21 18 17 18 20 24 22 36 39 51 47 46 48 58 75 80 83 84 87 89 90 87 86 80 77 74 89 98 97 97 89 84 89 92 94 95 93 97 92 85 79
69 42 31 28 28 26 18 14 18 18 20 24 19 25 29 46 45 44 49 49 47 56 65 84 82 82 87 87 85 84 81 66 64 63 83 98 96 88 90 88 93 94 95 97 96 91 86 75 73
49 34 32 34 29 21 15 17 15 20 18 21 21 27 48 58 48 50 54 48 48 53 58 79 82 84 86 82 82 84 71 64 55 51 77 95 95 92 77 70 85 96 97 96 94 87 78 71 72
58 33 35 35 28 19 15 20 23 18 16 22 23 32 51 73 66 59 55 48 49 50 66 81 83 84 84 83 84 78 62 58 47 64 64 89 96 82 78 61 74 83 92 93 92 77 70 67 66
49 38 41 36 28 19 19 26 24 18 17 26 28 32 65 83 77 67 63 49 50 51 67 82 85 83 82 86 83 70 64 49 80 81 70 86 88 74 80 76 63 80 79 73 67 65 66 67 64
50 44 48 31 27 25 29 31 28 19 18 32 35 33 68 77 97 89 66 50 50 52 64 76 87 91 84 87 82 70 61 51 85 87 78 88 78 74 81 81 75 62 69 65 61 59 61 64 64
44 38 44 34 30 32 28 38 36 26 27 43 43 49 67 62 95 84 70 50 52 53 76 69 80 84 88 96 80 72 71 53 81 87 84 83 80 80 85 88 79 64 57 58 55 55 54 54 57
42 77 58 42 32 32 34 40 41 35 36 39 38 40 43 85 94 91 75 69 66 60 77 77 75 75 79 83 82 74 76 71 55 80 79 72 70 79 75 92 82 74 61 60 58 55 50 48 50
76 83 63 37 27 36 38 32 40 38 40 38 36 39 72 90 98 83 77 79 70 77 70 80 78 78 78 85 88 83 80 80 76 65 58 57 55 61 64 81 75 69 68 60 59 55 51 46 53
62 64 49 36 39 36 41 39 35 36 43 37 40 36 46 82 88 85 81 70 64 68 74 75 78 77 79 84 81 87 74 80 72 68 66 53 52 60 60 66 73 78 65 81 69 70 68 54 49
76 46 40 50 44 39 42 39 39 35 38 36 34 33 34 55 73 80 76 67 58 57 65 66 74 76 78 77 81 84 73 74 67 68 68 65 64 66 55 53 56 63 65 62 65 61 61 64 62
68 56 39 43 43 38 40 43 38 38 34 36 36 34 32 38 52 71 78 80 72 65 63 63 68 71 67 69 76 78 71 63 62 66 71 68 67 71 66 56 50 51 52 55 57 60 58 60 58
55 74 57 48 52 42 47 45 41 34 30 34 35 34 32 33 36 54 70 79 77 72 66 65 67 69 62 72 72 69 58 58 59 62 68 72 68 69 69 64 61 53 52 55 57 61 65 66 64
46 76 78 52 62 40 43 56 56 35 26 34 34 31 33 31 32 35 50 65 71 71 70 71 72 72 72 76 77 73 60 59 59 61 66 70 71 68 67 64 63 64 61 59 60 64 67 68 68
51 62 97 56 57 48 48 52 43 36 34 32 32 30 28 30 30 32 32 54 65 66 73 73 72 71 67 69 74 66 61 61 62 62 65 71 72 71 71 68 68 69 68 70 69 68 68 68 67
56 58 91 78 48 47 51 48 37 45 38 38 32 29 26 26 29 31 32 30 56 64 70 76 78 78 74 67 66 67 68 67 63 63 66 70 72 71 74 72 71 71 73 72 73 71 69 68 66
50 42 40 65 55 51 54 46 42 36 36 35 31 28 26 24 25 28 31 27 43 60 66 73 80 80 80 79 75 74 71 70 69 65 66 68 69 71 73 72 72 72 72 74 73 73 73 74 73
28 31 27 34 43 54 62 60 51 33 37 38 29 26 25 23 22 30 32 30 28 48 62 70 79 84 83 86 83 80 78 76 73 69 71 73 72 73 76 78 75 75 77 75 73 73 73 75 78
27 33 35 31 52 50 49 54 40 35 36 35 33 30 25 22 22 31 33 30 28 27 48 64 71 80 82 84 87 82 80 75 71 75 78 79 79 81 81 81 80 78 80 81 78 76 77 79 79
30 35 41 46 44 49 42 42 40 37 35 32 34 32 26 22 24 26 31 32 33 30 29 48 65 71 75 81 81 82 84 87 87 83 85 87 90 91 92 91 91 92 92 90 88 89 90 95 89
42 29 30 37 54 54 41 40 34 31 34 38 35 33 32 28 26 31 29 30 34 35 40 38 46 64 77 82 83 86 81 76 72 71 80 89 80 80 79 85 95 99 99 99 99 99 99 100 99
40 32 39 48 48 34 47 44 24 21 29 31 32 31 30 31 27 31 32 31 31 38 48 46 47 49 56 65 77 78 77 70 61 55 54 51 55 49 51 50 58 62 70 81 86 91 94 93 94
40 46 46 44 38 60 38 35 24 24 24 19 20 22 24 25 28 29 31 30 32 45 52 53 50 50 52 52 53 53 50 46 49 50 50 50 54 64 69 60 66 72 77 85 87 88 91 94 95
37 45 64 62 70 57 37 34 26 24 23 22 22 22 21 21 23 24 27 28 32 49 60 54 51 54 53 51 49 48 50 49 49 52 53 52 53 62 73 76 76 78 81 80 85 90 92 93 94
41 34 48 54 51 41 41 45 27 21 20 22 21 20 20 20 19 21 24 31 33 45 58 58 53 52 52 52 50 54 57 56 56 60 60 61 63 66 77 78 77 77 78 78 84 87 89 90 93
52 61 38 47 37 40 36 28 25 24 24 22 20 19 19 18 19 21 25 31 30 39 53 55 52 53 55 54 55 55 58 61 61 68 72 72 76 76 75 77 75 76 73 80 86 91 84 95 100
48 37 50 59 65 42 36 30 23 24 24 22 23 26 26 26 26 25 25 29 35 40 51 52 50 51 55 57 57 60 65 71 73 74 74 75 74 77 77 79 80 82 83 87 91 94 94 92 97
56 58 50 43 48 53 34 26 22 22 24 25 26 28 29 30 31 34 35 37 45 50 54 53 52 54 58 58 60 63 66 71 74 74 76 76 76 77 77 79 80 81 82 84 90 98 93 88 92
45 44 41 51 63 45 49 38 21 22 24 25 27 28 26 28 36 39 42 45 51 56 58 57 56 58 58 59 60 62 66 70 71 71 76 76 76 78 79 80 80 80 83 84 84 87 89 90 89

GFSSGP_925_rhum_066.txt.gz
RH
61 67 52 45 62 47 40 28 22 35 25 19 17 22 34 51 58 72 42 52 75 85 86 78 76 81 86 87 88 87 86 82 71 96 97 94 95 84 84 93 85 82 82 85 86 91 95 92 78
75 57 38 53 51 48 32 21 23 28 21 19 21 24 34 63 48 47 49 55 69 84 86 89 83 86 88 89 87 85 82 68 68 97 97 96 92 84 88 90 93 92 85 85 92 96 93 84 72
80 62 48 51 49 45 32 19 22 19 22 22 20 31 54 71 48 46 46 52 65 80 84 88 84 86 88 86 82 82 68 62 62 92 96 94 94 86 88 92 95 97 98 96 97 92 76 75 68
61 50 46 47 40 31 26 16 18 22 20 21 25 60 65 80 67 58 48 50 65 70 76 78 85 87 88 84 84 76 67 58 55 84 94 94 86 75 85 92 95 94 94 95 84 68 64 66 58
68 51 56 52 42 26 19 20 22 23 21 22 26 45 74 76 70 57 49 48 57 75 80 76 84 88 86 85 84 73 61 51 49 75 92 90 82 73 51 68 70 77 73 68 67 67 66 65 65
78 56 54 52 41 27 20 26 24 24 18 25 27 31 91 82 77 59 49 46 54 76 84 76 83 85 84 87 82 67 54 69 77 64 82 96 78 76 65 63 76 69 68 65 63 63 65 62 62
80 60 65 46 37 30 31 30 28 25 20 35 40 48 91 87 81 60 53 47 56 72 80 90 87 84 83 86 75 64 53 87 85 69 82 81 76 76 75 63 60 66 58 51 50 56 60 60 59
68 66 56 56 40 32 35 36 42 36 47 42 42 68 88 84 74 65 67 50 52 68 70 78 89 87 89 88 72 66 51 84 85 81 90 84 78 76 78 75 63 51 52 52 50 50 50 50 52
60 80 67 56 45 35 38 44 41 37 42 41 41 53 78 93 82 78 75 50 69 70 65 79 83 86 88 89 75 72 62 55 84 85 84 80 78 79 76 91 73 58 49 50 50 49 46 44 46
81 82 67 45 38 44 39 39 43 42 45 45 55 70 82 94 91 88 73 69 68 73 65 72 79 77 86 77 74 72 75 64 54 68 73 56 74 77 79 80 75 61 55 48 49 47 43 48 52
73 73 62 49 52 40 40 39 36 44 48 42 46 62 80 94 90 84 74 71 67 72 71 79 76 71 84 84 76 75 72 78 70 64 49 55 54 61 68 63 54 52 54 52 64 61 61 56 51
86 59 48 54 55 45 42 38 40 43 47 38 37 39 68 86 86 83 79 69 64 71 78 73 74 74 81 87 84 76 72 70 70 69 66 58 55 56 53 61 60 66 73 69 73 67 65 64 64
84 56 49 50 65 45 40 45 43 46 43 39 36 34 42 64 76 80 80 78 70 69 69 71 77 74 74 77 82 80 69 69 69 66 69 68 66 68 64 55 53 57 58 57 60 62 60 59 60
65 63 51 65 70 68 46 46 43 38 35 38 38 36 36 42 52 74 78 79 75 70 71 72 71 76 74 72 70 78 64 68 61 65 69 70 69 70 71 63 56 50 51 54 56 57 63 66 65
58 75 77 74 77 55 43 51 54 40 34 36 40 37 36 36 36 50 71 76 76 72 72 69 70 64 63 65 72 71 70 59 59 60 65 70 70 69 68 66 64 64 59 56 57 61 64 66 68
59 70 90 64 77 77 54 72 48 37 38 43 38 37 35 36 32 34 38 68 74 71 71 70 71 74 74 69 74 67 61 59 60 60 63 68 71 71 69 68 66 67 67 67 67 67 68 69 69
63 89 83 77 69 84 74 62 45 41 52 47 41 35 34 32 33 32 32 44 63 65 70 73 73 74 71 70 72 72 69 63 61 62 63 68 72 72 72 73 71 71 72 71 72 73 72 71 69
65 79 81 77 73 91 80 57 51 49 49 49 40 35 34 33 33 31 32 30 50 63 68 74 76 76 72 67 68 67 66 66 66 64 65 67 72 73 72 73 73 72 70 70 72 73 72 74 75
48 53 92 79 71 88 75 59 44 46 50 50 41 37 35 33 26 31 31 27 34 58 64 72 79 80 79 78 75 75 73 72 70 68 66 67 69 70 72 75 74 72 72 72 72 74 73 69 68
39 44 48 66 62 67 58 63 53 46 47 41 42 38 32 30 26 37 32 30 28 38 62 67 77 83 82 83 82 80 80 78 76 73 70 72 73 75 76 78 79 76 76 75 78 80 81 77 75
33 35 48 76 68 85 59 64 54 46 44 36 37 37 33 32 28 41 37 31 27 27 34 65 72 79 84 84 86 84 82 82 79 78 79 80 81 80 81 82 82 82 80 81 83 85 88 87 85
43 31 44 54 62 75 50 59 51 41 41 40 42 40 39 36 32 37 37 36 33 29 28 31 62 73 79 82 84 86 85 84 81 78 80 82 87 88 88 90 92 93 90 88 89 88 88 95 100
39 31 43 51 54 46 58 61 37 34 40 44 43 40 39 38 34 33 38 34 35 35 32 31 40 65 76 82 81 84 85 79 74 71 82 82 76 61 56 55 53 59 65 73 84 86 91 89 90
40 45 50 52 57 82 49 53 41 35 32 29 39 40 36 37 36 35 34 32 32 35 40 38 38 43 58 74 83 83 80 75 60 57 53 49 50 53 53 52 53 60 66 72 80 87 89 90 93
48 55 86 87 88 76 42 48 38 29 24 25 27 28 26 28 33 36 41 39 37 40 45 49 47 46 46 48 55 57 54 51 47 48 49 51 53 57 62 66 64 70 75 76 74 74 82 92 91
59 48 77 63 81 65 40 52 37 28 25 25 24 21 21 22 24 23 26 36 41 39 45 54 51 49 48 49 48 48 49 50 51 53 54 56 57 62 71 73 69 71 73 71 72 78 82 92 90
52 70 43 60 37 73 54 35 28 29 28 26 24 28 34 32 28 25 28 29 32 51 56 55 52 51 51 51 50 51 52 52 55 57 59 65 68 69 70 68 69 70 70 70 74 80 91 91 95
61 44 62 84 70 50 43 37 39 36 29 29 34 38 37 36 35 34 32 32 32 39 52 54 53 54 53 53 53 55 55 56 59 64 67 72 73 70 68 72 73 72 72 73 78 90 91 88 91
62 82 55 53 69 84 57 44 27 30 31 35 38 34 34 37 41 44 43 37 38 47 52 54 52 54 56 57 57 62 66 62 59 66 72 73 73 72 73 74 74 75 74 77 82 94 95 90 86
63 48 48 76 73 64 68 54 23 32 31 26 34 29 32 34 42 45 45 45 50 52 55 54 52 56 58 58 59 63 63 65 67 70 73 74 74 76 76 77 76 77 78 79 83 87 89 89 88

GFSSGP_925_rhum_069.txt.gz
RH
49 51 76 57 66 68 62 38 25 41 42 31 20 31 70 72 70 67 68 75 76 73 75 79 81 85 85 87 87 84 79 77 97 94 94 86 84 90 84 85 96 96 93 91 89 92 90 54 60
47 66 68 61 66 68 51 32 29 30 29 25 36 44 58 70 51 56 88 84 75 71 73 84 83 85 87 88 85 83 75 82 90 90 97 88 87 90 92 87 86 82 80 90 93 94 67 43 67
59 82 59 72 64 64 50 25 26 26 23 23 36 40 68 77 61 62 81 89 75 77 76 82 84 86 88 87 83 71 63 76 94 88 91 90 88 90 92 92 95 86 92 92 93 68 58 43 66
73 78 80 65 61 47 35 26 22 30 25 23 37 55 80 89 77 60 79 79 78 86 79 85 86 89 87 84 80 59 60 64 93 91 91 91 87 92 94 96 94 94 96 94 72 62 56 46 48
74 90 86 77 64 35 31 23 24 24 25 25 43 70 70 87 64 58 75 74 82 89 81 85 87 88 84 86 77 64 55 56 90 93 90 81 65 71 82 90 93 95 93 77 67 62 61 53 48
85 88 77 83 62 41 31 22 23 24 22 25 41 74 89 80 53 59 63 73 75 84 80 85 87 85 86 85 71 63 54 51 84 92 90 77 70 46 51 65 77 80 69 64 64 60 58 57 54
92 88 80 55 52 43 35 32 37 37 25 43 38 89 95 92 55 54 68 66 78 78 79 89 90 84 85 81 69 56 79 71 66 86 87 76 73 65 45 59 60 57 53 53 55 56 55 53 52
84 80 73 71 54 47 36 39 42 40 54 43 45 93 99 84 57 58 67 72 80 78 76 86 90 85 86 77 62 57 86 88 72 84 91 80 76 71 64 50 52 53 48 48 47 47 48 47 47
75 89 78 68 62 51 41 44 43 38 48 57 58 70 81 75 68 63 75 81 86 77 82 82 87 87 87 74 67 52 82 84 80 88 88 79 76 71 63 62 54 45 46 46 45 44 42 41 46
92 84 72 50 55 56 45 44 45 49 52 77 94 90 96 92 79 73 82 82 83 84 80 76 80 82 87 75 71 68 49 74 80 82 84 76 81 80 75 76 68 54 42 44 44 43 40 51 51
82 79 65 56 59 54 51 44 42 54 55 51 94 94 93 96 93 82 76 69 68 74 73 76 75 74 82 76 72 72 73 56 53 54 54 67 74 83 76 69 58 52 46 38 58 56 56 54 51
96 68 53 64 58 61 50 44 44 53 49 45 70 85 89 92 92 86 81 82 72 68 70 73 71 70 80 76 70 71 73 75 71 68 52 59 62 56 58 58 61 62 67 64 70 67 67 64 62
83 73 58 50 61 70 62 48 52 55 47 41 41 77 88 85 85 85 78 72 67 71 77 77 72 65 75 81 74 73 70 71 71 69 68 57 60 60 57 58 61 61 62 61 64 66 64 64 61
68 70 66 68 66 78 79 57 50 53 48 45 40 50 73 81 79 82 84 82 78 72 66 75 71 63 66 79 76 70 68 67 68 71 68 68 68 69 64 61 54 53 56 57 57 60 59 64 66
61 83 77 80 72 75 84 75 57 53 45 47 43 42 46 49 78 77 78 81 76 76 68 68 72 69 68 68 71 68 61 65 68 68 64 70 70 70 70 67 64 58 52 53 56 58 62 66 68
70 72 91 86 87 81 76 80 61 56 45 47 48 45 43 43 45 72 69 70 78 75 71 73 72 72 68 72 61 61 61 72 68 62 64 70 70 71 71 69 67 66 67 65 61 61 64 68 70
80 85 83 90 82 83 88 83 55 54 46 49 50 45 42 42 39 40 66 67 67 70 72 70 70 68 69 66 64 62 61 68 62 61 64 67 70 72 70 71 69 68 70 71 71 73 73 74 72
83 85 74 89 84 81 83 84 64 47 56 54 51 47 43 38 40 36 34 61 67 68 69 68 68 71 66 66 70 66 71 68 62 61 63 67 71 73 73 73 75 73 72 69 70 69 68 68 66
56 64 84 68 71 75 87 83 67 59 60 63 60 50 45 38 34 34 34 34 60 66 69 71 75 75 76 74 76 72 72 69 66 64 65 67 69 73 74 73 75 72 69 68 68 70 74 75 68
57 84 86 77 75 70 80 82 73 58 58 62 60 55 45 40 36 36 36 30 39 60 65 63 70 73 73 73 72 72 69 70 70 67 68 68 67 70 72 73 75 73 71 72 73 74 72 68 64
63 71 79 76 74 75 81 90 88 59 51 48 48 45 42 38 37 44 38 30 33 55 66 68 70 68 76 74 74 77 74 76 77 76 74 73 72 74 76 77 77 78 77 75 74 77 74 80 73
62 43 55 73 89 100 83 91 71 54 53 51 47 48 46 42 34 39 39 37 31 35 55 68 73 66 77 79 73 74 81 84 80 78 78 81 81 77 81 82 83 84 84 83 83 83 86 92 94
50 48 63 76 87 65 75 71 48 53 59 54 50 49 48 42 38 43 44 37 30 29 31 46 71 76 72 75 80 74 70 78 74 84 83 85 85 84 89 88 88 83 82 80 74 76 85 89 93
55 56 62 66 65 85 63 61 52 55 50 48 47 49 46 44 42 42 39 36 35 34 33 34 44 73 84 64 77 76 74 85 80 80 84 87 83 73 50 45 47 49 55 64 68 75 82 86 89
53 63 95 88 84 76 45 54 53 33 33 35 47 36 37 40 43 44 47 42 38 36 35 33 35 39 62 79 82 84 84 84 73 68 62 58 51 50 52 55 58 58 60 66 69 69 70 76 89
54 52 79 82 92 70 46 53 38 31 32 28 28 30 32 32 32 33 40 44 44 42 38 39 39 39 40 49 59 72 76 75 66 57 49 50 52 54 60 69 66 64 60 62 64 63 66 75 85
57 74 46 61 53 81 59 42 32 32 32 37 39 42 44 43 40 37 35 34 35 48 49 46 46 47 49 47 49 51 50 49 49 50 50 50 57 60 65 65 65 61 60 62 63 65 72 87 95
58 48 63 83 65 59 62 46 45 38 41 43 45 45 43 43 43 45 45 38 36 35 47 52 49 45 46 50 52 54 51 51 50 55 59 45 55 63 64 62 64 66 67 68 70 73 86 90 92
70 73 61 64 77 83 60 50 32 38 43 48 43 40 42 42 44 47 47 42 42 44 53 58 56 54 54 54 55 57 58 59 60 63 68 68 62 66 67 67 70 72 72 72 74 84 86 89 88
66 62 58 78 73 74 76 56 38 38 42 42 39 40 38 38 43 49 49 48 48 51 58 59 58 56 55 56 57 58 58 60 65 71 75 74 72 70 69 71 73 74 75 75 78 85 87 89 88

GFSSGP_925_rhum_072.txt.gz
RH
76 58 66 70 69 70 66 46 31 39 51 35 29 50 68 71 67 70 93 91 78 92 87 84 87 88 87 88 85 75 84 94 85 92 84 86 86 92 96 97 97 94 91 92 89 87 88 80 78
74 66 76 66 80 75 57 36 31 36 38 33 39 53 69 69 60 98 93 98 74 90 88 87 86 87 86 87 90 74 95 86 88 93 85 89 84 85 90 93 93 96 94 94 82 70 72 79 74
70 76 70 74 82 73 47 32 27 24 31 41 37 55 71 75 72 75 89 99 86 90 88 87 84 86 86 87 88 77 95 83 88 85 88 89 92 86 89 86 88 88 93 91 57 52 75 75 65
71 89 85 72 81 54 38 26 23 27 29 31 31 80 74 92 93 92 98 90 89 91 90 85 85 86 87 84 78 76 93 94 94 84 89 92 91 92 95 94 84 89 94 70 56 46 62 65 61
75 94 91 88 78 44 38 30 24 28 28 30 32 80 82 75 73 92 90 84 83 89 87 86 88 88 85 83 69 77 94 92 92 90 93 92 94 94 96 95 95 96 94 68 57 46 45 54 56
91 89 91 82 69 51 37 26 24 26 24 36 39 68 92 68 61 92 83 80 73 85 89 88 89 86 85 74 69 68 79 92 92 91 86 92 95 95 94 96 99 96 94 70 57 53 48 42 48
94 94 81 71 63 50 40 29 29 27 28 44 51 77 96 93 69 86 76 76 76 82 88 90 90 87 86 71 62 61 64 90 97 86 74 66 49 65 84 90 91 87 66 63 57 53 50 48 46
90 94 77 74 61 52 35 36 43 41 53 45 56 94 95 72 81 66 79 77 78 76 80 91 90 88 87 70 53 56 58 83 90 92 76 74 64 47 56 60 57 52 50 50 50 49 48 47 46
78 93 79 72 61 49 38 44 45 44 58 84 84 78 66 67 88 80 80 79 80 95 85 87 89 90 83 67 57 81 81 70 89 100 79 77 70 65 52 47 52 52 50 48 47 44 42 41 41
95 90 79 54 57 55 53 48 45 54 73 93 97 92 72 75 80 92 84 91 79 90 96 87 86 89 81 66 57 83 84 76 83 95 81 79 75 71 62 60 53 44 45 44 44 43 41 48 48
77 86 63 52 60 57 62 53 45 59 60 84 89 88 85 92 89 88 86 79 73 81 79 87 79 84 81 72 64 54 81 80 81 89 84 78 80 79 74 71 60 53 46 44 45 46 46 51 48
92 69 63 61 55 57 71 64 58 54 51 62 83 87 85 89 92 84 85 79 65 63 78 75 79 76 81 73 72 72 54 62 70 77 74 74 74 79 74 65 59 46 46 44 66 67 65 64 63
88 76 68 57 61 70 67 74 66 56 49 70 86 87 94 91 92 86 81 84 86 85 81 75 74 81 74 74 71 71 71 67 68 61 50 60 63 62 60 60 63 62 68 63 68 67 68 66 63
76 72 72 70 63 77 76 74 68 56 49 61 84 90 93 90 91 91 85 90 86 77 79 66 71 71 72 76 72 72 69 69 72 71 67 61 58 60 57 58 60 60 61 62 61 62 64 63 66
67 83 79 77 73 71 81 84 70 63 51 49 62 76 83 87 82 88 88 78 77 74 70 73 73 70 72 73 74 73 64 69 73 74 71 65 69 69 70 64 61 55 54 55 59 59 60 65 70
75 77 87 72 76 78 85 85 69 63 58 58 51 55 60 71 77 76 83 80 73 70 68 66 68 70 74 76 74 67 65 64 69 71 74 68 70 71 72 69 67 64 60 56 56 58 62 65 68
87 85 84 89 76 95 73 86 67 64 56 54 53 50 48 49 59 76 73 74 78 68 68 70 70 70 74 76 68 65 65 68 67 69 69 70 69 72 72 71 70 68 68 68 67 69 72 73 72
80 89 75 94 93 87 87 86 84 68 60 58 54 53 49 43 47 56 68 73 71 72 72 70 66 68 71 68 68 67 62 72 71 66 64 62 68 71 72 72 72 71 71 73 71 68 68 66 68
84 79 77 89 84 81 89 80 80 75 63 62 60 53 49 47 38 37 45 64 71 71 67 66 74 70 69 68 65 71 71 75 66 62 66 67 69 71 74 74 73 76 74 69 68 69 71 72 65
85 74 88 72 86 80 89 83 80 83 70 63 58 60 53 47 42 36 38 42 71 64 68 69 65 67 70 70 69 69 72 74 71 59 64 65 68 65 70 75 74 75 74 69 71 74 76 75 67
93 73 87 90 79 81 80 87 85 71 61 60 56 59 56 51 45 44 44 38 40 72 64 59 62 65 68 72 69 77 77 76 73 70 68 69 66 68 70 70 74 75 74 72 74 73 77 79 72
98 69 68 88 94 96 72 91 83 64 63 58 55 56 56 52 44 40 44 42 35 43 67 64 59 61 63 67 78 76 76 81 74 70 68 72 77 74 72 76 74 77 76 79 79 79 86 89 90
56 62 64 76 98 97 96 86 56 60 67 58 55 54 52 54 48 44 48 39 33 33 54 66 65 57 65 74 74 69 76 70 65 64 63 76 83 81 84 81 80 83 82 82 88 91 84 82 86
55 73 77 74 85 98 79 82 51 60 56 50 51 50 50 51 49 45 42 41 39 34 36 44 71 66 68 71 65 60 59 63 67 79 83 80 84 80 88 87 88 86 73 56 50 50 59 68 77
61 75 98 98 97 86 60 65 49 36 36 49 51 50 52 46 46 47 48 47 40 37 34 33 36 57 65 67 69 76 62 63 70 65 61 78 83 82 79 65 48 41 40 40 46 58 61 67 75
63 54 81 88 92 74 50 61 39 32 35 38 40 39 37 36 38 43 45 47 45 43 43 42 37 38 49 72 80 81 72 65 66 68 77 80 78 74 65 47 45 48 58 61 58 61 60 64 68
61 77 49 66 64 72 56 41 34 37 45 45 47 48 49 48 47 44 41 37 36 42 41 42 45 41 41 43 51 64 80 84 83 77 71 68 63 57 62 53 59 65 62 61 61 59 61 67 73
56 48 63 82 73 66 65 48 49 44 51 49 49 50 47 45 46 49 49 41 35 35 37 51 51 47 45 47 47 48 55 62 65 61 54 47 48 55 64 71 71 64 60 60 64 64 66 77 84
68 65 66 68 77 74 66 52 36 44 48 51 49 47 45 43 46 49 50 47 45 45 47 52 61 58 52 51 52 53 55 55 55 58 62 62 63 64 68 69 68 68 67 70 71 70 76 87 88
68 66 63 74 69 80 72 52 43 40 48 48 49 46 41 39 44 53 53 50 48 47 50 58 63 59 56 55 56 58 59 59 59 61 63 65 67 68 67 67 71 72 72 73 73 75 84 89 87

GFSSGP_925_rhum_075.txt.gz
RH
77 73 67 74 72 76 48 48 39 44 64 50 38 50 64 71 66 60 96 97 78 86 86 90 89 89 88 92 90 70 98 92 88 86 87 96 97 96 98 89 90 91 89 88 92 96 97 96 96
76 68 79 75 79 84 70 39 31 34 45 36 42 58 69 80 83 92 95 97 81 89 90 90 88 89 91 90 79 86 98 85 90 85 86 91 97 97 99 97 95 93 92 91 94 86 82 82 76
73 75 88 84 90 79 49 41 32 40 37 57 48 61 83 97 85 88 91 94 94 92 89 88 88 89 90 90 74 93 94 91 91 89 88 86 91 97 92 92 95 96 93 81 76 79 74 72 77
69 82 89 84 82 63 41 30 26 49 48 40 39 60 89 89 94 92 99 96 95 86 86 89 86 85 86 86 86 95 95 96 91 92 94 88 86 86 89 92 93 92 60 51 73 77 67 70 75
78 93 95 92 80 63 43 31 26 38 47 42 34 47 83 82 98 100 100 92 85 83 86 88 85 87 88 84 81 94 89 96 96 92 92 92 92 96 93 93 78 72 50 46 62 69 65 63 64
90 79 95 88 77 58 48 36 30 28 28 34 37 48 77 75 56 86 100 86 82 89 86 88 87 87 86 73 71 95 90 93 94 94 93 93 95 96 98 94 96 95 60 49 45 49 57 57 58
94 89 89 74 70 60 50 37 32 28 30 38 34 72 93 86 54 58 90 81 78 85 87 90 90 88 81 66 66 82 95 90 83 80 87 93 93 94 98 98 95 96 64 53 51 48 46 46 52
91 89 80 83 74 64 43 35 37 34 40 51 57 82 98 82 54 56 79 76 75 72 80 92 92 90 81 69 61 62 92 97 85 77 69 56 57 69 84 85 81 63 58 54 52 50 49 49 49
78 96 83 80 71 58 39 43 44 49 64 84 74 80 70 74 52 65 69 86 76 75 75 86 90 90 80 65 57 58 82 96 95 79 72 67 55 54 55 54 52 50 49 49 49 47 47 46 48
88 86 67 67 64 51 50 48 52 60 86 95 94 88 85 89 75 80 75 64 88 85 89 94 88 85 80 65 59 69 69 94 100 87 78 72 69 56 49 50 50 49 47 47 47 46 43 46 45
82 85 56 58 58 60 61 56 48 60 77 81 83 82 93 92 81 74 70 83 90 86 98 99 91 87 78 60 64 87 86 81 97 97 81 80 76 73 66 64 59 52 50 48 48 46 43 49 48
90 68 68 59 57 62 68 68 56 59 54 62 77 68 78 88 90 85 83 82 78 55 76 87 86 91 79 65 57 81 87 84 90 97 86 80 79 80 76 75 68 59 53 47 51 53 54 59 63
83 80 64 69 60 73 68 72 76 67 59 84 87 75 76 84 88 84 79 76 85 74 35 57 71 81 85 73 67 58 67 83 85 91 87 74 78 75 75 73 66 60 54 55 65 71 71 69 67
74 73 72 67 73 69 64 81 77 61 55 94 89 88 82 82 90 94 87 82 86 75 55 51 71 70 80 84 72 70 66 52 61 66 66 61 61 60 61 60 62 64 65 66 66 68 68 67 66
78 92 73 72 81 73 73 74 76 72 73 88 91 92 87 92 95 86 85 80 69 70 43 41 72 68 75 85 78 69 71 68 66 69 65 56 60 60 63 60 60 59 60 62 63 62 62 63 68
92 86 83 64 81 73 71 73 76 75 81 70 79 82 90 92 89 89 84 73 64 86 77 61 62 74 60 75 81 78 73 70 70 71 74 72 66 65 69 70 66 63 57 56 56 58 61 64 68
85 99 83 81 76 85 85 82 85 79 75 75 70 60 57 76 81 90 62 76 76 67 73 84 72 72 65 65 76 82 75 75 68 68 73 74 71 69 72 73 71 69 68 65 62 62 64 70 72
84 90 74 79 82 77 90 78 85 90 71 69 62 68 57 49 58 67 71 75 75 66 67 71 72 71 74 68 73 71 76 77 66 68 71 73 71 71 72 73 73 72 71 70 71 71 70 70 68
70 82 77 88 82 86 88 73 72 86 86 74 70 59 54 51 42 42 52 75 81 81 77 70 66 68 72 73 79 78 77 78 71 74 72 67 73 69 73 74 74 73 73 71 73 73 70 69 67
72 89 84 86 87 88 86 87 82 88 84 69 70 68 56 48 44 39 36 45 72 73 72 72 68 68 65 68 84 83 73 77 66 73 65 60 66 70 72 73 75 74 77 77 74 72 73 74 74
90 82 90 85 86 77 89 95 88 83 88 67 66 63 60 56 50 46 41 39 39 64 75 73 61 65 68 79 80 76 68 68 76 76 70 66 66 69 71 71 72 75 77 77 73 71 75 77 74
86 74 78 88 95 100 84 95 90 73 82 73 65 65 62 61 55 50 44 41 40 36 52 65 61 61 58 62 75 70 60 74 62 70 76 73 70 69 72 72 72 72 76 80 76 77 74 75 81
73 68 86 84 97 99 94 84 58 66 74 76 64 62 59 54 55 51 46 37 33 35 35 52 66 64 67 62 69 79 80 69 61 63 65 69 72 83 74 77 71 71 68 69 64 76 81 88 92
75 77 83 88 100 98 100 81 52 67 57 54 52 55 52 51 52 50 45 45 41 39 38 43 60 61 68 80 73 62 61 64 62 65 77 81 80 86 90 76 63 58 65 69 75 85 74 62 61
79 90 99 98 98 94 75 88 61 38 40 47 50 54 51 52 50 50 47 52 49 42 36 38 50 58 66 75 76 62 60 65 64 67 68 74 81 79 84 85 64 59 54 58 43 42 49 58 69
70 60 93 92 92 78 58 79 46 41 45 46 50 48 44 43 47 48 48 52 48 47 46 43 40 38 48 65 66 66 66 62 68 65 66 74 75 70 79 83 75 60 55 60 59 57 55 60 65
64 77 50 68 63 84 63 44 36 42 50 49 52 52 54 52 50 46 44 41 38 38 45 47 48 45 41 40 49 64 76 75 75 75 79 69 69 78 80 73 62 56 59 64 65 60 63 63 65
56 50 63 83 85 68 64 52 53 46 50 52 53 55 54 53 54 54 54 46 42 40 40 40 43 56 54 50 48 49 51 63 83 89 86 83 79 75 70 63 60 51 63 63 61 64 65 67 68
67 63 69 70 76 80 68 52 36 44 49 52 54 53 53 53 56 59 59 54 52 50 48 50 54 56 60 56 52 52 52 57 64 75 78 72 67 66 67 68 64 62 60 60 66 68 67 71 82
72 68 63 74 68 82 73 56 48 44 51 53 53 52 50 54 57 62 65 60 55 53 52 54 57 62 61 59 57 55 55 58 60 62 61 60 61 64 65 65 63 63 64 66 68 71 74 80 87

GFSSGP_925_rhum_078.txt.gz
RH
74 74 65 77 84 80 76 54 44 49 61 67 48 61 68 77 67 65 92 93 89 90 86 91 88 88 88 94 87 81 95 83 79 97 96 96 98 97 88 94 90 89 88 86 90 89 96 96 93
84 79 78 86 90 83 71 44 37 34 52 51 57 61 69 72 90 94 92 95 90 90 88 92 89 88 90 93 70 95 97 85 84 92 97 92 96 98 94 92 92 90 91 96 99 99 88 74 78
79 75 84 87 86 73 59 44 36 36 43 51 69 70 76 81 85 88 86 99 93 90 91 91 88 85 92 85 83 97 94 91 87 88 92 92 93 98 98 97 94 94 97 98 96 79 74 77 79
70 85 90 94 86 70 51 35 35 44 49 50 50 55 84 92 95 89 92 93 86 94 88 90 87 87 86 74 87 98 96 93 91 85 88 97 97 98 89 98 96 96 93 92 83 73 76 78 79
79 93 87 90 83 70 54 42 33 45 56 48 42 70 80 89 100 98 99 94 83 90 87 88 87 89 87 70 94 89 93 94 93 96 84 91 92 92 98 94 97 90 84 84 78 70 73 74 77
88 92 89 87 78 68 58 43 36 34 40 45 41 56 81 81 97 98 98 91 80 84 85 88 87 88 84 72 95 90 86 96 94 93 91 85 84 93 95 89 96 84 72 78 75 68 66 65 63
91 96 83 79 76 76 61 53 47 35 35 44 36 44 97 88 77 75 91 86 76 79 87 86 90 91 78 60 86 92 90 86 92 91 92 92 96 89 96 95 95 70 49 51 58 60 60 62 58
88 88 82 78 82 76 52 50 37 37 34 48 38 75 93 76 83 90 87 87 80 77 81 87 92 87 74 54 62 96 95 86 71 84 88 89 94 96 91 87 87 62 54 53 52 50 50 53 59
75 92 82 69 76 67 45 46 38 48 57 67 72 71 70 77 83 82 90 79 78 77 79 84 90 86 74 63 54 87 100 91 77 73 73 85 88 92 93 83 82 62 60 56 54 53 52 51 50
90 95 70 53 55 63 52 52 41 57 80 83 87 82 70 83 74 75 70 78 63 77 80 82 86 84 78 60 53 63 98 99 89 79 70 63 70 69 68 69 60 58 54 53 51 50 49 46 46
85 88 61 56 60 63 67 62 60 59 79 81 82 90 76 82 68 72 67 55 61 61 83 89 91 89 82 64 50 56 81 99 94 84 77 72 69 62 62 60 58 54 52 50 49 47 44 49 51
92 73 68 66 58 58 64 66 70 74 62 59 71 80 77 86 75 61 56 41 71 80 86 99 98 86 85 68 52 60 62 90 99 96 84 82 78 74 65 61 58 54 49 48 49 48 47 52 61
90 76 72 63 60 65 50 61 73 75 64 74 75 82 73 83 76 69 52 50 89 71 75 63 71 89 86 73 61 79 81 73 82 98 92 84 80 76 73 77 72 66 60 52 46 58 66 67 67
74 76 70 69 68 63 67 59 86 61 78 75 85 90 76 82 76 81 74 88 69 62 66 60 61 74 72 77 68 68 77 78 79 90 93 87 77 76 76 75 71 67 60 62 59 72 72 71 68
68 86 82 68 64 78 63 76 83 80 79 76 94 80 88 86 82 85 82 80 53 48 60 69 56 44 55 72 76 68 64 65 80 83 86 82 68 65 65 66 62 62 64 68 70 68 66 67 66
89 76 95 73 65 78 76 74 64 87 80 83 82 88 81 88 93 84 73 78 75 65 78 78 71 42 75 71 66 81 79 75 60 57 61 61 53 62 63 66 65 61 62 62 64 65 64 63 65
87 96 92 78 64 71 80 88 86 80 78 79 81 81 73 88 82 79 70 83 81 78 79 85 72 84 56 80 56 58 73 79 81 68 71 71 69 68 65 69 72 69 67 61 59 58 60 63 70
86 97 99 78 79 76 86 88 94 86 84 87 81 76 74 67 80 89 64 71 71 75 62 62 70 54 71 68 69 72 61 69 88 86 80 74 74 73 68 70 75 75 72 70 68 68 68 72 70
98 80 84 75 84 83 85 88 83 91 89 90 81 73 67 62 63 65 84 88 65 72 60 65 63 68 67 67 65 67 77 65 75 84 85 76 72 75 77 71 75 77 75 72 72 73 75 74 66
100 81 96 92 76 82 82 88 86 85 80 89 84 75 70 62 52 55 58 70 84 73 58 67 65 76 77 71 75 64 82 79 84 81 85 78 74 72 75 73 75 76 76 76 75 78 79 70 70
92 82 93 87 86 83 82 83 91 80 82 80 83 72 68 64 60 53 43 46 53 64 81 76 65 68 76 78 77 77 82 84 82 79 87 81 78 76 63 70 79 82 81 79 86 83 81 78 70
88 87 83 87 92 98 83 98 93 82 88 82 76 71 69 68 61 54 46 41 38 38 46 72 71 67 63 66 70 91 85 82 75 63 76 87 83 86 95 78 69 86 83 82 75 75 75 75 77
92 78 82 86 97 97 99 100 72 77 86 82 79 64 65 65 57 53 50 44 38 37 39 46 68 66 64 60 62 65 76 63 75 64 69 68 80 78 82 80 95 78 78 76 71 72 82 88 81
82 82 84 94 94 94 100 92 60 88 73 66 66 70 66 67 58 51 46 47 44 41 40 43 55 71 75 62 58 64 61 58 63 73 72 68 72 70 73 79 90 91 88 79 62 58 59 84 81
78 77 98 96 97 98 95 99 68 45 39 49 54 55 58 57 52 51 45 53 50 48 45 47 44 55 73 78 73 65 60 69 64 65 69 70 73 74 81 81 85 79 70 80 84 82 76 65 67
80 84 92 93 93 93 65 83 54 44 52 50 46 57 56 54 56 54 59 55 55 53 51 49 45 42 43 48 63 76 81 76 75 70 72 80 66 76 76 79 73 73 74 75 62 60 61 63 61
68 84 57 73 63 90 67 47 40 47 54 53 54 53 58 56 53 53 54 49 47 46 48 46 45 46 47 46 44 45 57 77 85 88 90 84 79 74 74 74 77 78 69 60 55 56 55 54 58
51 52 64 83 85 78 64 56 55 50 59 57 61 64 64 62 63 65 67 63 58 54 51 49 53 52 52 56 51 46 47 50 61 82 88 88 88 85 84 88 86 74 68 64 64 60 57 60 62
65 65 71 70 76 74 69 52 40 46 51 62 63 62 64 67 70 74 73 61 55 52 53 52 51 55 60 61 58 54 50 49 52 62 82 86 87 87 86 85 77 71 65 63 64 63 64 66 69
76 70 60 74 70 81 72 55 55 50 55 56 60 61 65 67 67 68 66 62 59 57 54 56 59 58 60 63 62 59 58 58 60 63 73 77 74 70 68 68 69 69 66 64 64 66 69 71 74

GFSSGP_925_rhum_084.txt.gz
RH
81 71 67 53 43 39 38 31 28 26 29 25 26 30 34 41 36 45 73 75 74 68 76 91 90 90 91 92 80 88 85 84 84 88 93 93 94 98 98 94 90 86 83 84 88 82 87 95 98
74 69 61 51 50 40 35 26 33 24 24 28 35 43 42 60 51 61 72 83 77 72 75 80 90 88 84 84 84 81 85 86 82 88 87 93 95 92 93 92 88 84 83 83 84 90 98 97 93
75 70 54 55 49 40 32 28 28 22 28 36 36 41 38 53 58 58 75 80 75 74 73 78 88 86 86 75 91 65 79 90 87 91 90 94 92 96 93 90 84 82 82 85 91 85 80 78 86
58 63 56 66 46 33 28 23 24 21 21 23 38 39 50 62 61 70 78 77 75 73 73 85 87 87 85 72 92 84 59 85 91 88 88 91 91 96 92 87 84 86 86 94 95 87 84 84 75
64 55 53 56 44 31 28 25 22 24 21 20 31 40 43 68 86 84 80 79 73 72 74 89 86 88 81 77 95 83 61 57 91 89 88 92 89 92 95 88 88 91 92 97 94 86 84 81 74
58 54 49 48 38 31 31 30 26 28 25 24 24 31 37 57 82 91 82 82 75 69 77 80 89 84 66 90 92 75 61 63 86 91 91 95 96 91 96 98 92 97 99 96 85 83 83 83 71
58 57 49 36 30 31 32 28 33 34 29 25 24 28 30 66 74 91 97 81 96 82 81 83 88 86 77 94 91 68 62 81 76 95 98 99 87 90 96 98 98 98 98 89 78 71 68 67 64
55 55 50 37 32 30 25 30 31 34 35 21 23 36 30 42 73 89 87 65 70 98 89 85 87 84 81 96 90 78 69 77 81 84 93 91 89 92 94 98 98 98 95 82 72 66 62 56 54
50 67 52 39 34 30 22 25 28 28 33 27 26 27 24 50 90 94 88 88 88 94 98 95 90 80 71 85 96 89 77 68 85 78 80 85 89 87 90 82 96 94 87 77 68 59 57 58 56
63 60 44 29 28 30 30 28 29 34 36 34 31 30 45 80 89 81 78 84 60 67 78 100 92 87 76 75 98 94 92 82 72 77 83 89 75 72 71 89 95 82 66 64 63 59 54 53 57
50 62 38 37 39 40 44 38 32 38 42 32 33 31 40 62 71 71 72 84 60 58 78 89 94 86 81 71 90 96 94 83 74 72 75 76 79 88 84 85 90 84 70 71 70 69 61 55 51
55 39 37 38 42 48 50 44 49 40 34 28 54 30 42 55 65 68 67 74 76 65 64 88 91 88 84 72 73 92 96 91 87 78 71 75 75 78 74 73 73 72 70 66 63 57 56 56 57
54 38 32 32 42 45 42 48 48 46 35 36 45 50 40 44 56 64 66 72 73 84 72 91 88 100 86 87 68 76 95 95 85 84 73 67 71 77 72 71 71 67 68 63 61 58 54 53 56
37 48 48 44 41 42 48 45 42 39 34 40 50 53 38 36 47 68 68 70 79 81 68 65 66 86 86 94 83 70 79 92 90 86 81 76 71 71 72 69 70 67 67 61 57 54 56 58 64
52 60 44 43 44 47 37 47 49 36 37 48 49 49 45 33 46 72 70 68 65 59 62 66 59 79 72 95 96 74 74 81 95 90 90 84 84 78 76 69 74 75 75 67 65 58 67 71 71
52 47 72 32 33 43 46 41 25 26 34 45 45 52 49 46 50 64 70 68 63 60 64 83 50 72 69 100 90 86 83 82 80 90 93 97 91 90 80 76 76 76 73 73 71 69 71 67 63
60 58 50 47 36 39 50 40 26 28 34 45 50 54 56 60 53 66 61 62 65 60 64 77 80 82 76 98 96 89 91 97 98 91 88 99 100 96 82 74 73 78 73 74 72 72 67 63 60
64 83 57 49 36 44 46 41 29 43 48 50 54 57 60 64 72 66 69 74 70 71 72 70 65 63 77 93 96 97 92 88 86 83 96 96 96 96 88 74 72 78 76 72 72 66 65 60 60
72 86 88 62 39 45 47 40 36 72 64 62 61 68 62 68 89 100 95 88 80 74 68 66 68 67 79 96 100 97 98 96 98 94 85 88 85 82 82 72 73 77 75 73 69 66 66 68 72
97 89 71 57 51 51 44 42 38 61 66 62 65 65 63 55 83 97 99 89 84 85 74 71 74 78 68 76 88 84 87 86 80 93 98 97 95 88 90 84 78 77 81 77 74 70 71 70 78
97 97 79 82 60 54 49 55 68 60 58 61 60 69 73 62 72 92 96 96 86 98 94 81 74 79 73 76 79 75 86 92 94 91 90 97 99 92 96 100 100 96 91 93 87 79 76 79 80
98 87 92 95 96 79 54 70 63 51 59 57 55 68 78 78 58 68 82 97 80 89 88 86 91 93 89 82 83 87 77 88 89 78 79 93 89 89 91 85 92 98 100 99 99 96 98 83 75
76 64 94 96 86 70 65 64 60 63 62 60 56 72 91 89 76 66 65 82 91 91 90 76 74 86 83 86 92 90 86 89 79 88 86 97 77 81 90 96 95 86 98 100 100 100 100 97 93
60 67 93 74 68 91 81 79 62 59 59 50 54 61 64 66 74 78 65 64 70 63 65 75 81 74 79 83 87 97 98 92 98 94 88 86 81 90 89 84 92 95 99 99 93 86 84 92 78
77 77 89 87 76 83 89 70 61 44 42 41 36 47 54 70 71 66 69 69 69 71 63 63 79 86 98 93 75 79 76 90 95 91 86 87 84 88 78 80 92 100 99 96 83 74 75 80 85
77 76 77 72 83 92 73 74 53 46 45 42 37 51 60 74 76 79 61 62 62 66 65 62 60 60 58 76 96 100 99 100 99 97 98 98 91 88 81 88 99 100 98 84 77 73 81 86 86
73 80 49 64 60 61 64 59 42 44 49 48 56 56 65 69 81 84 63 60 58 59 63 63 60 63 63 58 55 54 67 97 99 98 100 99 100 97 100 100 100 100 90 86 90 87 83 89 90
82 53 66 66 73 81 51 50 55 53 58 58 55 58 65 66 61 72 65 56 55 58 59 61 60 62 68 68 64 59 57 55 61 73 84 93 100 100 100 100 100 100 100 100 99 97 95 83 68
59 54 51 52 54 50 47 50 43 50 54 59 58 57 58 59 66 58 57 57 56 56 57 57 57 60 63 66 68 70 66 60 58 65 78 83 89 93 98 100 100 100 99 92 88 80 69 65 64
67 60 48 49 52 48 40 47 43 46 50 51 54 55 61 62 60 56 53 50 51 54 59 61 62 61 62 66 66 69 73 67 67 63 65 78 93 99 100 100 100 97 88 81 73 67 65 64 72

GFSSGP_925_rhum_087.txt.gz
RH
80 63 50 45 46 36 37 28 18 17 16 15 18 22 25 23 33 48 60 57 53 55 78 92 90 93 93 92 87 86 75 78 86 90 93 94 94 94 98 95 91 86 90 87 92 80 88 93 97
55 47 46 41 46 40 32 21 21 17 18 16 17 25 31 32 37 54 58 63 58 63 82 83 90 88 90 84 83 90 86 83 89 88 88 88 96 90 96 93 88 83 80 78 79 84 93 96 96
63 45 44 41 46 46 30 20 18 18 17 22 26 27 29 32 41 45 61 67 63 72 80 80 88 88 88 85 77 86 88 87 88 90 87 90 95 94 94 90 82 78 77 81 84 92 96 96 76
44 44 46 48 36 30 28 18 16 18 17 20 24 29 28 47 44 55 64 62 61 71 72 81 83 85 84 85 69 84 89 87 86 88 87 91 92 94 91 82 79 78 82 88 86 89 89 86 63
43 38 44 41 41 30 21 18 16 21 18 17 18 28 30 48 60 66 66 66 62 69 72 88 79 85 86 78 89 65 81 86 88 87 88 92 91 94 90 81 79 79 84 86 86 86 88 72 55
45 38 44 40 31 26 22 18 20 18 17 17 17 19 26 53 64 72 74 71 70 66 72 85 84 82 84 70 92 77 58 84 87 85 89 91 87 91 84 83 82 82 87 91 90 85 80 68 52
48 40 40 32 26 22 22 18 21 21 19 19 16 21 19 50 57 75 80 89 75 73 81 85 85 92 76 82 92 82 60 60 87 87 91 93 84 89 94 86 83 87 99 93 88 85 84 71 53
40 40 40 34 32 27 17 17 18 20 22 16 17 22 23 23 60 93 100 97 81 71 93 98 90 84 74 97 91 71 70 64 89 90 99 93 86 89 95 94 87 88 94 86 76 70 66 61 51
39 55 45 36 31 24 17 17 16 17 22 21 19 20 19 46 78 82 89 95 87 69 71 82 95 84 65 80 97 77 70 77 84 96 99 92 87 90 91 89 90 89 91 80 72 65 59 55 52
50 51 39 25 21 21 18 19 18 17 21 24 25 22 22 50 74 72 69 76 84 87 70 60 79 85 85 75 98 86 80 78 71 86 91 86 84 76 70 90 94 93 91 80 72 60 55 54 60
40 51 33 27 23 28 32 33 28 23 27 21 24 22 22 35 68 64 59 65 76 82 78 42 57 64 89 81 89 88 75 64 63 61 77 81 67 72 80 92 97 96 74 73 66 58 61 55 47
41 32 31 29 28 30 39 33 36 31 29 21 27 35 37 31 53 56 61 56 65 77 68 79 67 87 96 71 84 90 78 61 60 61 63 71 66 74 72 79 79 74 67 63 66 61 53 50 48
37 36 28 23 24 27 30 36 38 34 29 26 25 34 38 32 38 46 59 58 54 70 82 58 57 66 87 83 67 85 85 76 65 64 65 66 69 75 66 63 62 62 59 57 57 53 49 48 47
29 30 34 34 33 30 32 33 31 30 27 28 31 31 35 36 32 42 50 65 60 65 72 54 82 75 75 95 70 66 82 84 75 70 64 63 66 71 66 61 63 59 58 57 54 51 48 44 46
33 44 40 32 29 35 34 42 38 24 23 28 27 30 38 40 33 31 50 68 66 68 70 84 96 92 92 96 92 73 72 78 79 70 68 61 59 62 60 57 60 62 60 55 52 48 46 51 52
45 40 47 28 23 24 34 47 27 19 18 25 29 31 35 40 38 31 55 62 74 84 73 79 86 83 66 79 83 86 69 72 79 81 74 70 70 69 68 62 64 65 65 65 57 55 53 60 60
56 68 43 33 24 26 31 41 26 18 16 20 25 27 32 42 46 42 57 70 76 80 68 71 85 92 65 59 74 89 74 69 72 80 84 84 77 79 75 74 73 70 68 64 62 61 58 59 57
50 57 49 44 31 27 36 37 29 20 18 24 23 26 33 42 49 61 59 65 83 85 78 67 76 90 67 54 78 91 82 75 79 77 75 82 90 91 87 76 68 66 71 65 64 62 62 58 55
58 59 55 42 35 52 44 33 27 22 42 32 31 33 37 44 63 82 67 65 72 83 78 75 77 84 67 71 90 92 90 81 86 90 94 92 91 88 87 83 68 67 73 71 66 63 60 60 57
65 77 70 53 43 46 62 34 28 24 44 49 46 54 57 47 69 90 91 97 94 93 87 78 77 87 85 73 84 85 89 88 87 90 92 88 90 88 83 82 73 69 75 76 72 66 64 62 64
78 94 79 86 54 55 47 43 32 25 43 53 48 51 58 56 59 87 90 98 92 83 95 86 83 79 80 88 81 92 74 78 88 93 81 86 92 73 86 87 85 80 81 83 88 82 67 68 69
97 67 90 96 86 71 43 54 32 36 46 50 46 48 60 65 63 80 87 95 93 86 96 99 90 95 93 92 95 95 89 90 80 82 93 86 86 83 76 88 96 90 91 94 90 88 97 84 83
83 84 84 79 72 89 54 61 38 38 46 45 43 46 57 67 76 73 88 93 98 93 87 87 94 91 94 90 95 97 93 94 87 91 86 78 80 85 83 87 99 98 99 100 99 98 93 100 99
77 98 96 81 94 93 77 83 63 55 51 46 47 45 64 86 92 83 79 85 95 96 99 95 100 90 94 95 88 92 88 97 89 97 91 81 74 79 76 85 98 93 82 79 95 98 100 93 99
78 98 93 97 98 71 63 96 60 47 43 39 36 53 81 90 94 93 80 73 87 92 84 80 82 90 93 97 98 88 91 84 72 74 84 60 79 56 81 86 97 84 92 78 88 98 99 94 93
74 77 96 84 79 82 81 99 93 49 38 38 39 77 87 90 85 86 75 73 81 81 68 62 74 70 76 96 96 88 91 95 91 80 89 87 85 62 73 92 94 91 84 81 98 100 99 91 89
76 98 72 95 67 81 92 73 53 72 50 62 67 80 84 91 87 78 74 59 66 67 60 60 61 65 68 65 62 87 99 95 82 88 99 99 96 97 98 94 86 72 88 97 94 98 97 90 87
84 63 70 66 84 74 52 57 71 84 73 66 76 74 74 79 82 83 82 78 54 54 54 57 59 60 64 64 66 64 63 66 86 98 99 98 97 98 93 92 96 100 100 100 100 100 98 96 99
64 53 47 47 46 70 46 62 44 56 76 68 68 74 80 83 77 70 78 84 70 54 52 53 54 58 60 63 64 67 68 68 64 74 80 93 97 96 99 99 100 100 100 100 100 100 99 98 92
56 47 40 48 45 40 39 62 43 48 63 56 62 67 64 63 73 64 45 42 44 45 48 52 56 58 60 58 60 65 67 70 71 71 74 80 87 94 99 100 100 99 99 99 99 94 91 86 77

GFSSGP_925_rhum_090.txt.gz
RH
59 63 59 53 69 58 54 45 30 29 22 14 14 18 25 31 52 71 56 52 65 83 87 84 88 87 84 71 64 57 56 82 87 89 88 94 93 95 98 95 89 89 97 97 95 93 86 95 96
68 57 44 53 67 65 44 28 30 25 19 16 18 20 24 37 54 64 63 55 58 79 88 92 90 87 87 77 71 66 62 76 86 88 86 86 93 97 96 94 87 91 88 90 88 86 95 98 98
72 54 54 61 65 70 46 28 23 18 17 18 23 21 26 46 52 60 61 59 69 79 82 84 88 86 89 80 78 88 83 77 88 90 88 86 90 83 92 90 81 84 81 77 80 89 96 88 70
43 44 51 58 52 42 42 31 26 20 18 18 19 28 27 49 62 58 64 60 73 80 81 83 83 85 88 78 78 82 82 75 87 89 88 87 86 86 89 78 74 74 76 80 85 88 84 57 47
43 51 62 60 53 40 28 26 25 23 20 20 20 26 31 57 62 60 62 60 73 79 80 83 77 80 81 79 69 80 85 76 81 86 86 83 87 89 83 78 77 78 84 84 84 87 78 53 33
59 50 66 60 45 31 29 24 23 22 18 19 19 21 36 61 60 66 62 65 69 74 78 84 79 76 80 82 80 68 83 82 72 81 84 86 87 87 80 77 78 82 84 85 87 89 69 50 34
68 57 56 47 41 31 24 20 23 22 24 22 17 21 33 72 67 67 68 67 79 86 86 90 87 79 83 71 89 67 53 84 83 79 85 88 86 84 84 81 80 83 86 88 86 87 71 53 44
48 52 58 47 40 35 22 20 18 21 22 18 17 23 24 56 69 74 77 80 92 94 84 78 93 90 83 74 89 85 56 59 85 83 87 90 85 88 85 84 80 87 86 92 88 90 75 56 45
43 66 66 49 41 33 23 21 17 14 19 20 19 21 20 53 63 72 95 95 98 83 75 65 68 97 85 84 93 88 64 57 89 90 97 89 85 89 89 85 80 86 90 85 78 71 62 54 47
57 68 58 36 28 28 22 22 25 27 21 21 23 21 20 62 64 70 84 87 99 80 66 62 66 76 89 93 84 85 74 72 95 94 100 93 84 91 91 85 81 83 90 82 73 63 56 52 49
45 63 46 36 30 29 32 32 30 34 40 32 22 23 22 26 56 71 76 67 63 78 85 67 54 53 70 87 86 86 83 78 93 89 94 93 81 80 82 84 85 90 91 80 71 60 51 49 59
45 36 34 34 30 31 34 33 40 35 35 29 27 32 37 41 52 70 62 58 68 73 75 76 86 70 55 72 94 74 81 74 69 83 85 81 78 76 88 84 88 93 87 70 58 51 46 51 50
37 35 31 31 31 27 24 31 35 36 30 27 27 29 35 39 42 59 54 65 60 68 77 70 83 69 84 87 75 98 76 64 64 63 74 74 72 73 84 80 80 75 60 67 62 64 55 53 50
31 35 34 33 35 36 36 33 31 29 29 28 28 31 31 35 38 43 68 78 61 69 68 80 90 88 78 74 57 89 84 64 61 63 65 71 71 73 72 73 70 70 64 60 59 58 52 49 47
36 47 42 39 37 38 33 44 42 30 27 28 25 28 29 32 36 43 55 74 61 64 65 78 97 95 86 67 63 59 88 82 68 63 65 67 70 70 70 64 63 62 59 58 56 53 50 48 46
54 51 63 39 34 32 35 47 33 29 30 30 26 24 29 37 41 40 40 55 63 59 65 75 95 94 81 80 71 56 58 83 79 70 62 63 66 67 67 60 61 59 59 58 55 52 48 48 53
65 78 60 45 30 31 33 40 30 26 25 26 25 21 26 35 44 40 45 55 68 63 60 67 83 95 89 72 81 71 70 76 81 75 69 62 63 64 62 61 60 64 66 66 62 57 54 53 61
69 65 58 53 38 37 43 37 30 27 25 26 21 19 25 30 48 53 54 62 67 69 62 60 81 86 86 74 71 76 76 72 72 77 74 72 71 74 72 72 72 72 70 67 64 62 62 59 60
71 77 69 55 40 42 51 48 45 34 28 30 31 25 25 31 80 78 73 59 64 80 80 86 76 85 88 82 74 64 68 81 71 72 76 77 80 79 79 77 73 69 70 71 65 64 63 63 61
62 74 80 61 51 52 56 62 46 40 31 32 50 44 55 52 81 85 90 84 89 96 96 96 87 84 88 83 78 66 58 76 72 73 79 80 69 85 85 85 81 69 67 74 72 68 65 62 61
82 86 87 86 71 65 70 81 58 43 28 47 56 56 54 58 70 87 88 96 85 78 75 89 98 90 89 87 81 73 62 78 76 78 78 73 81 83 83 83 83 75 75 77 78 78 80 73 65
97 68 84 95 98 92 56 88 53 36 31 47 56 61 65 74 62 81 89 95 95 84 69 64 98 96 91 87 84 88 85 96 83 78 80 84 81 79 79 80 78 80 78 78 84 92 89 92 86
97 85 94 90 95 91 79 87 43 40 59 48 53 60 71 81 74 76 86 90 94 94 85 90 98 100 100 96 96 100 95 98 99 98 88 82 74 70 72 73 75 74 73 81 91 92 90 88 94
89 96 79 76 94 97 87 88 55 48 42 50 45 50 82 89 88 88 84 95 100 99 96 97 97 100 100 95 100 99 97 100 97 97 97 87 82 79 78 69 72 75 78 88 82 85 80 90 93
83 100 98 97 97 98 99 97 100 60 48 46 52 72 87 91 90 89 93 93 97 92 86 85 90 95 97 93 95 96 97 99 97 88 82 89 92 92 80 66 72 80 86 94 96 91 96 85 81
82 92 99 96 96 96 94 99 100 84 44 38 66 90 88 92 93 95 93 92 95 89 81 77 92 94 93 96 97 93 99 92 98 95 85 83 98 79 75 79 79 80 68 74 97 98 98 97 82
82 99 92 100 96 99 100 100 88 81 87 92 94 92 94 91 92 94 94 90 89 83 74 74 78 81 76 78 75 88 100 96 85 76 82 89 95 92 94 84 76 65 72 80 96 91 98 89 99
89 73 82 93 97 94 96 92 100 96 96 88 89 94 93 89 93 92 91 89 77 68 57 57 61 63 64 65 67 67 66 79 94 97 84 92 85 79 83 66 73 76 79 92 98 100 99 100 100
76 65 62 51 61 96 70 97 94 96 95 94 93 90 91 87 85 88 90 83 56 55 55 57 58 59 58 60 64 66 66 66 64 68 78 86 96 99 99 92 91 89 100 100 100 100 100 100 100
57 53 45 76 67 63 77 97 79 74 81 86 88 87 89 88 86 81 70 66 55 44 44 46 49 53 60 59 56 61 65 66 67 67 68 68 73 79 85 91 97 100 99 100 100 100 100 100 100

GFSSGP_925_rhum_093.txt.gz
RH
34 51 66 69 83 87 87 72 48 44 33 21 20 20 26 42 50 58 57 57 68 76 79 71 67 65 65 62 56 58 82 81 84 81 88 95 91 95 98 95 93 95 98 97 98 89 86 93 91
56 63 63 72 87 94 81 47 43 37 28 24 22 23 25 71 66 69 63 66 72 71 75 76 78 67 64 64 58 56 61 83 85 84 88 88 92 96 95 92 93 94 96 96 87 89 94 95 88
63 64 67 78 89 92 71 42 33 26 25 23 21 24 32 74 68 69 61 72 78 76 75 76 78 73 70 71 60 55 58 79 83 85 79 86 91 97 88 88 90 90 88 84 83 92 96 97 72
52 54 62 82 84 61 60 48 40 35 28 23 21 25 55 63 65 63 67 74 84 82 74 75 77 79 75 78 75 76 69 74 83 86 86 88 87 91 85 83 92 85 78 77 82 93 88 64 49
57 65 80 82 76 57 47 41 37 34 31 24 22 24 43 67 61 60 71 80 82 89 83 83 80 83 81 76 88 86 77 69 86 87 88 84 85 83 79 80 85 78 76 79 85 86 57 44 37
68 67 87 89 68 48 40 34 34 29 27 25 23 23 57 67 64 64 66 74 72 83 86 83 81 80 77 72 70 81 85 70 77 80 84 84 87 82 74 72 73 80 85 83 86 81 55 34 34
75 84 80 68 58 46 36 27 28 29 28 24 22 23 61 73 64 73 66 73 72 81 89 86 84 78 76 80 75 69 86 83 68 80 81 84 85 82 78 78 78 84 81 80 84 76 54 35 34
62 61 69 67 64 53 32 27 23 23 23 20 18 26 28 63 68 66 65 62 72 78 82 87 85 88 88 81 89 72 59 89 80 77 81 87 83 79 79 74 80 84 80 85 83 73 58 46 38
47 78 85 68 56 47 32 30 24 26 26 24 21 21 49 55 65 71 72 83 96 87 94 90 85 83 77 73 78 95 77 60 89 83 86 92 84 82 80 77 78 84 86 85 83 86 61 47 43
62 85 72 52 46 43 34 37 37 37 39 37 36 30 40 64 62 69 69 78 74 79 100 93 79 75 70 76 77 97 89 61 78 86 94 90 87 85 79 77 75 81 85 88 80 70 61 51 44
48 74 56 51 45 40 38 34 32 44 45 38 41 34 30 42 66 73 72 68 59 71 85 80 87 79 72 73 70 86 96 85 80 98 97 89 87 86 86 81 76 82 90 84 74 64 53 49 49
48 39 39 39 35 36 39 31 31 37 42 35 33 32 33 37 52 74 76 70 68 62 79 74 70 69 75 72 64 75 77 76 84 97 98 96 92 88 88 83 78 82 90 82 71 59 49 46 56
41 40 38 37 39 37 34 41 36 33 30 30 29 30 33 34 40 46 59 59 62 66 68 83 77 75 80 73 63 69 63 78 86 89 93 94 94 85 86 85 84 88 92 79 68 50 42 48 53
39 42 41 39 40 39 40 41 42 35 29 28 28 30 28 30 31 44 60 50 56 55 78 83 86 76 78 65 63 70 79 91 89 82 85 84 86 82 82 82 83 82 85 66 60 57 60 56 52
49 59 56 48 43 44 39 47 44 36 34 32 29 28 29 29 30 36 52 54 50 57 54 68 74 81 78 76 80 89 78 79 90 73 70 73 76 79 82 78 72 61 60 59 66 62 59 52 49
64 61 76 48 46 44 48 58 37 30 33 35 32 30 29 29 26 28 45 50 47 66 58 66 77 77 78 82 85 82 81 77 85 75 72 71 72 74 75 72 68 68 67 63 59 57 52 51 49
75 86 74 61 42 44 48 48 36 29 31 34 33 34 30 29 28 28 40 50 50 69 69 71 75 78 76 68 76 90 75 78 90 68 65 68 70 71 70 68 68 64 61 60 57 54 53 49 50
75 81 68 71 50 49 54 51 41 36 32 31 28 29 28 28 28 29 51 46 52 69 70 73 81 89 85 78 75 78 81 74 68 79 79 67 66 68 70 65 62 62 59 61 62 59 57 54 50
82 87 90 72 59 59 59 56 50 48 46 46 33 30 31 24 26 78 75 57 71 63 72 75 83 83 85 87 87 95 93 76 71 68 76 75 65 65 64 62 60 63 67 69 66 64 61 62 60
77 88 86 69 57 65 78 76 64 58 50 46 39 40 55 35 85 90 88 80 68 68 71 86 90 91 86 85 83 83 83 76 70 69 74 78 74 73 68 74 75 74 73 72 68 65 65 64 64
85 92 86 87 77 79 91 88 70 55 53 48 40 53 69 80 89 92 96 95 96 87 84 80 84 82 79 83 86 88 84 77 68 70 73 76 79 74 77 75 76 74 69 73 73 70 70 68 65
97 69 74 99 100 96 74 94 65 59 57 45 44 61 77 79 87 94 94 88 99 94 87 96 86 82 94 97 97 94 94 92 76 74 89 63 66 79 74 73 72 82 72 75 76 78 79 78 79
88 80 97 100 90 90 76 97 75 44 47 39 58 67 72 92 92 92 93 91 94 94 97 98 98 100 100 99 96 97 98 97 94 94 95 81 68 69 60 69 72 64 65 69 70 76 93 69 87
71 98 100 91 92 99 79 84 76 62 55 47 52 70 98 97 96 95 92 96 99 100 94 94 98 99 100 100 97 99 100 100 99 95 97 100 90 87 80 80 69 69 69 65 64 79 79 70 70
80 100 98 97 97 93 95 91 88 90 88 67 58 90 97 97 97 96 94 94 96 91 81 81 84 94 97 100 94 97 98 99 100 95 90 99 93 88 82 83 78 76 73 78 71 89 94 97 98
89 99 99 96 97 98 100 98 100 89 92 95 90 94 94 97 95 95 94 94 93 86 83 89 89 90 90 94 95 95 93 100 98 99 98 93 90 94 78 90 91 85 80 81 90 94 89 87 98
80 99 88 100 100 97 98 100 96 85 88 94 94 95 97 97 97 97 94 97 91 85 77 75 74 79 84 87 86 90 88 100 98 100 90 92 94 92 90 90 93 85 76 83 82 86 96 92 98
88 79 89 94 97 96 97 97 100 100 100 94 95 96 96 95 96 96 95 95 94 87 78 70 63 65 72 76 77 78 80 93 98 96 97 100 90 87 91 94 85 78 76 84 85 92 82 99 97
79 87 80 70 76 92 88 98 98 100 99 96 96 96 92 91 95 93 93 86 75 59 55 50 53 58 60 60 64 69 71 70 70 71 76 84 92 97 98 100 99 89 92 91 100 98 96 93 100
58 70 55 78 71 76 82 98 91 95 93 89 94 95 93 90 90 88 85 77 55 54 53 55 54 52 52 56 63 62 60 64 69 72 71 70 69 70 82 89 96 94 92 95 95 100 100 98 100

GFSSGP_925_rhum_096.txt.gz
RH
53 52 63 64 82 90 92 80 59 53 38 27 22 23 27 36 44 57 66 78 75 77 77 71 74 76 67 66 80 83 79 80 81 86 95 99 92 95 89 84 95 97 96 96 97 96 84 89 94
59 66 63 76 90 96 89 67 63 51 35 30 26 24 26 52 70 72 74 78 70 64 65 64 65 65 63 60 60 78 80 78 79 81 89 90 91 96 96 87 96 95 96 96 94 89 91 78 65
61 67 69 84 92 95 80 50 49 37 36 33 29 26 38 74 71 71 69 83 79 82 78 70 66 64 62 60 56 57 80 84 80 80 84 85 90 97 94 94 94 95 95 91 90 91 90 65 58
53 57 68 88 90 72 64 57 47 45 35 27 25 29 62 61 66 62 77 79 77 82 84 77 66 64 62 59 55 55 60 83 82 80 84 87 90 97 80 91 93 92 88 84 90 95 84 65 57
58 71 84 90 86 67 56 48 44 42 38 32 25 28 57 67 64 62 73 79 80 85 82 83 73 67 66 63 60 67 66 74 84 84 84 87 90 86 76 90 94 85 81 82 94 93 66 55 49
75 73 90 92 73 57 48 40 34 34 32 29 26 26 51 73 74 84 83 81 76 76 81 86 84 75 68 70 72 86 76 69 79 82 84 85 88 84 76 91 85 79 76 78 95 60 44 40 54
80 86 86 76 69 54 40 30 30 29 29 26 23 26 35 80 70 65 73 74 82 83 89 93 86 83 71 64 65 78 88 81 72 80 81 82 83 85 73 84 82 78 85 84 86 57 37 36 59
71 71 76 72 72 66 42 36 30 30 33 26 24 35 38 44 73 62 60 64 70 74 76 81 88 85 78 78 68 78 86 86 76 77 82 83 84 86 70 73 73 81 86 78 82 57 38 35 54
50 79 90 73 63 57 39 42 31 31 36 36 32 34 32 45 58 68 77 72 66 69 73 84 83 84 83 86 87 66 59 76 82 76 81 83 86 83 76 76 77 81 78 83 82 60 47 38 37
66 89 78 57 52 54 48 44 37 37 39 38 36 33 28 27 36 71 75 76 86 78 72 75 88 86 83 78 76 93 78 60 64 85 82 85 88 80 77 76 74 78 87 83 84 69 54 46 41
52 78 62 54 50 47 43 38 31 35 42 40 43 37 34 32 36 49 70 75 76 74 79 61 72 90 72 76 81 90 84 70 63 89 90 89 89 81 79 77 77 80 80 84 86 82 66 48 42
48 44 40 41 38 44 45 37 40 35 32 35 36 34 34 35 44 44 46 62 59 60 68 73 89 84 78 74 81 76 76 72 62 70 92 100 89 85 80 78 78 81 85 88 83 72 56 49 46
42 39 39 39 40 40 36 43 44 41 36 31 31 30 33 34 32 29 32 49 66 72 71 71 73 80 75 87 77 76 73 72 77 67 72 91 91 93 84 82 80 79 86 90 77 66 56 49 55
46 55 53 49 47 44 44 41 40 38 35 34 33 34 32 31 30 29 34 38 64 60 69 71 81 73 67 69 81 68 74 71 65 75 71 81 94 93 99 92 87 81 82 91 74 62 51 43 53
56 61 60 51 50 49 42 48 44 32 34 32 30 28 31 32 28 30 24 32 46 53 67 71 72 71 72 86 74 67 64 60 73 89 66 78 92 86 82 87 85 84 84 88 78 62 55 54 56
68 63 78 51 45 49 50 57 39 33 36 36 32 28 27 35 32 26 23 23 30 64 69 68 66 60 64 77 71 66 65 69 74 92 90 68 77 86 78 89 78 84 83 78 79 66 66 63 56
75 79 77 68 48 52 58 65 45 38 36 36 33 32 31 33 37 29 24 22 27 59 64 72 74 70 48 66 87 81 73 75 75 74 77 66 69 73 87 84 82 78 77 69 67 70 69 61 54
70 80 77 74 56 57 67 68 51 44 44 39 34 32 30 29 34 27 22 23 29 57 58 69 70 68 69 68 92 97 83 77 75 75 69 74 66 76 77 75 78 71 64 75 68 63 60 54 51
77 89 93 73 59 68 72 68 60 51 49 50 53 45 36 32 30 27 26 34 58 73 68 70 70 78 82 96 99 100 99 90 77 73 80 80 74 73 79 74 74 75 72 67 63 60 57 57 54
83 91 87 73 61 73 83 85 71 64 60 53 51 58 50 40 41 72 75 70 87 71 79 74 75 81 91 92 94 90 86 93 86 80 80 76 76 72 71 70 71 68 65 62 60 61 63 60 58
87 95 87 87 70 74 86 81 75 60 61 57 51 54 51 51 49 88 94 94 99 99 99 92 75 72 66 81 92 97 94 93 97 93 96 88 85 74 69 68 70 63 61 62 66 68 66 67 65
95 72 76 85 98 95 78 92 66 59 64 61 59 59 60 76 88 96 97 100 97 100 100 100 100 98 84 82 82 92 91 89 78 82 88 91 88 81 72 71 67 64 65 74 73 71 67 67 73
85 75 83 97 100 99 81 97 76 54 54 61 42 50 78 98 99 95 96 94 97 94 96 85 92 98 96 98 96 97 100 78 88 93 93 91 91 90 84 84 81 72 80 80 76 77 76 72 80
62 80 97 100 99 100 83 88 76 95 91 92 58 83 97 97 98 98 94 95 99 99 94 85 87 90 93 99 100 100 100 100 100 100 96 92 95 97 89 84 96 92 81 80 79 69 69 79 69
80 99 97 94 97 93 98 87 81 90 92 95 82 95 97 94 94 97 96 94 95 93 91 86 92 95 99 99 100 100 100 98 99 100 100 96 94 98 99 98 94 92 91 88 92 77 71 72 79
89 98 99 96 97 98 99 96 98 87 80 84 93 96 96 97 96 97 95 92 92 89 94 92 88 87 90 95 99 97 100 100 99 100 100 99 95 100 98 97 100 99 92 89 88 82 78 77 77
84 99 91 100 100 97 97 97 97 80 86 92 96 96 97 97 96 97 95 98 95 91 85 77 83 86 88 91 90 91 96 100 100 100 100 99 98 99 94 94 90 92 96 95 94 93 82 90 94
86 80 93 95 96 96 98 97 99 98 99 92 96 97 97 94 95 95 96 97 97 91 85 81 78 77 83 84 88 91 94 95 92 96 99 100 100 97 89 95 95 96 99 100 97 97 93 88 92
80 89 87 81 77 95 93 98 99 100 100 98 96 97 97 97 97 96 94 98 94 87 80 75 71 64 66 70 70 73 84 87 86 84 82 80 85 92 98 98 100 100 99 94 96 90 92 94 89
62 70 69 83 71 82 85 98 95 96 95 94 96 95 94 94 93 93 94 93 90 83 76 62 58 58 56 57 55 59 61 60 62 65 71 74 74 72 73 81 92 98 100 100 94 100 100 100 100

GFSSGP_925_rhum_102.txt.gz
RH
42 56 63 53 62 80 79 66 69 58 48 37 38 33 33 29 27 41 72 84 90 81 92 86 92 86 86 86 84 86 87 89 92 97 93 94 97 96 95 95 94 91 89 95 95 98 95 93 93
67 66 54 68 80 47 36 72 69 59 47 44 39 30 31 31 39 72 80 87 88 83 89 84 86 83 85 85 83 85 86 89 88 89 96 93 96 97 94 95 95 89 93 93 95 99 96 95 95
68 61 65 77 86 56 42 60 54 48 49 42 34 27 29 54 70 75 74 82 87 87 87 85 87 84 85 84 80 78 81 84 84 86 91 87 93 97 95 95 92 92 87 93 88 91 94 95 90
54 58 73 78 88 76 62 58 55 46 37 34 30 32 28 80 81 96 77 86 87 83 84 81 88 80 81 82 83 81 78 80 79 84 85 86 90 97 92 86 91 90 90 90 87 77 78 75 68
54 70 85 86 83 75 67 57 43 39 38 35 32 30 29 67 42 91 100 93 91 85 81 79 85 69 66 70 78 90 87 86 83 80 88 84 86 93 88 87 91 93 89 87 88 79 68 69 70
78 73 69 70 79 66 58 48 40 34 34 32 37 36 35 32 29 66 100 73 77 77 80 78 85 78 68 63 61 64 85 82 83 81 83 86 85 93 83 85 92 93 89 86 90 92 64 70 71
78 69 72 80 78 64 50 40 37 38 40 32 37 35 38 35 26 35 99 81 71 79 73 70 82 82 75 68 65 64 64 76 79 79 81 81 82 87 89 83 92 90 88 86 82 76 67 67 70
76 73 86 79 78 66 51 46 35 38 39 35 34 44 44 32 25 26 60 81 72 74 79 74 73 76 73 73 68 71 79 72 70 81 85 85 84 87 90 84 86 87 81 83 72 68 64 63 69
58 81 85 70 75 59 51 55 43 34 41 33 33 35 32 25 23 23 25 34 80 72 76 79 78 80 76 72 71 76 79 86 78 75 81 84 85 88 91 82 88 79 79 78 81 58 50 54 69
74 76 70 64 59 60 56 47 41 39 39 36 36 33 27 26 26 31 34 34 30 67 72 64 77 81 83 75 71 69 79 82 76 73 78 81 84 88 91 85 84 82 78 79 82 59 46 51 68
68 77 69 60 53 47 48 47 37 38 45 40 38 38 34 31 30 34 30 28 27 30 65 73 66 72 81 78 72 70 73 83 83 72 77 83 86 90 93 86 87 87 76 78 83 72 50 47 62
47 48 49 45 46 49 46 41 42 43 40 34 36 37 36 37 41 37 32 26 24 22 43 80 72 66 68 75 77 72 67 62 61 78 77 78 86 87 93 89 86 78 75 80 79 81 58 46 44
47 55 55 53 55 51 46 51 48 44 37 35 37 39 40 39 35 29 26 24 24 21 20 69 99 85 76 70 74 75 74 74 61 53 78 79 77 74 91 84 80 77 74 77 85 88 73 56 49
61 61 63 56 54 52 52 47 43 41 39 39 36 35 40 38 32 30 30 26 24 20 18 22 75 100 87 78 76 80 75 73 73 58 66 66 66 75 90 85 84 80 77 78 92 90 85 73 61
61 57 56 47 51 46 48 49 59 40 37 38 37 35 35 38 32 33 29 27 20 18 22 20 42 98 98 85 78 73 76 72 65 64 67 68 68 68 80 87 88 87 80 82 91 88 87 85 72
69 60 53 36 52 47 40 46 37 36 39 40 39 37 38 40 34 29 26 24 20 20 23 23 38 73 98 91 88 91 87 77 70 76 72 69 70 76 78 91 92 88 89 89 93 83 83 86 76
68 59 67 64 51 53 52 56 48 44 46 48 43 41 39 38 41 30 26 25 24 21 21 22 25 75 87 93 87 86 85 84 82 75 66 68 73 78 82 91 91 86 89 98 97 91 87 84 80
56 69 75 78 58 57 68 66 52 47 49 50 50 50 48 43 42 33 28 25 26 25 20 21 32 71 88 92 94 96 96 90 88 84 80 78 80 90 95 95 95 81 81 95 78 85 92 87 84
65 80 89 77 63 75 77 73 64 56 58 64 64 60 54 46 42 35 31 30 29 28 24 21 37 72 92 95 100 100 93 78 76 77 83 80 78 94 100 100 100 87 85 69 75 72 84 80 78
82 94 92 78 67 70 74 76 66 62 68 66 62 64 66 56 53 49 40 37 34 30 25 27 32 68 87 87 86 94 96 96 82 82 81 72 73 80 95 92 92 79 80 77 78 70 79 82 81
93 97 89 88 68 67 79 89 69 51 55 55 72 70 66 66 61 59 52 44 47 67 63 51 63 85 89 89 89 93 95 94 93 82 78 71 73 74 81 87 85 81 80 75 72 70 87 84 79
100 75 77 79 92 96 81 94 72 66 82 77 72 80 75 76 76 72 87 88 87 88 93 95 94 99 100 99 99 100 97 99 93 85 77 81 86 84 86 84 84 92 91 94 93 82 85 83 80
79 69 81 84 98 98 87 97 79 78 78 85 84 94 89 88 93 96 93 96 94 99 99 95 99 100 100 98 100 99 100 99 99 97 93 90 90 92 94 90 92 96 97 99 99 98 90 82 76
66 86 88 90 87 97 82 92 78 94 93 84 85 86 86 93 97 96 97 98 100 100 98 100 98 100 100 99 99 96 96 96 100 98 98 93 87 88 89 88 90 97 98 100 100 95 96 92 90
82 99 97 89 94 86 95 96 81 88 82 89 92 90 94 96 96 97 96 96 97 99 99 100 99 99 96 99 97 97 99 98 98 100 100 98 99 99 98 100 99 97 89 98 100 100 100 94 93
86 90 99 98 98 93 94 95 95 85 78 81 88 92 93 96 96 96 93 95 97 99 96 94 95 98 100 98 96 98 98 100 100 100 100 100 99 100 100 99 100 96 93 100 99 99 98 96 100
85 95 84 92 83 99 92 96 91 83 88 87 89 90 95 96 96 95 92 95 98 99 100 95 93 87 86 96 96 97 97 96 99 100 99 99 96 99 99 100 100 99 100 100 100 100 100 99 98
84 81 90 85 99 94 90 97 98 97 100 96 96 96 93 92 94 95 94 95 95 98 91 85 87 84 81 77 77 80 88 86 84 84 89 89 89 89 90 94 99 98 100 100 98 100 100 100 100
82 81 80 88 94 98 97 96 97 99 99 100 96 96 96 94 96 96 96 97 99 99 92 84 75 84 82 79 73 67 69 72 78 70 70 72 74 79 82 88 91 92 98 99 99 100 98 100 100
67 72 76 94 79 87 91 90 84 92 93 96 97 96 94 90 94 93 95 98 96 99 97 96 89 84 82 72 64 61 59 62 66 68 64 65 64 63 69 72 80 82 84 84 91 96 100 100 100

GFSSGP_925_rhum_105.txt.gz
RH
35 54 61 44 41 51 48 44 66 54 48 37 38 34 31 30 27 35 74 81 94 89 96 91 78 80 86 87 82 88 88 87 90 96 92 92 98 94 96 92 93 90 96 97 97 95 89 95 92
63 61 49 50 47 27 24 62 61 56 45 42 37 32 31 29 44 62 77 90 94 97 98 97 78 83 86 87 82 86 88 86 88 94 93 89 98 96 96 96 94 87 93 89 93 92 93 94 96
66 53 55 53 63 31 29 57 53 46 41 39 31 27 29 70 54 83 92 99 96 96 96 87 84 81 84 87 82 80 84 86 87 88 92 89 96 98 95 94 89 88 91 89 94 88 80 89 90
55 54 59 55 51 58 49 54 51 38 33 31 30 28 44 35 39 64 95 100 98 98 95 88 83 80 84 86 83 83 82 84 85 84 85 88 92 97 93 84 89 90 88 92 90 87 75 75 79
52 55 68 69 66 66 62 56 46 36 33 30 31 28 29 40 28 36 98 100 100 96 95 93 85 83 84 84 83 81 84 83 80 85 86 86 85 92 92 82 87 88 92 91 87 88 59 57 63
69 54 52 48 62 62 55 48 40 33 34 30 33 36 34 33 24 26 79 99 100 84 79 83 85 85 80 83 83 85 85 83 82 80 84 85 83 88 92 80 86 90 90 88 88 70 60 59 60
67 50 51 64 65 62 50 41 39 38 38 32 34 36 31 34 24 23 32 87 93 86 80 72 76 86 80 73 69 72 82 83 82 79 78 79 83 84 91 80 85 91 88 86 84 73 65 65 65
68 64 80 75 68 52 52 46 36 37 37 31 32 40 38 30 24 23 25 29 74 84 89 82 74 72 70 69 68 66 63 66 77 84 82 83 84 85 89 81 83 85 86 86 80 86 66 69 66
58 55 62 61 71 51 51 50 41 34 36 33 29 36 32 28 24 24 24 24 27 46 79 90 86 79 74 70 69 67 65 62 60 69 84 87 90 87 91 89 83 87 84 85 83 76 67 69 69
65 52 50 59 59 59 54 49 41 37 39 36 32 30 29 26 26 35 37 35 25 23 26 67 79 82 80 77 74 74 72 77 80 74 74 81 83 84 91 89 82 88 82 78 79 77 70 67 84
69 56 65 60 54 44 45 44 38 40 41 36 32 32 30 31 31 35 35 34 27 23 23 27 77 78 79 82 81 78 74 76 84 80 73 78 81 84 95 96 93 94 83 85 81 74 69 61 66
46 52 50 46 44 49 46 39 40 41 32 28 32 32 35 33 34 38 37 31 26 23 22 21 56 78 81 76 83 79 72 76 83 81 73 78 82 86 90 97 98 97 91 82 83 85 59 53 61
48 55 52 50 54 53 47 51 45 40 34 32 33 35 36 35 37 32 26 22 20 20 20 20 25 77 99 100 80 81 77 69 62 63 78 80 81 78 79 82 94 92 89 85 78 82 78 56 53
61 60 59 56 51 52 52 48 42 32 35 37 37 36 34 34 31 32 31 28 25 18 18 18 18 34 92 97 99 82 82 84 81 67 54 69 74 69 73 76 93 97 88 82 78 84 81 75 57
61 45 47 42 50 49 49 50 55 35 37 37 34 31 32 32 33 32 31 30 26 26 17 16 17 23 67 96 100 96 74 65 80 76 65 60 66 64 67 75 87 86 83 84 84 85 89 92 76
60 50 36 38 51 49 39 44 35 35 39 41 39 38 38 36 33 32 30 27 25 26 24 16 18 22 61 98 100 99 89 57 58 60 67 73 74 73 71 76 84 88 88 88 87 88 99 95 87
56 40 56 53 51 53 49 53 43 40 43 47 45 43 41 41 40 39 38 34 28 25 23 22 22 22 33 97 100 100 96 92 80 86 86 78 74 74 78 80 81 92 95 92 90 88 96 97 90
44 58 65 69 54 59 64 65 54 48 51 53 51 49 47 47 48 44 41 36 29 28 26 26 24 23 39 88 100 100 100 99 98 95 86 78 79 76 82 86 98 100 100 100 100 100 97 99 92
64 75 80 71 60 71 73 70 61 56 58 58 50 49 51 54 48 49 40 36 34 30 32 30 27 23 61 100 100 99 97 100 93 97 89 81 77 77 95 94 98 99 99 100 100 100 100 90 79
80 91 89 70 67 68 69 72 61 63 64 58 55 60 69 61 59 52 48 42 40 32 32 30 32 34 62 85 100 99 97 83 71 73 77 79 75 72 90 97 99 100 100 99 94 94 92 98 91
89 96 84 78 68 68 79 81 64 50 55 63 68 78 82 83 81 76 64 57 46 42 37 34 31 29 40 95 100 96 93 90 89 83 80 79 79 82 90 98 99 98 92 96 84 85 82 80 84
98 76 76 80 90 91 71 88 70 56 67 71 71 79 79 78 79 87 91 85 90 81 74 68 67 75 64 95 98 98 99 98 99 91 87 85 86 86 90 92 94 98 96 95 90 86 86 90 85
70 69 76 78 96 97 88 96 68 70 76 74 71 79 81 87 86 88 96 98 100 92 87 85 91 99 99 88 99 97 97 99 96 99 97 84 84 87 88 89 91 97 98 96 88 94 91 94 95
72 86 87 86 89 92 82 88 74 87 94 83 80 79 82 91 91 92 98 98 99 100 99 99 100 98 99 98 100 99 98 93 93 90 95 100 96 92 94 97 98 100 100 100 100 99 100 100 100
81 96 91 85 91 83 87 94 80 85 87 83 90 90 91 91 92 95 96 97 99 100 100 100 100 100 100 97 97 97 99 99 100 100 99 96 100 100 99 99 97 96 98 100 100 100 100 100 100
82 88 96 95 97 90 91 97 78 89 88 87 84 85 87 90 93 94 95 97 99 100 100 96 98 98 100 100 100 100 100 99 99 100 100 99 100 98 100 99 99 100 100 100 100 100 100 100 100
87 86 84 98 87 94 85 82 86 77 84 93 94 94 92 91 92 94 92 96 98 98 98 93 92 90 83 82 85 87 85 80 75 80 84 91 92 92 99 93 95 98 98 100 100 100 100 100 100
86 80 83 90 92 96 82 91 92 95 98 96 98 98 95 90 92 93 94 98 98 98 93 90 88 89 82 71 70 74 79 84 82 70 70 72 72 73 81 80 83 90 89 92 99 100 100 100 100
95 90 88 82 89 96 96 80 88 99 98 98 97 97 97 93 94 94 94 97 99 98 94 95 85 85 76 70 59 55 62 62 65 73 66 56 56 59 65 75 69 74 81 83 85 88 96 99 99
68 72 74 86 80 85 90 84 83 90 93 95 96 96 95 90 91 91 92 94 96 95 95 88 83 79 72 61 52 50 36 38 39 38 37 38 32 31 31 39 51 64 71 81 85 89 85 86 92

GFSSGP_925_rhum_108.txt.gz
RH
47 61 59 36 26 24 17 26 37 36 34 29 28 26 25 23 23 29 59 80 83 83 84 86 81 84 84 75 67 71 81 83 87 88 88 89 96 93 96 94 88 97 96 94 89 90 90 84 88
62 57 42 31 24 16 18 34 37 39 33 28 26 25 25 27 47 45 62 76 89 86 82 84 81 81 84 85 80 80 82 82 84 85 85 85 92 98 95 94 93 95 95 91 92 92 84 89 95
61 48 33 27 20 16 21 34 34 33 28 26 24 20 25 43 34 42 47 83 92 86 83 85 83 82 85 86 83 84 84 83 83 88 87 82 89 96 97 96 90 84 93 87 91 87 74 77 90
48 39 31 28 20 30 31 36 34 28 25 21 21 23 40 31 32 35 59 97 97 86 83 85 83 82 83 85 84 83 85 85 84 84 87 88 89 96 93 86 86 85 91 89 90 81 68 58 62
42 34 30 28 28 35 36 39 37 28 25 22 22 23 25 30 29 33 56 98 98 94 84 82 82 86 86 85 86 83 82 83 85 85 84 89 87 91 88 83 87 90 89 89 87 82 72 66 70
37 30 22 20 26 34 35 34 32 27 25 23 24 25 26 31 28 34 40 84 97 99 87 84 85 81 85 88 88 85 80 81 82 81 85 85 84 87 90 84 82 89 89 89 86 87 62 63 66
31 23 21 24 26 30 34 30 28 28 27 24 25 27 23 28 28 33 37 45 88 99 99 83 81 84 80 77 79 81 85 84 82 82 80 84 85 84 86 87 79 89 88 86 86 76 59 63 66
35 25 31 31 25 29 39 35 30 31 28 25 23 26 26 24 26 30 32 40 42 60 94 99 87 84 78 76 72 68 74 81 85 82 81 80 86 87 86 89 81 86 86 86 84 78 59 64 68
42 21 26 33 34 34 38 36 34 28 28 23 21 23 22 20 28 27 28 32 37 38 42 63 97 96 82 78 78 70 63 62 68 81 83 87 84 78 85 89 89 82 87 85 83 81 63 63 66
33 23 24 33 35 37 39 36 31 26 21 19 18 16 18 20 20 22 24 26 32 34 36 39 56 98 98 86 86 82 79 78 73 74 78 83 76 72 74 80 88 86 89 88 84 85 74 70 69
44 29 39 44 44 39 36 27 27 25 19 15 14 12 14 18 19 21 20 20 25 31 36 36 37 83 98 99 95 94 80 70 81 76 83 81 77 78 82 80 92 95 94 95 92 97 89 81 63
34 43 40 39 37 36 33 29 26 24 17 14 15 17 20 20 20 21 21 19 18 21 29 35 33 44 94 100 100 100 87 85 75 86 80 82 78 84 76 73 85 93 92 88 87 82 78 70 69
32 36 36 35 38 35 32 34 29 22 17 15 17 21 22 21 22 21 22 22 23 22 23 27 34 35 62 97 98 99 98 76 75 84 86 80 81 84 82 83 86 87 91 90 89 83 76 70 67
38 40 34 36 33 35 36 29 35 18 21 22 23 23 23 24 24 25 24 25 25 22 24 26 27 30 44 76 94 98 100 87 73 69 78 84 87 88 93 91 92 87 91 90 87 89 92 79 55
38 28 29 32 34 34 36 32 38 22 24 27 29 31 30 29 28 28 28 28 26 25 23 25 24 25 34 57 93 98 100 100 80 78 77 76 81 84 88 92 88 92 96 84 86 89 91 89 74
29 27 17 28 37 40 37 25 23 21 29 32 34 30 28 27 28 29 29 29 28 28 28 25 24 23 31 44 87 98 99 92 71 55 57 69 75 74 80 80 85 88 86 89 92 98 92 95 92
24 16 23 26 40 42 41 38 30 28 32 37 34 30 29 28 28 30 34 34 34 32 31 30 30 28 30 42 74 99 99 95 85 85 79 72 78 82 84 80 79 79 90 97 95 96 97 100 100
22 26 33 36 36 43 47 44 36 35 38 40 34 31 31 36 36 38 44 43 40 38 36 35 33 31 35 50 76 99 100 100 97 93 93 71 84 88 86 82 81 86 96 98 95 96 98 97 98
47 50 50 36 42 56 48 48 42 40 40 37 38 39 42 45 48 56 57 47 46 45 44 40 37 38 36 57 94 100 99 100 99 99 100 93 66 74 88 87 90 98 98 96 97 99 98 100 100
57 59 48 46 49 55 52 54 45 45 46 47 49 51 56 55 59 59 65 65 49 46 46 44 41 43 35 64 98 99 100 100 99 96 99 100 98 92 92 90 88 97 96 99 95 98 97 95 90
62 71 60 69 58 47 58 50 46 39 40 47 44 51 57 59 67 62 61 68 69 64 53 47 43 45 47 61 97 98 98 99 96 94 91 96 94 96 94 92 91 98 99 94 98 89 88 75 76
76 55 60 71 80 78 55 73 41 41 42 46 49 59 66 64 65 65 65 82 91 85 80 73 59 61 58 73 96 98 89 86 93 93 95 97 96 96 98 100 98 96 98 99 95 92 87 84 77
61 58 64 72 87 84 66 85 46 44 52 61 55 67 75 82 82 84 82 95 97 99 92 85 74 76 88 80 83 96 97 100 96 92 94 97 95 96 95 98 99 99 96 99 96 97 98 92 89
57 73 77 76 79 89 70 74 49 55 77 82 69 78 81 83 83 82 87 94 98 100 100 100 99 99 100 93 98 93 98 100 100 99 99 97 92 97 98 100 99 100 98 98 96 96 96 98 100
75 80 82 84 90 69 72 90 67 55 85 82 91 86 82 83 86 90 87 94 98 98 99 99 100 100 100 100 100 100 100 100 99 100 100 99 99 99 99 99 100 100 97 99 96 98 96 98 100
61 65 81 92 76 66 74 93 62 70 69 74 84 88 84 84 85 89 91 95 97 98 95 94 95 96 98 98 100 99 98 93 88 90 94 93 96 95 90 93 97 99 99 100 99 98 99 99 100
68 77 74 92 79 84 64 77 56 63 67 77 81 94 95 87 87 91 91 92 94 95 97 91 84 85 84 86 89 97 96 75 78 69 65 70 69 74 73 74 78 82 90 88 94 97 99 100 100
68 72 75 80 84 76 56 62 72 81 95 87 92 96 96 84 86 88 92 96 95 94 94 92 83 81 72 63 72 79 76 81 76 67 59 54 54 53 50 51 59 63 71 80 80 84 88 93 96
82 76 75 62 64 72 57 52 74 83 84 89 95 95 96 88 90 90 91 94 96 95 96 91 85 80 68 56 53 47 42 43 59 61 51 51 49 48 46 45 46 49 57 64 69 74 85 83 83
55 54 52 54 61 61 64 58 63 74 77 79 94 95 90 86 89 90 91 94 96 96 94 91 91 76 66 65 59 50 43 46 53 54 52 53 53 42 45 46 48 49 54 58 73 80 83 89 91

GFSSGP_925_rhum_111.txt.gz
RH
50 48 42 31 26 19 14 18 22 25 24 22 23 23 21 20 21 37 45 56 72 76 82 84 82 77 75 62 68 78 79 79 86 89 91 90 92 96 93 90 79 94 94 94 90 94 96 86 86
48 44 35 25 29 18 15 21 25 26 25 22 21 22 21 27 34 33 44 44 78 78 80 84 80 79 81 73 65 72 81 84 87 88 88 88 88 92 97 95 81 92 94 92 89 95 91 84 85
54 40 27 23 16 17 21 23 26 27 23 22 21 18 22 34 29 31 35 68 84 76 73 83 84 78 82 85 78 76 74 82 81 83 85 84 83 85 96 95 89 84 96 86 90 88 81 81 80
38 31 23 27 16 24 24 25 24 24 22 19 19 21 30 30 30 32 43 81 87 88 74 84 84 79 82 85 82 82 81 81 80 84 86 86 86 85 93 90 84 82 91 87 89 84 74 67 82
37 27 25 21 20 24 25 28 27 22 20 18 19 20 23 27 30 34 42 64 93 91 89 76 77 81 86 86 86 84 83 85 84 85 84 85 87 88 88 88 83 79 87 86 83 82 54 54 64
30 25 21 20 20 25 25 27 25 21 20 19 19 21 22 27 29 32 36 46 84 97 90 79 82 80 86 85 86 85 84 81 82 83 83 85 87 86 89 87 84 87 86 86 81 77 58 57 59
28 22 18 16 20 24 25 22 20 20 19 18 21 22 20 27 24 28 31 40 47 71 95 96 79 80 77 82 85 85 82 78 78 79 80 81 83 85 84 87 85 83 86 86 86 77 67 63 62
26 21 21 18 18 26 29 25 24 24 20 20 18 18 20 20 20 25 27 33 40 44 49 68 87 85 76 69 70 74 81 82 82 80 80 81 80 81 83 82 88 80 83 88 87 78 64 61 66
29 22 20 22 20 28 28 26 25 22 22 16 15 17 16 16 16 19 21 27 32 38 40 43 53 88 90 79 70 73 65 69 79 80 79 82 90 76 83 85 87 85 79 85 86 83 70 65 70
25 22 19 24 26 26 28 26 22 20 15 14 12 10 11 13 14 16 16 18 21 28 35 38 40 51 86 90 83 76 70 73 71 69 70 78 71 64 59 65 76 87 83 88 89 88 79 66 77
27 25 26 31 34 30 27 21 20 18 15 10 11 12 12 14 15 17 16 15 15 18 25 32 38 39 66 96 88 87 82 76 72 65 64 65 62 64 65 67 84 86 89 91 96 97 96 83 62
30 31 27 32 32 28 24 22 20 16 15 12 13 13 15 16 17 18 18 18 17 18 20 22 30 39 40 85 93 86 89 92 88 81 66 66 67 66 66 67 66 85 94 95 95 93 87 77 69
22 24 26 27 29 25 21 23 21 19 14 13 16 18 20 19 20 21 22 22 21 20 20 21 24 31 37 44 93 99 88 91 86 80 75 66 69 69 72 69 70 80 88 94 93 89 84 72 64
24 28 24 26 24 25 29 23 27 15 17 19 21 23 23 24 25 25 24 25 25 24 23 22 21 23 29 36 56 92 98 94 86 83 83 76 78 80 81 81 79 84 91 90 88 88 86 76 66
24 24 24 26 27 28 31 31 29 19 18 23 21 24 26 24 22 22 22 23 22 22 22 24 24 22 22 26 37 65 96 90 90 84 82 67 72 78 84 84 86 85 89 89 90 88 90 87 80
23 20 20 25 29 33 35 22 18 17 20 24 25 26 24 22 22 24 24 26 26 26 25 23 24 24 22 20 28 48 87 98 94 89 89 76 72 74 82 80 80 80 79 83 86 93 88 86 89
18 18 16 29 31 34 36 29 20 21 25 28 28 26 23 23 25 33 36 36 34 33 31 29 28 29 28 25 24 35 77 95 90 90 78 68 63 66 69 80 81 78 76 78 83 87 93 92 96
22 17 20 21 31 36 38 35 27 26 28 31 29 26 26 30 38 42 48 50 51 39 38 36 34 31 30 28 30 39 76 93 92 76 76 80 63 72 74 70 72 82 79 84 88 91 93 88 90
31 30 30 24 34 48 38 37 32 30 35 30 32 32 34 41 40 47 52 51 53 53 41 40 40 36 34 33 35 47 84 95 96 79 76 81 84 83 92 58 75 80 90 88 88 86 92 94 92
43 42 35 37 41 47 45 46 35 37 36 35 37 39 47 51 49 51 53 55 59 64 59 50 41 38 36 38 37 57 82 86 96 99 99 85 85 92 92 84 72 84 92 93 94 94 97 98 96
48 56 52 63 52 42 48 41 41 34 32 33 33 40 56 64 65 61 65 72 74 75 72 70 58 40 37 38 48 71 84 94 98 96 96 95 95 90 86 89 89 85 90 94 97 95 92 97 91
62 46 54 61 70 70 47 61 33 31 33 33 43 47 72 71 65 64 74 83 88 93 92 91 70 58 46 48 52 73 91 93 87 87 83 86 87 86 87 90 88 86 89 91 92 94 90 92 90
58 53 59 64 74 73 57 73 35 35 37 37 54 60 71 72 71 75 78 89 91 97 100 100 86 71 61 60 62 77 88 89 73 86 94 92 89 89 92 90 93 92 93 92 93 95 94 94 92
52 64 69 63 64 87 65 62 38 39 50 61 63 70 73 76 77 75 78 86 93 95 98 100 99 100 98 73 83 96 93 85 96 99 100 100 99 100 99 99 97 100 100 99 97 94 92 94 95
63 70 81 80 85 71 59 81 62 39 56 64 76 79 79 78 81 82 86 87 93 96 95 97 98 99 100 99 85 89 100 98 98 100 100 100 99 97 96 96 99 100 99 99 99 100 100 98 97
52 56 77 84 69 62 67 86 56 49 50 60 66 76 81 83 80 84 87 87 94 95 95 83 90 94 100 100 92 98 98 98 97 99 94 94 97 87 83 84 90 89 91 91 94 100 100 100 99
57 65 58 84 58 76 59 70 47 47 46 61 68 79 91 84 80 84 88 91 91 93 98 79 69 73 68 80 91 92 92 88 88 84 73 63 62 63 60 61 61 65 68 74 82 88 89 90 96
62 55 67 78 74 68 47 49 56 61 88 63 69 82 88 81 85 84 88 92 94 92 93 94 81 63 63 56 53 58 64 63 62 59 47 43 40 44 40 44 41 43 41 55 60 76 74 81 81
74 65 64 49 49 62 44 42 63 73 68 69 69 79 92 84 87 86 86 91 93 93 91 87 85 79 66 56 47 49 43 35 32 41 45 47 38 38 39 39 40 44 47 50 54 46 60 62 70
49 47 43 49 43 48 46 48 49 55 61 66 71 78 82 82 84 85 86 87 86 89 83 65 66 62 52 48 54 52 52 49 47 43 42 43 44 42 42 42 40 42 44 49 51 55 57 60 63

GFSSGP_925_rhum_114.txt.gz
RH
48 45 44 35 47 36 31 29 24 27 24 24 22 25 27 30 39 72 41 53 75 80 82 80 80 76 70 63 76 80 79 80 85 88 87 90 91 91 84 76 70 86 91 91 86 93 90 81 82
50 40 38 43 44 33 27 24 26 32 28 22 21 23 22 47 32 32 37 55 81 85 82 83 83 80 77 68 64 76 82 79 85 87 89 88 89 89 92 86 72 97 96 93 89 89 92 85 80
54 41 46 43 31 30 34 25 35 28 22 21 20 18 32 42 32 32 40 70 84 84 81 79 84 78 78 80 74 71 74 80 83 82 84 86 84 87 83 96 74 81 95 90 89 92 85 83 73
43 40 38 39 30 27 29 30 24 26 22 19 20 35 33 29 30 35 42 53 87 86 90 84 84 81 78 80 83 80 78 78 83 83 82 86 84 87 82 86 76 68 93 89 87 86 82 71 68
40 42 41 29 28 24 31 29 25 22 21 20 20 22 38 29 32 34 38 49 82 85 90 88 82 80 77 82 85 86 82 81 82 78 81 85 85 84 85 90 83 70 80 84 80 82 78 54 61
45 38 37 34 28 28 28 26 23 20 20 20 21 24 37 28 28 29 32 42 51 75 87 91 92 80 76 81 83 85 85 82 82 83 83 82 83 84 84 86 85 82 74 84 84 79 67 47 54
48 37 32 21 33 29 27 22 21 23 20 25 21 24 33 27 23 25 27 32 42 46 62 75 83 88 84 74 75 81 84 82 79 78 79 78 79 78 79 83 87 83 83 85 86 84 70 47 54
45 34 22 22 26 35 29 24 25 24 24 18 18 22 25 18 14 18 20 25 33 41 41 50 67 81 80 84 83 71 71 76 80 80 79 79 79 78 78 78 78 83 79 79 85 88 82 58 56
28 41 31 25 23 36 27 26 25 21 24 17 14 16 14 12 13 15 17 19 22 25 36 38 41 53 78 75 81 83 75 66 74 80 79 81 79 76 78 70 67 74 82 75 84 88 87 60 56
35 39 36 30 34 32 29 25 22 21 18 16 16 13 11 12 14 17 18 18 16 17 23 29 36 38 46 82 84 86 86 76 64 61 65 74 74 80 75 74 74 72 75 79 81 88 89 73 60
27 38 27 33 36 30 27 22 19 21 22 14 16 16 15 15 16 18 18 18 17 16 17 19 23 30 37 46 78 80 80 80 77 72 69 68 70 69 65 64 71 80 81 84 86 91 93 87 65
32 30 27 32 33 28 27 23 22 21 21 15 14 16 17 20 22 22 22 21 22 22 21 20 20 22 30 36 56 65 84 75 78 75 71 73 66 64 67 66 70 68 77 83 88 96 94 90 79
23 24 24 28 28 25 22 26 25 24 20 16 17 21 24 25 25 25 25 25 25 25 25 24 23 23 22 32 36 63 77 88 78 83 82 67 69 67 67 65 69 74 82 86 89 94 94 89 84
25 25 24 25 23 24 31 28 26 19 17 18 21 25 26 29 27 24 22 23 23 24 24 23 24 24 23 23 28 35 73 83 89 86 84 79 74 72 71 72 72 79 80 87 91 88 90 83 82
25 28 27 28 26 28 35 38 35 24 18 21 24 23 28 28 23 25 30 32 30 30 30 28 26 23 23 23 22 28 34 73 84 90 80 76 72 76 76 75 74 77 78 81 83 89 90 84 82
26 20 31 29 29 36 36 35 26 19 19 26 27 28 29 27 24 34 41 44 47 49 39 34 33 30 28 26 26 21 28 47 77 84 86 81 75 64 72 81 81 80 80 82 81 87 89 94 88
22 30 22 38 30 34 39 42 30 25 26 30 31 31 28 29 41 42 47 50 50 53 54 44 39 37 34 31 31 28 24 36 65 81 86 90 86 73 69 79 80 84 86 85 83 83 81 77 83
41 21 20 23 41 36 44 44 34 30 29 36 35 31 36 46 52 49 51 54 58 61 61 63 53 41 40 36 34 32 30 30 69 75 84 89 90 79 75 72 77 76 72 75 81 82 71 79 84
36 33 33 29 41 49 50 46 41 36 35 37 35 39 53 56 52 55 59 69 74 74 74 78 75 68 44 40 38 36 34 40 72 75 86 88 81 70 71 74 69 63 56 59 50 68 85 88 88
47 44 50 49 41 50 54 55 45 39 36 34 37 56 66 68 66 61 65 73 80 87 90 90 86 81 75 42 39 38 38 62 72 66 76 76 83 80 78 70 75 71 75 82 86 83 89 91 90
50 63 61 65 57 53 56 62 47 40 34 36 39 64 70 76 73 71 71 76 86 90 95 97 96 87 83 70 40 40 41 59 69 79 78 82 88 81 77 71 78 77 78 84 85 83 88 99 92
67 49 55 64 80 92 57 87 43 45 42 37 55 66 77 80 74 67 75 78 84 93 96 97 98 99 86 68 52 47 52 74 73 74 68 82 86 80 84 86 89 87 78 87 85 83 85 77 99
64 55 63 65 71 77 61 86 51 38 39 57 62 69 76 79 76 74 81 84 88 93 98 98 98 98 84 76 63 62 72 78 72 81 86 89 89 98 100 91 91 94 94 92 88 88 90 94 87
50 68 68 60 67 87 83 74 62 49 52 60 66 72 78 77 78 78 82 85 90 92 91 90 93 99 97 98 97 90 94 98 76 86 97 98 100 99 100 100 98 99 100 99 96 96 98 100 97
66 92 96 92 92 94 67 91 80 47 62 62 71 75 78 79 80 83 85 88 92 94 89 83 82 89 100 99 98 100 98 99 99 96 93 98 94 99 99 99 97 96 97 96 95 100 99 100 99
54 59 92 91 93 88 79 92 80 55 56 63 62 71 75 77 79 84 86 91 93 93 90 77 70 65 74 92 98 100 89 84 98 95 94 88 94 84 78 68 72 76 81 82 86 93 94 92 98
58 68 56 86 74 86 84 76 60 52 53 60 63 66 77 81 81 84 87 91 93 92 94 85 71 60 54 55 63 68 76 75 63 54 57 56 58 55 44 40 38 39 46 49 57 63 67 67 82
68 55 81 81 93 87 73 67 81 71 68 68 65 74 78 79 84 83 86 90 90 91 88 80 73 71 57 47 44 42 40 41 43 37 37 38 39 39 37 37 39 35 39 42 45 44 49 48 55
81 80 69 57 60 88 75 71 72 71 83 73 67 77 79 85 85 85 85 87 88 88 78 73 66 58 51 51 50 47 46 45 41 40 42 43 41 39 39 39 39 42 44 49 51 51 56 56 57
52 59 60 80 55 63 63 71 53 59 64 71 70 75 82 75 83 85 85 83 80 72 69 58 52 49 46 44 44 46 47 47 48 46 41 34 34 37 35 35 36 36 39 41 47 49 52 53 58

GFSSGP_925_rhum_117.txt.gz
RH
46 45 51 47 46 48 40 30 28 27 31 26 24 28 41 45 55 82 44 66 79 80 87 81 77 77 77 70 73 76 80 81 84 89 88 93 92 89 80 67 68 92 91 86 89 94 92 83 81
46 44 47 56 55 38 38 32 42 35 28 25 23 24 32 47 36 38 45 61 84 88 88 86 78 81 73 67 66 76 79 82 83 86 87 88 89 89 82 78 68 87 93 95 88 90 92 84 78
49 48 56 57 44 42 42 40 37 28 24 24 23 33 41 43 35 38 44 59 83 86 85 85 85 81 77 77 72 74 77 80 83 84 82 84 87 88 86 78 74 80 96 88 85 90 90 85 71
50 47 47 47 36 36 37 31 30 27 23 22 23 41 36 32 34 37 44 59 80 83 86 86 83 86 76 76 80 80 80 78 82 83 81 82 84 86 92 81 78 66 93 91 89 88 84 78 65
50 56 50 34 31 40 37 30 26 24 23 22 22 33 42 34 32 33 36 44 60 83 91 90 87 84 81 75 78 80 81 81 82 84 85 85 85 85 86 84 81 73 75 87 84 85 84 70 58
57 48 48 44 35 34 31 27 25 24 21 23 27 29 42 31 26 27 31 34 42 53 73 90 88 87 82 80 80 79 80 80 81 83 81 82 84 84 85 82 84 77 64 75 86 84 82 61 51
53 45 41 35 41 34 31 23 30 28 25 29 23 25 40 29 22 22 23 23 37 39 44 59 82 88 88 84 83 77 78 79 78 77 79 81 81 82 78 80 81 80 71 73 86 87 82 58 46
48 40 29 28 38 43 30 28 27 30 29 22 19 26 34 17 17 15 16 17 23 28 33 37 48 64 82 87 83 82 77 76 76 78 77 77 78 76 77 78 76 77 80 76 81 85 86 74 45
32 41 41 41 38 40 29 31 27 22 24 22 16 15 16 15 14 14 16 16 16 18 25 29 26 39 48 74 85 86 83 78 72 70 72 77 80 78 76 73 70 70 72 78 75 82 89 86 64
46 53 39 39 37 36 30 26 23 22 23 18 16 14 13 14 15 18 19 20 19 18 19 21 24 23 26 37 65 82 89 89 84 72 59 60 62 64 68 71 74 74 72 77 76 80 90 89 73
29 41 37 45 36 31 26 23 23 23 20 18 16 17 18 17 18 21 22 22 22 23 23 23 22 20 21 20 30 50 75 88 87 78 74 70 66 70 70 72 76 75 79 81 83 82 92 91 83
37 32 34 36 33 31 29 26 25 23 23 19 18 20 20 22 24 25 27 27 24 24 24 25 25 24 24 22 22 29 41 54 84 82 82 82 75 71 68 66 68 68 73 76 80 82 86 90 89
32 29 28 33 29 27 24 27 27 26 23 21 18 19 25 28 29 26 25 27 31 33 32 30 28 25 24 26 23 22 26 38 53 82 76 77 76 75 70 68 70 71 74 76 81 86 87 90 91
28 29 31 28 25 24 31 33 33 23 20 19 19 25 30 29 27 28 39 42 45 46 49 46 34 30 29 24 25 24 22 29 38 52 82 81 79 74 76 69 67 68 74 79 82 83 90 92 92
26 29 27 29 27 31 37 33 40 26 22 22 23 26 30 29 32 46 49 50 50 50 52 57 52 43 35 34 31 27 25 22 29 46 62 86 86 86 75 73 67 68 80 85 84 79 86 93 93
27 24 36 30 29 35 29 18 27 27 25 24 27 30 29 46 51 52 52 56 60 63 62 59 59 61 52 39 36 34 30 29 24 32 54 60 81 85 81 73 72 71 77 81 82 81 83 86 89
29 33 30 36 30 36 35 34 32 32 30 34 34 32 46 58 58 59 64 65 64 65 68 70 67 64 68 62 44 38 35 33 30 26 43 65 72 78 78 79 74 73 75 74 78 84 86 86 86
43 30 27 32 39 39 45 51 40 38 38 39 36 53 63 63 67 62 64 64 68 72 81 76 74 76 72 68 61 43 38 35 32 32 38 74 71 80 85 76 77 78 81 82 81 80 85 85 85
40 39 40 43 41 52 55 56 48 45 44 40 47 68 76 74 66 64 68 72 77 80 88 88 90 82 92 91 81 67 42 38 36 39 59 65 71 75 87 74 80 88 87 83 78 72 74 74 73
51 50 68 53 47 57 64 62 51 50 49 43 62 80 81 79 78 70 73 78 81 85 90 93 96 96 100 100 98 80 63 41 40 43 54 48 45 68 88 82 89 89 84 79 64 62 71 76 74
61 65 65 70 67 62 65 71 50 42 38 44 73 76 78 80 85 79 75 83 86 87 90 96 99 99 99 99 82 68 67 46 47 68 66 63 74 76 73 78 81 82 74 69 68 68 77 82 81
65 55 60 72 83 86 63 79 66 51 46 47 71 84 82 82 82 75 80 87 88 89 85 89 93 95 99 100 94 81 74 71 81 83 85 91 94 87 91 90 79 72 73 72 67 72 78 81 90
68 58 67 69 78 84 74 90 71 51 53 64 72 76 80 79 83 84 86 86 87 87 84 87 84 92 100 90 99 100 100 99 96 94 95 99 87 91 93 93 92 96 88 86 100 86 95 99 97
55 71 74 60 65 94 81 84 68 57 49 65 69 76 79 82 84 80 83 84 89 85 80 77 74 74 94 100 99 100 99 98 100 93 98 100 98 100 89 82 100 96 100 100 100 100 99 98 99
68 92 96 91 98 91 74 87 76 54 64 64 70 76 79 82 86 83 86 89 91 90 82 75 68 59 64 79 97 99 99 99 99 95 98 100 99 97 90 92 91 90 99 98 98 96 97 96 99
77 71 89 62 95 90 83 90 67 58 65 70 68 77 75 78 85 85 87 89 90 90 86 75 68 55 54 59 68 76 84 84 81 74 73 78 92 81 77 80 84 87 82 77 81 79 80 82 85
69 79 65 88 84 93 88 73 64 65 73 72 72 77 77 79 72 77 86 88 88 86 88 78 66 55 46 41 46 42 44 47 53 57 52 48 47 46 55 51 52 55 46 45 44 50 51 51 58
69 66 83 89 88 89 82 71 76 76 73 71 75 81 82 78 82 77 86 87 87 84 81 76 64 54 52 50 47 46 44 43 40 38 39 41 38 36 35 36 38 40 45 48 46 52 52 54 60
84 85 78 73 80 89 88 77 66 72 70 68 75 78 86 83 85 86 84 83 84 82 76 64 55 48 44 42 42 44 46 45 42 39 35 31 31 32 32 31 31 33 35 44 41 45 48 53 58
72 76 72 86 66 76 78 81 54 66 66 74 71 78 85 85 83 88 86 84 82 78 72 54 49 47 43 45 44 43 41 39 38 34 30 29 32 33 34 35 36 35 33 43 41 35 39 48 50

GFSSGP_925_rhum_120.txt.gz
RH
45 47 47 45 34 46 39 33 34 34 32 28 27 47 52 48 63 77 48 55 85 84 78 86 78 78 76 76 78 81 81 82 86 91 87 90 89 85 74 60 74 94 91 86 91 94 97 84 86
47 48 46 53 52 36 43 41 40 34 29 26 24 34 49 48 38 40 46 54 85 85 80 90 83 83 75 68 64 79 82 83 84 88 87 88 92 90 81 69 61 87 95 91 85 92 94 79 85
48 52 54 52 51 45 54 41 34 27 26 24 26 41 43 44 36 40 46 61 83 84 82 80 83 84 78 76 68 66 78 84 84 87 86 87 87 90 90 80 61 74 92 90 84 91 91 83 70
48 47 44 49 38 41 40 35 30 27 26 24 30 46 37 36 36 38 44 50 79 77 80 84 78 85 83 80 80 77 74 76 81 84 83 80 84 88 88 89 80 60 82 90 89 88 91 80 66
51 54 48 41 41 41 36 31 25 26 24 26 25 42 42 36 33 33 33 39 49 71 87 91 84 78 82 79 79 80 80 80 80 82 86 84 82 84 86 85 84 76 64 88 89 86 88 81 63
57 50 52 44 44 39 30 28 25 27 29 27 28 44 42 33 26 28 27 28 37 41 50 80 90 88 81 79 79 79 79 80 81 80 81 80 83 84 86 86 83 81 68 70 90 89 88 84 60
52 49 46 46 44 37 31 26 32 30 30 29 24 34 40 29 26 24 18 21 29 32 31 36 52 86 92 90 86 82 74 78 80 80 79 80 83 84 84 83 82 82 80 63 76 87 87 84 59
53 41 29 39 42 41 32 30 30 30 28 24 21 32 41 19 18 16 15 16 17 20 26 32 26 31 42 75 89 90 83 80 74 76 76 75 75 77 78 78 79 79 81 76 74 85 85 82 69
34 48 47 40 41 41 30 32 24 23 23 23 18 18 17 16 16 16 18 19 19 18 19 20 21 19 19 23 35 71 89 86 82 78 73 72 76 75 76 75 73 74 74 77 81 79 84 85 84
46 53 43 42 37 36 29 26 24 20 23 18 16 15 16 17 19 22 23 24 24 25 25 26 26 25 23 19 18 22 48 87 92 89 83 72 67 73 72 70 68 69 71 73 78 82 79 88 91
35 44 45 44 34 30 26 24 25 23 18 18 17 17 18 20 23 24 27 28 31 30 29 27 27 26 26 26 25 23 20 30 54 81 87 80 74 69 67 69 73 71 78 82 79 82 84 90 91
40 33 38 40 31 28 28 25 23 24 19 20 19 20 20 26 26 28 31 32 36 34 34 34 33 30 29 27 25 26 24 22 22 34 66 93 88 78 74 72 72 71 75 75 79 78 78 82 91
34 30 35 34 29 26 25 24 24 26 24 23 22 21 24 27 30 32 39 46 47 48 49 49 50 48 40 34 32 29 28 27 24 23 30 51 84 86 84 77 73 68 68 70 74 79 79 80 87
30 35 34 27 26 25 32 31 33 21 22 21 21 23 27 33 37 50 52 56 59 59 58 57 55 56 56 50 36 34 33 30 28 25 25 32 46 72 80 79 77 73 70 72 74 77 83 84 87
29 30 28 29 28 31 37 26 40 28 22 22 24 26 36 54 56 59 63 66 66 64 62 61 62 56 54 56 58 42 35 34 31 28 27 26 30 55 79 80 73 78 78 73 75 79 80 80 91
27 29 31 30 30 35 25 16 23 30 26 26 26 30 60 62 63 66 66 66 66 64 64 68 66 66 68 69 64 65 50 39 34 33 33 31 28 45 69 75 84 74 77 76 75 76 77 82 96
40 33 29 33 32 36 34 24 27 31 35 38 38 47 64 68 67 68 69 69 70 68 72 73 73 74 79 84 79 67 61 46 40 36 33 32 31 31 70 76 83 78 75 76 77 80 80 86 98
41 27 29 33 40 40 45 50 42 39 41 44 42 66 69 72 73 71 70 70 68 71 76 78 78 82 86 91 95 76 63 56 44 39 37 38 44 69 78 78 78 86 84 77 77 79 78 80 81
40 38 39 47 44 59 61 57 47 47 50 50 58 77 75 74 73 69 72 73 76 77 84 85 95 96 100 97 98 98 87 71 59 42 42 45 54 61 57 59 71 85 92 82 72 72 79 85 86
48 49 62 55 50 63 66 68 55 56 56 51 66 82 77 78 81 74 76 76 84 84 85 88 99 98 97 100 100 100 93 71 67 60 60 64 62 56 53 69 87 99 100 98 94 95 93 88 81
64 63 65 70 71 61 68 56 53 44 59 73 78 78 78 79 84 83 79 82 86 85 86 88 87 96 99 100 100 100 82 77 80 81 86 95 95 100 96 89 85 94 99 100 100 97 93 87 80
61 57 64 75 81 71 63 66 59 54 51 72 77 80 79 79 82 84 82 84 88 84 84 77 72 87 99 98 98 100 100 99 100 100 97 100 99 99 100 99 88 90 90 100 99 92 84 92 89
68 59 67 71 78 84 73 90 70 55 58 64 79 80 81 78 83 86 85 83 86 84 84 70 66 66 80 90 94 98 98 100 100 99 99 99 100 99 98 100 100 91 98 88 100 94 97 89 83
60 74 76 66 79 91 80 85 77 59 52 61 70 75 81 80 83 84 83 85 83 83 78 72 61 63 71 78 84 87 92 100 95 95 99 99 91 89 92 96 100 100 96 77 89 97 100 99 99
73 78 83 68 94 87 78 88 80 52 59 60 67 75 82 82 84 88 88 88 85 85 79 65 49 49 48 53 60 68 68 74 74 79 91 81 81 73 78 75 80 87 97 100 84 84 100 97 99
78 72 82 48 85 90 81 94 66 56 58 65 70 75 82 79 86 88 85 87 87 83 81 67 56 49 44 38 38 39 39 47 51 59 68 62 57 56 63 75 66 64 69 76 87 88 94 97 88
70 83 66 85 90 96 89 72 59 67 74 77 79 85 85 84 84 80 82 86 87 84 82 73 70 55 51 49 47 44 43 40 39 39 40 39 36 36 33 44 51 53 56 64 68 71 73 69 59
68 66 81 90 71 80 79 74 70 78 80 77 78 83 83 84 83 84 83 85 83 82 78 73 62 52 49 44 42 42 41 38 35 30 28 30 30 31 30 30 28 30 41 40 44 46 53 55 59
84 88 81 77 83 90 84 72 63 66 72 71 73 74 80 85 87 88 84 79 78 79 79 67 59 48 43 41 42 39 36 35 33 29 28 28 30 30 31 34 34 35 42 43 36 41 42 46 50
71 79 79 83 59 85 80 81 46 69 66 68 62 71 78 83 85 88 82 81 83 81 78 66 48 45 41 42 43 41 37 33 30 31 35 36 38 39 36 36 36 36 43 50 49 50 50 50 54

GFSSGP_925_rhum_123.txt.gz
RH
49 47 46 40 30 42 39 37 41 36 33 30 36 51 56 54 67 66 50 50 84 81 83 86 83 81 73 75 77 80 83 84 88 91 89 87 87 86 74 60 73 90 84 82 93 96 96 87 82
51 49 42 51 33 33 45 43 39 34 30 32 34 43 50 50 40 42 46 57 82 76 79 83 84 83 77 71 68 77 81 85 86 89 89 88 91 88 85 76 63 88 95 82 87 95 94 74 85
50 49 51 48 54 43 53 42 35 28 27 25 37 45 44 45 38 42 46 55 82 74 73 79 80 82 82 77 71 68 76 82 84 86 86 83 87 89 89 85 77 71 90 92 82 89 92 84 73
46 45 43 47 45 43 45 38 32 28 25 26 40 48 39 38 37 38 40 45 69 71 83 81 80 78 81 81 80 80 75 74 76 82 85 85 80 83 86 88 86 77 69 91 88 84 90 86 75
48 50 43 48 48 43 37 32 28 27 26 30 30 48 44 36 34 34 31 37 42 54 63 88 85 78 77 78 78 80 81 81 80 77 82 87 84 81 83 85 86 82 70 75 90 88 90 85 72
58 50 47 54 51 40 32 30 27 30 31 28 31 49 43 35 29 31 22 28 36 33 34 39 65 90 88 86 84 81 80 82 82 82 81 82 82 81 83 82 84 85 82 62 80 87 88 89 81
52 50 49 52 51 38 32 29 33 31 31 27 26 47 40 29 27 20 16 17 22 23 25 31 28 32 46 71 88 91 89 86 80 82 83 82 82 82 83 82 80 80 84 83 67 82 88 87 86
51 41 38 43 47 39 33 31 31 29 27 24 22 47 36 20 17 16 16 16 17 18 19 21 21 20 20 20 22 47 81 88 88 86 82 82 81 81 81 80 78 76 78 82 81 68 81 86 81
37 50 48 44 44 40 31 32 23 23 23 22 20 21 18 18 17 20 21 22 24 26 27 27 27 26 26 24 23 21 21 45 86 89 86 85 82 78 78 80 79 76 74 76 80 81 77 82 88
46 51 44 42 38 38 28 26 25 21 21 18 17 17 17 18 24 26 28 31 30 28 28 30 28 27 26 26 26 26 25 22 24 52 79 87 88 83 76 76 81 81 78 75 74 78 84 84 88
36 45 45 42 32 29 26 25 26 22 16 18 17 17 18 24 26 30 35 35 38 44 43 40 38 38 35 30 30 26 25 26 25 22 24 35 70 88 83 78 74 72 73 77 79 82 82 88 86
38 39 38 38 31 26 26 25 22 25 17 20 20 20 22 27 31 37 40 48 52 52 54 51 50 49 47 46 39 33 32 28 27 27 26 26 27 52 81 84 79 76 74 78 78 84 82 82 81
35 33 35 33 29 27 24 22 23 27 23 24 24 22 24 31 38 50 54 58 59 56 55 52 53 52 52 48 48 49 39 32 31 29 27 25 25 34 39 58 80 81 77 75 76 76 76 82 83
32 38 32 28 26 28 30 30 33 18 22 24 24 24 32 45 50 60 64 65 61 59 57 58 56 56 56 55 52 49 55 51 39 34 31 29 29 29 35 36 54 77 84 82 80 74 70 73 78
29 28 28 31 29 32 37 21 37 23 22 24 24 32 60 66 64 72 70 67 65 62 65 67 69 68 67 67 69 68 58 61 53 40 37 35 33 33 32 32 46 69 66 82 82 81 80 76 81
26 29 25 29 31 36 22 17 17 28 27 25 28 30 68 69 72 72 69 68 67 69 71 73 72 72 72 73 73 75 72 67 61 45 38 37 35 34 35 33 45 68 82 87 98 86 91 93 94
38 31 28 31 33 37 36 26 22 31 32 37 40 44 74 75 72 73 73 73 74 75 78 74 75 80 85 88 96 82 67 65 63 56 44 41 43 45 74 81 85 85 82 86 99 98 99 95 86
32 26 29 31 46 46 47 51 44 37 37 42 44 72 78 76 73 74 74 73 76 72 75 76 76 90 97 98 98 86 70 67 64 64 54 54 60 60 62 56 47 46 60 100 100 100 94 98 88
40 40 37 44 53 61 62 64 51 49 49 52 55 80 82 76 73 73 73 74 75 72 78 79 82 97 94 96 97 98 99 84 73 77 83 78 77 79 82 95 99 85 83 83 99 100 100 100 97
48 45 51 54 52 65 67 70 53 55 60 59 61 85 80 75 76 76 75 76 79 78 81 78 78 93 92 90 98 99 100 95 100 97 100 100 98 99 98 98 99 100 96 93 91 97 100 100 94
64 55 62 67 74 62 73 52 38 48 65 76 78 79 78 77 77 81 78 80 81 79 82 77 71 85 98 98 98 98 97 95 98 98 98 98 98 97 89 94 98 99 100 99 94 98 99 99 96
50 60 66 75 78 65 68 55 51 53 58 72 83 82 80 77 77 82 81 81 81 80 82 72 66 72 86 95 98 98 99 100 99 90 96 98 86 87 86 93 98 99 100 100 100 99 99 100 99
65 61 68 73 80 85 74 91 64 57 60 62 79 80 82 82 82 85 82 83 79 82 80 73 62 69 72 80 86 91 98 92 84 78 77 80 72 70 74 84 96 98 100 100 100 99 97 100 99
63 74 74 78 84 84 77 87 73 61 55 54 64 77 81 84 84 84 82 84 81 81 80 66 50 48 56 60 64 64 67 73 72 75 70 70 66 60 66 72 72 73 96 100 100 100 92 95 92
73 69 72 62 82 69 81 93 78 56 54 56 65 76 80 83 85 87 88 86 83 81 79 60 46 40 38 39 37 41 46 48 53 57 58 48 56 54 61 67 74 78 72 76 92 99 100 91 87
76 67 73 43 67 83 81 89 64 55 64 60 62 66 75 83 86 88 86 84 84 80 79 73 59 48 48 46 46 44 42 40 41 44 44 41 36 37 36 50 73 84 83 64 67 73 80 86 97
73 85 65 84 92 95 88 69 52 61 64 73 74 77 82 86 85 87 82 82 83 82 77 79 70 59 53 49 47 44 42 39 36 31 30 32 32 33 32 34 36 51 55 66 60 62 70 70 72
68 66 75 89 57 68 74 69 69 53 74 78 80 83 83 83 84 87 83 79 80 79 76 76 74 59 50 44 44 43 41 37 30 26 25 27 31 31 30 31 36 39 43 38 40 42 52 60 65
84 87 82 77 81 85 78 62 63 59 60 70 71 74 76 78 83 84 83 74 76 77 79 79 68 60 50 45 43 40 38 34 29 26 28 31 34 37 38 38 37 36 48 48 43 46 45 49 56
72 80 81 80 62 89 80 79 46 53 68 70 69 69 71 76 78 84 81 76 77 77 77 78 72 53 44 41 42 40 36 32 30 29 31 34 36 38 40 43 43 45 59 60 63 58 48 54 60